[[{"header":{"parameterUnit":"m.s-1","parameterCategory":1,"la1":30.6,"la2":28.766,"lo1":-90.7593,"lo2":-88.6598,"dy":0.0162,"dx":0.0183,"nx":116,"ny":114,"refTime":"2023-08-22T12:00:00:Z","depth":0,"parameterNumber":2,"parameterNumberName":"U-component_of_WINDS"},"data":[0.0,0.0,0.0,0.0,0.0,0.0,0.0,0.0,0.0,0.0,0.0,0.0,0.0,0.0,0.0,0.0,0.0,0.0,0.0,0.0,0.0,0.0,0.0,0.0,0.0,0.0,0.0,0.0,0.0,0.0,0.0,0.0,0.0,0.0,0.0,0.0,0.0,0.0,0.0,0.0,0.0,0.0,0.0,0.0,0.0,0.0,0.0,0.0,0.0,0.0,0.0,0.0,0.0,0.0,0.0,0.0,0.0,0.0,0.0,0.0,0.0,0.0,0.0,0.0,0.0,0.0,0.0,0.0,0.0,0.0,0.0,0.0,0.0,0.0,0.0,0.0,0.0,0.0,0.0,0.0,0.0,0.0,0.0,0.0,0.0,0.0,0.0,0.0,0.0,0.0,0.0,0.0,0.0,0.0,0.0,0.0,0.0,0.0,0.0,0.0,0.0,0.0,0.0,0.0,0.0,0.0,0.0,0.0,0.0,0.0,0.0,0.0,0.0,0.0,0.0,0.0,0.0,0.0,0.0,0.0,0.0,0.0,0.0,0.0,0.0,0.0,0.0,0.0,0.0,0.0,0.0,0.0,0.0,0.0,0.0,0.0,0.0,0.0,0.0,0.0,0.0,0.0,0.0,0.0,0.0,0.0,0.0,0.0,0.0,0.0,0.0,0.0,0.0,0.0,0.0,0.0,0.0,0.0,0.0,0.0,0.0,0.0,0.0,0.0,0.0,0.0,0.0,0.0,0.0,0.0,0.0,0.0,0.0,0.0,0.0,0.0,0.0,0.0,0.0,0.0,0.0,0.0,0.0,0.0,0.0,0.0,0.0,0.0,0.0,0.0,0.0,0.0,0.0,0.0,0.0,0.0,0.0,0.0,0.0,0.0,0.0,0.0,0.0,0.0,0.0,0.0,0.0,0.0,0.0,0.0,0.0,0.0,0.0,0.0,0.0,0.0,0.0,0.0,0.0,0.0,0.0,0.0,0.0,0.0,0.0,0.0,0.0,0.0,0.0,0.0,0.0,0.0,0.0,0.0,0.0,0.0,0.0,0.0,0.0,0.0,0.0,0.0,0.0,0.0,0.0,0.0,0.0,0.0,0.0,0.0,0.0,0.0,0.0,0.0,0.0,0.0,0.0,0.0,0.0,0.0,0.0,0.0,0.0,0.0,0.0,0.0,0.0,0.0,0.0,0.0,0.0,0.0,0.0,0.0,0.0,0.0,0.0,0.0,0.0,0.0,0.0,0.0,0.0,0.0,0.0,0.0,0.0,0.0,0.0,0.0,0.0,0.0,0.0,0.0,0.0,0.0,0.0,0.0,0.0,0.0,0.0,0.0,0.0,0.0,0.0,0.0,0.0,0.0,0.0,0.0,0.0,0.0,0.0,0.0,0.0,0.0,0.0,0.0,0.0,0.0,0.0,0.0,0.0,0.0,0.0,0.0,0.0,0.0,0.0,0.0,0.0,0.0,0.0,0.0,0.0,0.0,0.0,0.0,0.0,0.0,0.0,0.0,0.0,0.0,0.0,0.0,0.0,0.0,0.0,0.0,0.0,0.0,0.0,0.0,0.0,0.0,0.0,0.0,0.0,0.0,0.0,0.0,0.0,0.0,0.0,0.0,0.0,0.0,0.0,0.0,0.0,0.0,0.0,0.0,0.0,0.0,0.0,0.0,0.0,0.0,0.0,0.0,0.0,0.0,0.0,0.0,0.0,0.0,0.0,0.0,0.0,0.0,0.0,0.0,0.0,0.0,0.0,0.0,0.0,0.0,0.0,0.0,0.0,0.0,0.0,0.0,0.0,0.0,0.0,0.0,0.0,0.0,0.0,0.0,0.0,0.0,0.0,0.0,0.0,0.0,0.0,0.0,0.0,0.0,0.0,0.0,0.0,0.0,0.0,0.0,0.0,0.0,0.0,0.0,0.0,0.0,0.0,0.0,0.0,0.0,0.0,0.0,0.0,0.0,0.0,0.0,0.0,0.0,0.0,0.0,0.0,0.0,0.0,0.0,0.0,0.0,0.0,0.0,0.0,0.0,0.0,0.0,0.0,0.0,0.0,0.0,0.0,0.0,0.0,0.0,0.0,0.0,0.0,0.0,0.0,0.0,0.0,0.0,0.0,0.0,0.0,0.0,0.0,0.0,0.0,0.0,0.0,0.0,0.0,0.0,0.0,0.0,0.0,0.0,0.0,0.0,0.0,0.0,0.0,0.0,0.0,0.0,0.0,0.0,0.0,0.0,0.0,0.0,0.0,0.0,0.0,0.0,0.0,0.0,0.0,0.0,0.0,0.0,0.0,0.0,0.0,0.0,0.0,0.0,0.0,0.0,0.0,0.0,0.0,0.0,0.0,0.0,0.0,0.0,0.0,0.0,0.0,0.0,0.0,0.0,0.0,0.0,0.0,0.0,0.0,0.0,0.0,0.0,0.0,0.0,0.0,0.0,0.0,0.0,0.0,0.0,0.0,0.0,0.0,0.0,0.0,0.0,0.0,0.0,0.0,0.0,0.0,0.0,0.0,0.0,0.0,0.0,0.0,0.0,0.0,0.0,0.0,0.0,0.0,0.0,0.0,0.0,0.0,0.0,0.0,0.0,0.0,0.0,0.0,0.0,0.0,0.0,0.0,0.0,0.0,0.0,0.0,0.0,0.0,0.0,0.0,0.0,0.0,0.0,0.0,0.0,0.0,0.0,0.0,0.0,0.0,0.0,0.0,0.0,0.0,0.0,0.0,0.0,0.0,0.0,0.0,0.0,0.0,0.0,0.0,0.0,0.0,0.0,0.0,0.0,0.0,0.0,0.0,0.0,0.0,0.0,0.0,0.0,0.0,0.0,0.0,0.0,0.0,0.0,0.0,0.0,0.0,0.0,0.0,0.0,0.0,0.0,0.0,0.0,0.0,0.0,0.0,0.0,0.0,0.0,0.0,0.0,0.0,0.0,0.0,0.0,0.0,0.0,0.0,0.0,0.0,0.0,0.0,0.0,0.0,0.0,0.0,0.0,0.0,0.0,0.0,0.0,0.0,0.0,0.0,0.0,0.0,0.0,0.0,0.0,0.0,0.0,0.0,0.0,0.0,0.0,0.0,0.0,0.0,0.0,0.0,0.0,0.0,0.0,0.0,0.0,0.0,0.0,0.0,0.0,0.0,0.0,0.0,0.0,0.0,0.0,0.0,0.0,0.0,0.0,0.0,0.0,0.0,0.0,0.0,0.0,0.0,0.0,0.0,0.0,0.0,0.0,0.0,0.0,0.0,0.0,0.0,0.0,0.0,0.0,0.0,0.0,0.0,0.0,0.0,0.0,0.0,0.0,0.0,0.0,0.0,0.0,0.0,0.0,0.0,0.0,0.0,0.0,0.0,0.0,0.0,0.0,0.0,0.0,0.0,0.0,0.0,0.0,0.0,0.0,0.0,0.0,0.0,0.0,0.0,0.0,0.0,0.0,0.0,0.0,0.0,0.0,0.0,0.0,0.0,0.0,0.0,0.0,0.0,0.0,0.0,0.0,0.0,0.0,0.0,0.0,0.0,0.0,0.0,0.0,0.0,0.0,0.0,0.0,0.0,0.0,0.0,0.0,0.0,0.0,0.0,0.0,0.0,0.0,0.0,0.0,0.0,0.0,0.0,0.0,0.0,0.0,0.0,0.0,0.0,0.0,0.0,0.0,0.0,0.0,0.0,0.0,0.0,0.0,0.0,0.0,0.0,0.0,0.0,0.0,0.0,0.0,0.0,0.0,0.0,0.0,0.0,0.0,0.0,0.0,0.0,0.0,0.0,0.0,0.0,0.0,0.0,0.0,0.0,0.0,0.0,0.0,0.0,0.0,0.0,0.0,0.0,0.0,0.0,0.0,0.0,0.0,0.0,0.0,0.0,0.0,0.0,0.0,0.0,0.0,0.0,0.0,0.0,0.0,0.0,0.0,0.0,0.0,0.0,0.0,0.0,0.0,0.0,0.0,0.0,0.0,0.0,0.0,0.0,0.0,0.0,0.0,0.0,0.0,0.0,0.0,0.0,0.0,0.0,0.0,0.0,0.0,0.0,0.0,0.0,0.0,0.0,0.0,0.0,0.0,0.0,0.0,0.0,0.0,0.0,0.0,0.0,0.0,0.0,0.0,0.0,0.0,0.0,0.0,0.0,0.0,0.0,0.0,0.0,0.0,0.0,0.0,0.0,0.0,0.0,0.0,0.0,0.0,0.0,0.0,0.0,0.0,0.0,0.0,0.0,0.0,0.0,0.0,0.0,0.0,0.0,0.0,0.0,0.0,0.0,0.0,0.0,0.0,0.0,0.0,0.0,0.0,0.0,0.0,0.0,0.0,0.0,0.0,0.0,0.0,0.0,0.0,0.0,0.0,0.0,0.0,0.0,0.0,0.0,0.0,0.0,0.0,0.0,0.0,0.0,0.0,0.0,0.0,0.0,0.0,0.0,0.0,0.0,0.0,0.0,0.0,0.0,0.0,0.0,0.0,0.0,0.0,0.0,0.0,0.0,0.0,0.0,0.0,0.0,0.0,0.0,0.0,0.0,0.0,0.0,0.0,0.0,0.0,0.0,0.0,0.0,0.0,0.0,0.0,0.0,0.0,0.0,0.0,0.0,0.0,0.0,0.0,0.0,0.0,0.0,0.0,0.0,0.0,0.0,0.0,0.0,0.0,0.0,0.0,0.0,0.0,0.0,0.0,0.0,0.0,0.0,0.0,0.0,0.0,0.0,0.0,0.0,0.0,0.0,0.0,0.0,0.0,0.0,0.0,0.0,0.0,0.0,0.0,0.0,0.0,0.0,0.0,0.0,0.0,0.0,0.0,0.0,0.0,0.0,0.0,0.0,0.0,0.0,0.0,0.0,0.0,0.0,0.0,0.0,0.0,0.0,0.0,0.0,0.0,0.0,0.0,0.0,0.0,0.0,0.0,0.0,0.0,0.0,0.0,0.0,0.0,0.0,0.0,0.0,0.0,0.0,0.0,0.0,0.0,0.0,0.0,0.0,0.0,0.0,0.0,0.0,0.0,0.0,0.0,0.0,0.0,0.0,0.0,0.0,0.0,0.0,0.0,0.0,0.0,0.0,0.0,0.0,0.0,0.0,0.0,0.0,0.0,0.0,0.0,0.0,0.0,0.0,0.0,0.0,0.0,0.0,0.0,0.0,0.0,0.0,0.0,0.0,0.0,0.0,0.0,0.0,0.0,0.0,0.0,0.0,0.0,0.0,0.0,0.0,0.0,0.0,0.0,0.0,0.0,0.0,0.0,0.0,0.0,0.0,0.0,0.0,0.0,0.0,0.0,0.0,0.0,0.0,0.0,0.0,0.0,0.0,0.0,0.0,0.0,0.0,0.0,0.0,0.0,0.0,0.0,0.0,0.0,0.0,0.0,0.0,0.0,0.0,0.0,0.0,0.0,0.0,0.0,0.0,0.0,0.0,0.0,0.0,0.0,0.0,0.0,0.0,0.0,0.0,0.0,0.0,0.0,0.0,0.0,0.0,0.0,0.0,0.0,0.0,0.0,0.0,0.0,0.0,0.0,0.0,0.0,0.0,0.0,0.0,0.0,0.0,0.0,0.0,0.0,0.0,0.0,0.0,0.0,0.0,0.0,0.0,0.0,0.0,0.0,0.0,0.0,0.0,0.0,0.0,0.0,0.0,0.0,0.0,0.0,0.0,0.0,0.0,0.0,0.0,0.0,0.0,0.0,0.0,0.0,0.0,0.0,0.0,0.0,0.0,0.0,0.0,0.0,0.0,0.0,0.0,0.0,0.0,0.0,0.0,0.0,0.0,0.0,0.0,0.0,0.0,0.0,0.0,0.0,0.0,0.0,0.0,0.0,0.0,0.0,0.0,0.0,0.0,0.0,0.0,0.0,0.0,0.0,0.0,0.0,0.0,0.0,0.0,0.0,0.0,0.0,0.0,0.0,0.0,0.0,0.0,0.0,0.0,0.0,0.0,0.0,0.0,0.0,0.0,0.0,0.0,0.0,0.0,0.0,0.0,0.0,0.0,0.0,0.0,0.0,0.0,0.0,0.0,0.0,0.0,0.0,0.0,0.0,0.0,0.0,0.0,0.0,0.0,0.0,0.0,0.0,0.0,0.0,0.0,0.0,0.0,0.0,-4.2305,0.0,0.0,0.0,0.0,0.0,0.0,0.0,0.0,0.0,0.0,0.0,0.0,0.0,0.0,0.0,0.0,0.0,0.0,0.0,0.0,0.0,0.0,0.0,0.0,0.0,0.0,0.0,0.0,0.0,0.0,0.0,0.0,0.0,0.0,0.0,0.0,0.0,0.0,0.0,-3.6168,-3.7833,-3.9049,-3.9698,-4.0664,-4.1789,0.0,0.0,0.0,0.0,0.0,0.0,0.0,0.0,0.0,0.0,0.0,0.0,0.0,0.0,0.0,0.0,0.0,0.0,0.0,0.0,0.0,0.0,0.0,0.0,0.0,0.0,0.0,0.0,0.0,0.0,0.0,0.0,0.0,0.0,0.0,0.0,0.0,0.0,0.0,0.0,0.0,0.0,0.0,0.0,0.0,0.0,0.0,0.0,0.0,0.0,0.0,0.0,0.0,0.0,0.0,0.0,0.0,0.0,0.0,0.0,0.0,0.0,0.0,0.0,0.0,0.0,0.0,0.0,0.0,0.0,0.0,-4.2187,0.0,0.0,0.0,0.0,0.0,0.0,0.0,0.0,0.0,0.0,0.0,0.0,0.0,0.0,0.0,0.0,0.0,0.0,0.0,0.0,0.0,0.0,0.0,0.0,0.0,0.0,0.0,0.0,0.0,0.0,0.0,0.0,0.0,0.0,0.0,-2.5959,-2.9114,-3.3622,-3.5485,-3.725,-3.875,-3.886,-3.9732,-4.1163,-4.1051,0.0,0.0,0.0,0.0,0.0,0.0,0.0,0.0,0.0,0.0,0.0,0.0,0.0,0.0,0.0,0.0,0.0,0.0,0.0,0.0,0.0,0.0,0.0,0.0,0.0,0.0,0.0,0.0,0.0,0.0,0.0,0.0,0.0,0.0,0.0,0.0,0.0,0.0,0.0,0.0,0.0,0.0,0.0,0.0,0.0,0.0,0.0,0.0,0.0,0.0,0.0,0.0,0.0,0.0,0.0,0.0,0.0,0.0,0.0,0.0,0.0,0.0,0.0,0.0,-4.2698,-4.2061,-4.2239,-4.2192,-4.1945,-4.1995,-4.2019,-4.2061,0.0,0.0,0.0,0.0,0.0,0.0,0.0,0.0,0.0,0.0,0.0,0.0,0.0,0.0,0.0,0.0,0.0,0.0,0.0,0.0,0.0,0.0,0.0,0.0,0.0,0.0,0.0,0.0,0.0,0.0,0.0,0.0,0.0,0.0,-2.66,-3.0863,-3.2528,-3.6336,-3.8318,-3.8639,-3.9148,-3.9292,-3.8999,-3.8254,-3.8051,-3.8162,0.0,0.0,0.0,0.0,0.0,0.0,0.0,0.0,0.0,0.0,0.0,0.0,0.0,0.0,0.0,0.0,0.0,0.0,0.0,0.0,0.0,0.0,0.0,0.0,0.0,0.0,0.0,0.0,0.0,0.0,0.0,0.0,0.0,0.0,0.0,0.0,0.0,0.0,0.0,0.0,0.0,-4.8016,-4.7306,0.0,0.0,0.0,0.0,0.0,0.0,0.0,0.0,0.0,0.0,0.0,0.0,0.0,0.0,-4.3818,-4.3689,-4.3318,-4.2711,-4.2523,-4.2262,-4.1917,-4.1805,-4.1675,-4.1648,-4.1648,0.0,-4.1866,-4.1987,0.0,0.0,0.0,0.0,0.0,0.0,0.0,0.0,0.0,0.0,0.0,0.0,0.0,0.0,0.0,0.0,0.0,0.0,0.0,0.0,0.0,0.0,0.0,0.0,0.0,0.0,0.0,0.0,0.0,0.0,0.0,-1.3233,-1.9142,-2.3878,-2.8949,-3.4519,-3.6896,-3.8181,-3.8343,-3.8343,-3.8286,-3.8165,-3.702,-3.6885,-3.7431,-3.6561,0.0,0.0,0.0,0.0,0.0,0.0,0.0,0.0,0.0,0.0,0.0,0.0,0.0,0.0,0.0,0.0,0.0,0.0,0.0,0.0,0.0,0.0,0.0,0.0,0.0,0.0,0.0,0.0,0.0,0.0,0.0,0.0,0.0,0.0,0.0,0.0,0.0,0.0,0.0,-4.6976,-4.7046,-4.6656,-4.6429,-4.6143,0.0,0.0,0.0,0.0,0.0,0.0,0.0,0.0,0.0,-4.4401,-4.403,-4.3772,-4.3638,-4.3123,-4.2696,-4.2418,-4.2092,-4.1856,-4.1719,-4.1648,-4.1604,-4.1604,-4.1515,-4.1453,-4.1498,-4.171,-4.1736,-4.1719,0.0,0.0,0.0,0.0,0.0,-3.8838,0.0,0.0,0.0,0.0,0.0,0.0,0.0,0.0,0.0,0.0,0.0,0.0,0.0,0.0,0.0,0.3001,0.0,0.0,0.0,0.0,0.0,0.0,0.0,-1.1905,-1.9452,-2.3752,-2.9437,-3.6682,-3.7536,-3.801,-3.8059,-3.7637,-3.7578,-3.7706,-3.627,-3.6104,-3.6835,-3.6025,-3.5488,-3.5232,0.0,0.0,0.0,0.0,0.0,0.0,0.0,0.0,0.0,0.0,0.0,0.0,0.0,0.0,0.0,0.0,0.0,0.0,0.0,0.0,0.0,0.0,0.0,0.0,0.0,0.0,0.0,0.0,0.0,0.0,0.0,0.0,0.0,0.0,0.0,0.0,0.0,-4.6651,-4.6641,-4.6385,-4.6112,-4.5861,0.0,0.0,0.0,0.0,0.0,0.0,-4.4505,-4.4391,-4.4314,-4.4274,-4.3855,-4.359,-4.3471,-4.2829,-4.2462,-4.236,-4.1941,-4.1744,-4.1744,-4.1648,-4.1604,-4.1604,-4.1471,-4.1318,-4.1209,-4.1408,-4.1408,-4.13,-4.13,-4.0689,0.0,-3.9732,-3.9135,-3.8391,0.0,0.0,0.0,0.0,0.0,0.0,0.0,0.0,0.0,0.0,0.0,0.0,0.0,0.0,0.8587,0.8093,0.5277,0.4184,0.0,0.0,0.0,-0.3474,-0.7953,-1.3616,-2.049,-2.9525,-3.5455,-3.8026,-3.8294,-3.8294,-3.7886,-3.7663,-3.7546,-3.7354,-3.5702,-3.534,-3.6007,-3.4938,-3.402,-3.3391,-3.4186,0.0,0.0,0.0,0.0,0.0,0.0,0.0,0.0,0.0,0.0,0.0,0.0,0.0,0.0,0.0,0.0,0.0,0.0,0.0,0.0,0.0,0.0,0.0,0.0,0.0,0.0,0.0,0.0,0.0,0.0,0.0,0.0,0.0,0.0,0.0,0.0,0.0,0.0,-4.7423,-4.6931,0.0,0.0,0.0,0.0,-4.4655,-4.461,-4.4584,-4.4503,-4.4325,-4.4214,-4.4214,-4.4055,-4.3809,-4.3406,-4.3353,-4.3141,-4.2754,-4.2342,-4.2175,-4.2175,-4.1788,-4.1604,-4.1604,-4.1471,-4.1318,-4.1209,-4.1192,-4.0896,-4.0449,-4.0449,-3.9902,-3.9143,-3.8999,-3.8701,-3.8351,0.0,0.0,0.0,0.0,0.0,0.0,0.0,0.0,0.0,0.0,0.0,0.0,0.0,1.117,1.0635,0.9022,0.753,0.5854,0.3978,0.0,0.0,-0.4678,-0.6988,-1.3733,-2.5442,-3.1556,-3.5734,-3.7985,-3.787,-3.7562,-3.7087,-3.6845,-3.66,-3.6368,-3.5445,-3.4768,-3.4318,-3.366,-3.2992,-3.2517,-3.3171,-3.3553,0.0,0.0,0.0,0.0,0.0,0.0,0.0,0.0,0.0,0.0,0.0,0.0,0.0,0.0,0.0,0.0,0.0,0.0,0.0,0.0,0.0,0.0,0.0,0.0,0.0,0.0,0.0,0.0,0.0,0.0,0.0,0.0,0.0,0.0,0.0,0.0,0.0,-4.6532,-4.628,0.0,0.0,-4.5225,-4.4985,-4.4868,-4.4549,-4.4335,-4.4325,-4.4177,-4.4055,-4.4055,-4.4005,-4.3923,-4.3777,-4.3797,-4.3703,-4.3568,-4.3398,-4.3315,-4.327,-4.3152,-4.3079,-4.3079,-4.2847,-4.2706,-4.2688,-4.2514,-4.1799,-4.0693,-4.0302,-4.0017,-3.9781,-3.9371,-3.9182,-3.9081,0.0,0.0,0.0,0.0,0.0,0.0,0.0,0.0,0.0,0.0,0.0,1.0792,1.1194,1.1868,1.1332,0.8909,0.7821,0.6025,0.3143,0.0,0.0,-0.6112,-1.0799,-1.8557,-2.9948,-3.3556,-3.606,-3.7637,-3.7401,-3.7147,-3.6906,-3.6305,-3.618,-3.6461,-3.5276,-3.4301,-3.3623,-3.2521,-3.1814,-3.1459,-3.1855,-3.2252,-3.2623,0.0,0.0,0.0,0.0,0.0,0.0,0.0,0.0,0.0,0.0,0.0,0.0,0.0,0.0,0.0,0.0,0.0,0.0,0.0,0.0,0.0,0.0,0.0,0.0,0.0,0.0,0.0,0.0,0.0,0.0,0.0,0.0,0.0,0.0,0.0,-4.6072,-4.6045,-4.5822,-4.5632,-4.556,-4.512,-4.4825,-4.48,-4.4383,-4.4135,-4.4135,-4.4055,-4.4005,-4.4005,-4.4283,-4.4432,-4.4432,-4.4689,-4.4746,-4.4595,-4.4431,-4.4263,-4.41,-4.3979,-4.3904,-4.3793,-4.362,-4.3458,-4.3426,-4.3247,-4.2627,-4.1598,-4.1035,-4.0562,-4.0278,-3.991,-3.9642,-3.944,0.0,0.0,0.0,0.0,0.0,0.0,0.0,0.0,0.0,0.0,0.9304,1.031,1.031,1.0993,1.0471,0.8058,0.5852,0.4125,0.3179,-0.0387,0.0,-0.8242,-1.9616,-2.8249,-3.3439,-3.5746,-3.7011,-3.7115,-3.7131,-3.7251,-3.737,-3.629,-3.6445,-3.7551,-3.515,-3.4065,-3.3789,-3.1507,-3.0466,-3.028,-3.0179,-3.0616,-3.1375,0.0,0.0,0.0,0.0,0.0,0.0,0.0,0.0,0.0,0.0,0.0,0.0,0.0,0.0,0.0,0.0,0.0,0.0,0.0,0.0,0.0,0.0,0.0,0.0,0.0,0.0,0.0,0.0,0.0,0.0,0.0,0.0,0.0,-4.6181,-4.6083,-4.6037,-4.6098,-4.5689,-4.5381,-4.5304,-4.483,-4.4484,-4.443,-4.4151,-4.4005,-4.4005,-4.4005,-4.4005,-4.4042,-4.4859,-4.5305,-4.5342,-4.6122,-4.6292,-4.5792,-4.543,-4.4988,-4.452,-4.4124,-4.388,-4.3785,-4.3624,-4.3496,-4.3348,-4.3283,-4.3301,-4.3233,-4.255,-4.1583,-4.054,-4.054,-4.0135,-3.9424,0.0,0.0,0.0,0.0,0.0,0.0,0.0,0.0,0.0,0.0,0.7697,0.8375,0.7572,0.7563,0.6608,0.4448,0.1622,-0.1226,-0.4098,0.0,-1.0371,-1.6956,-2.4393,-3.0228,-3.4229,-3.623,-3.7541,-3.8246,-3.7953,-3.778,-3.7674,-3.7191,-3.6738,-3.6352,-3.5748,-3.4741,-3.3317,-3.194,-3.0732,-2.9628,-2.8848,-2.8911,-2.949,0.0,0.0,0.0,0.0,0.0,0.0,0.0,0.0,0.0,0.0,0.0,0.0,0.0,0.0,0.0,0.0,0.0,0.0,0.0,0.0,0.0,0.0,0.0,0.0,0.0,0.0,0.0,0.0,0.0,0.0,0.0,0.0,-4.5971,-4.6105,-4.6106,-4.6072,-4.6018,-4.579,-4.5528,-4.5323,-4.4943,-4.4624,-4.443,-4.4151,-4.4005,-4.4005,-4.4005,-4.4283,-4.4915,-4.5175,-4.5565,-4.616,-4.6629,-4.6635,-4.6266,-4.627,-4.6021,-4.5602,-4.5376,-4.5244,-4.5194,-4.5093,-4.4991,-4.494,-4.4854,-4.4803,-4.463,-4.2959,-4.2122,-4.1805,-4.139,-4.1116,-4.0939,0.0,0.0,0.0,0.0,0.0,0.0,0.0,0.0,0.0,0.0,0.3433,0.3992,0.2442,0.215,0.0676,-0.2534,-0.4266,-0.6934,-1.1276,0.0,-1.7768,-2.372,-2.8621,-3.2715,-3.5937,-3.7393,-3.8293,-3.8608,-3.8414,-3.8206,-3.7889,-3.7589,-3.7266,-3.6829,-3.6197,-3.5217,-3.3888,-3.2108,-3.0662,-2.9467,-2.7793,-2.7654,-2.8454,-2.8285,-2.8996,-3.0033,-3.0061,-3.0513,-3.1142,-3.133,0.0,0.0,0.0,0.0,0.0,0.0,0.0,0.0,0.0,0.0,0.0,0.0,0.0,0.0,0.0,0.0,0.0,0.0,0.0,0.0,0.0,0.0,0.0,0.0,-4.5678,-4.591,-4.6086,-4.6109,-4.6098,-4.6045,-4.5847,-4.5632,-4.5475,-4.5161,-4.4849,-4.4599,-4.4318,-4.4121,-4.4005,-4.4358,-4.4785,-4.5268,-4.5955,-4.6531,-4.6995,-4.755,-4.7591,-4.7183,-4.7331,-4.7026,-4.6381,-4.6235,-4.6038,0.0,-4.5667,-4.5581,-4.5528,-4.5423,-4.5423,0.0,0.0,0.0,0.0,0.0,-4.1789,-4.1522,0.0,0.0,0.0,0.0,0.0,0.0,0.0,0.0,0.0,0.0,0.0,-0.2449,-0.4581,-0.4873,-0.6804,-1.1493,-1.1473,-1.3474,0.0,-2.2403,-2.5779,-2.9223,-3.2518,-3.5497,-3.8137,-3.9007,-3.9199,-3.878,-3.8842,-3.8674,-3.823,-3.7978,-3.7953,-3.8042,-3.6646,-3.5704,-3.5064,-3.2447,-3.0733,-2.955,-2.7372,-2.7006,-2.7855,-2.7802,-2.8285,-2.8975,-2.903,-2.9303,-2.9728,-2.9893,0.0,0.0,0.0,0.0,0.0,0.0,0.0,0.0,0.0,0.0,0.0,0.0,0.0,0.0,0.0,0.0,0.0,0.0,0.0,0.0,0.0,0.0,0.0,0.0,-4.5621,-4.5859,-4.6064,-4.6093,-4.6099,-4.6105,-4.5871,-4.5712,-4.5665,-4.5381,-4.5074,-4.4776,-4.4546,-4.426,-4.4017,0.0,0.0,0.0,0.0,-4.7738,-4.7831,-4.8537,-4.8714,-4.8306,-4.8306,-4.7775,-4.6863,-4.6707,-4.6346,-4.577,-4.5632,-4.5528,-4.5423,-4.5423,-4.5423,-4.5371,-4.5247,-4.4835,-4.4259,-4.2941,-4.2077,0.0,0.0,0.0,0.0,0.0,0.0,0.0,0.0,0.0,0.0,-1.2933,-1.143,-1.0889,-1.2558,-1.3189,-1.5021,-1.8914,-2.0576,-2.3802,-2.9465,-3.1147,-3.2773,-3.4647,-3.6692,-3.8313,-3.9339,-3.9985,-4.0314,-4.0349,-4.0169,-3.9935,-3.9679,-3.9418,-3.892,-3.8238,-3.8051,-3.7006,-3.5304,-3.4543,-3.2663,-3.006,-2.9048,-2.7954,-2.6905,-2.6496,-2.6769,-2.7456,-2.7456,-2.7815,-2.8349,-2.8414,-2.9108,-3.0061,-3.0715,-3.1663,0.0,0.0,0.0,0.0,0.0,0.0,0.0,0.0,0.0,0.0,0.0,0.0,0.0,0.0,0.0,0.0,0.0,0.0,0.0,-4.425,-4.5102,-4.5805,-4.6064,-4.6102,-4.6095,-4.6092,-4.5959,-4.5769,-4.547,-4.5362,-4.5074,-4.4599,-4.4465,-4.426,-4.4017,-4.4822,0.0,-4.6252,-4.72,-4.8017,-4.8667,-4.8816,-4.8714,-4.8306,0.0,0.0,-4.6707,-4.6501,-4.6102,-4.5632,-4.5476,-4.5423,-4.5423,-4.5423,-4.5423,-4.53,-4.4282,-4.3806,-4.3512,-4.2253,-4.1704,-4.1588,0.0,0.0,0.0,0.0,0.0,0.0,0.0,0.0,0.0,0.0,-1.7916,-1.7725,-1.9579,-2.0125,-2.153,-2.4569,-2.7276,-3.0242,-3.3605,-3.4611,-3.5781,-3.7383,-3.8562,-3.9631,-4.0508,-4.078,-4.1094,-4.1338,-4.1128,-4.0849,-4.0497,-4.0269,-3.9783,-3.9053,-3.8358,-3.7456,-3.64,-3.4837,-3.2713,-3.0281,-2.9028,-2.7326,-2.5565,-2.5171,-2.5217,-2.5569,-2.5697,-2.5869,-2.6189,-2.6854,-2.7788,-2.8793,-2.9484,-3.0488,-3.1691,0.0,0.0,0.0,0.0,0.0,0.0,0.0,0.0,0.0,0.0,0.0,0.0,0.0,0.0,-4.1724,0.0,0.0,-4.395,-4.43,-4.5035,-4.5641,-4.588,-4.6021,-4.6092,-4.6105,-4.5979,-4.5822,-4.5629,-4.5545,-4.5284,-4.4751,-4.4676,-4.4457,-4.4017,-4.4822,-4.5658,-4.6475,-4.7274,-4.8091,-4.889,-4.8909,-4.8785,-4.8605,-4.8514,-4.8135,-4.7506,-4.7035,-4.6548,-4.602,-4.5667,-4.5476,-4.5423,-4.5423,-4.5423,-4.5247,-4.398,-4.3512,-4.3393,-4.2443,-4.19,-4.1588,0.0,0.0,0.0,0.0,0.0,0.0,0.0,0.0,0.0,0.0,-2.4258,-2.4198,-2.6117,-2.6418,-2.7354,0.0,-3.2657,-3.4851,-3.5518,-3.6545,-3.778,-3.9251,-3.9834,-4.0582,-4.1481,-4.1604,-4.1796,-4.2008,-4.1831,-4.149,-4.1041,-4.0844,-4.0511,-4.0035,-3.8712,-3.7905,-3.7424,-3.4961,-3.2611,-3.0512,-2.8875,-2.6788,-2.4588,-2.4157,-2.3988,-2.3952,-2.399,-2.4002,-2.4192,-2.523,-2.6396,-2.7475,-2.8231,-2.9125,-3.0256,-3.1939,-3.2349,0.0,0.0,0.0,0.0,0.0,0.0,0.0,0.0,0.0,-3.9333,-4.0981,-4.1552,-4.1998,-4.2701,-4.3402,-4.3998,-4.438,-4.4944,-4.5454,-4.5659,-4.592,-4.6097,-4.6104,-4.6005,-4.5902,-4.581,-4.5746,-4.5509,-4.5033,-4.4943,-4.465,-4.4121,-4.4867,-4.5658,-4.6475,-4.7274,-4.8091,-4.889,-4.8909,-4.8909,-4.8909,-4.8909,-4.8678,-4.8267,-4.7674,-4.708,-4.6501,-4.5887,-4.5528,-4.5423,-4.5423,-4.5423,-4.53,-4.4112,-4.363,-4.3393,-4.2694,-4.2077,-4.1588,0.0,0.0,0.0,0.0,0.0,0.0,0.0,0.0,0.0,0.0,0.0,0.0,0.0,0.0,0.0,-3.4096,-3.692,-3.8421,-3.7933,-4.0006,-4.1314,-4.1525,-4.1821,-4.211,-4.2257,-4.2595,-4.2616,-4.2444,-4.2239,-4.1931,-4.1534,-4.1383,-4.1082,-4.0689,-4.0169,-3.904,-3.753,-3.6261,-3.3902,-3.0929,-2.9796,-2.773,-2.5165,-2.4035,-2.3448,-2.325,-2.2637,-2.3018,-2.3829,-2.3577,-2.4797,-2.6347,-2.6747,-2.758,-2.873,-3.0297,-3.0557,-3.058,-3.1619,-3.2521,-3.3401,-3.4138,-3.5078,-3.6017,0.0,0.0,-3.8082,-3.9008,-3.9576,-4.006,-4.0634,-4.1852,-4.2936,-4.3372,-4.4456,-4.5323,-4.5659,-4.592,-4.6094,-4.6094,-4.608,-4.5998,-4.5827,-4.5791,-4.5665,-4.5361,-4.5077,-4.4776,-4.4465,-4.5002,-4.5658,-4.6475,-4.7274,-4.8091,-4.889,-4.8909,-4.8909,-4.8909,-4.8909,-4.8678,-4.8267,-4.7674,-4.7142,-4.6613,-4.5887,-4.5528,-4.5423,-4.5423,-4.5423,-4.5318,-4.4669,-4.3997,-4.3333,-4.2126,-4.1638,-4.1588,0.0,0.0,0.0,0.0,0.0,0.0,0.0,0.0,0.0,0.0,0.0,0.0,0.0,0.0,0.0,-3.5467,-3.7541,-3.8814,-3.8842,-4.0901,-4.2062,-4.1967,-4.2329,-4.2659,-4.2941,-4.3069,-4.3087,-4.2977,-4.2922,-4.2734,-4.2458,-4.2198,-4.1846,-4.1383,-4.0586,-3.9563,-3.8421,-3.6854,-3.4501,-3.182,-3.0698,-2.8289,-2.519,-2.4048,-2.307,-2.2203,-2.1834,-2.2242,0.0,-2.2681,-2.403,-2.5781,-2.5813,-2.7002,-2.8547,-2.9222,-2.9669,0.0,-3.1896,-3.262,0.0,0.0,-3.531,-3.6142,-3.681,-3.7494,-3.8287,-3.953,-4.0165,-4.0627,-4.1149,-4.2285,-4.3185,0.0,-4.4423,-4.5264,-4.5396,-4.5817,-4.6098,-4.6041,-4.6102,-4.6086,-4.5933,-4.5841,-4.5692,-4.5417,-4.5163,-4.4872,-4.4519,-4.4595,-4.5015,-4.5769,-4.6587,-4.7386,-4.8184,-4.8667,-4.8909,-4.8909,-4.8909,-4.882,-4.8642,-4.786,-4.7053,-4.6284,-4.5803,-4.5581,-4.5528,-4.5423,-4.5423,-4.53,-4.4299,-4.3764,-4.3393,-4.2506,-4.1964,-4.1588,0.0,0.0,0.0,0.0,0.0,0.0,0.0,0.0,0.0,0.0,0.0,0.0,0.0,0.0,-3.6079,-3.6891,-3.8148,-3.9062,-3.9611,-4.1328,-4.233,-4.2415,-4.2757,-4.3068,-4.3367,-4.3416,-4.3453,-4.3545,-4.3542,-4.3493,-4.3321,-4.3014,-4.2621,-4.2239,-4.1128,-4.0195,-3.9354,-3.7313,-3.507,-3.2806,-3.1449,-2.8944,-2.6015,-2.5158,-2.3813,-2.2261,-2.1164,-2.1231,-2.18,-2.1665,-2.3216,-2.5152,-2.5205,-2.6593,-2.8338,-2.8549,-2.9191,-3.0213,-3.1905,0.0,0.0,-3.4527,-3.5613,-3.6526,-3.7054,-3.7878,-3.887,-3.9918,-4.0625,-4.1185,-4.1561,-4.2621,-4.3422,-4.3471,-4.439,-4.5118,-4.518,-4.5699,-4.6053,-4.6021,-4.6113,-4.6153,-4.6046,-4.5922,-4.5747,-4.5541,-4.5264,-4.4966,-4.4676,-4.4393,-4.4544,-4.53,-4.5862,-4.6661,-4.7683,-4.8277,-4.8686,-4.8909,-4.8909,-4.8909,-4.8874,-4.7999,-4.7026,-4.5972,-4.5787,-4.5615,-4.5581,-4.5476,-4.5423,-4.53,-4.4395,-4.3806,-4.3453,-4.2986,-4.2333,-4.1522,0.0,0.0,0.0,0.0,0.0,0.0,0.0,0.0,0.0,0.0,0.0,0.0,0.0,0.0,-3.9288,-3.9404,-3.9626,-4.0061,-4.0818,-4.1812,-4.2705,-4.3408,-4.3479,-4.3495,-4.3579,-4.3726,-4.3886,-4.4079,-4.3962,-4.3893,-4.3986,-4.3775,-4.3502,-4.3213,-4.2149,-4.1139,-4.0109,-3.7705,-3.5594,-3.3792,-3.1839,-2.9974,-2.8275,-2.7591,-2.6246,-2.4224,-2.0445,-1.9844,-2.0767,-2.0406,-2.2029,-2.433,-2.4814,-2.6232,0.0,-2.8234,-2.9244,-3.0391,-3.0945,-3.2115,-3.3324,-3.3864,-3.5583,-3.71,-3.71,-3.8334,-3.9468,-3.9537,-4.0336,-4.1036,-4.1019,-4.2221,-4.325,-4.3371,-4.4243,-4.4943,-4.5074,-4.562,-4.599,-4.5998,-4.611,-4.6167,0.0,-4.6036,-4.5941,-4.5814,-4.5361,-4.5096,-4.5074,-4.4541,-4.4556,-4.5376,-4.5369,-4.6104,-4.7683,-4.772,-4.8129,-4.8909,-4.8909,-4.8909,-4.8874,-4.7999,-4.7026,-4.5972,-4.5871,-4.5718,-4.5581,-4.5476,-4.5423,-4.5371,-4.5371,-4.458,-4.3512,-4.3512,-4.2678,-4.1588,0.0,0.0,0.0,0.0,0.0,0.0,0.0,0.0,0.0,0.0,0.0,0.0,0.0,0.0,0.0,0.0,-4.1452,-4.1804,-4.1708,-4.3247,-4.4026,-4.3664,-4.4295,-4.4493,-4.4072,-4.4199,-4.4199,-4.4091,-4.4042,-4.4011,-4.3999,-4.3841,-4.3594,-4.3281,-4.2643,-4.1747,-4.0582,-3.903,-3.7245,-3.5322,-3.3936,-3.2055,-2.9998,-2.8437,-2.6816,-2.502,0.0,-2.1503,-2.1679,-2.0648,-2.2062,-2.4237,-2.4209,-2.5639,-2.749,-2.7968,-2.8862,-3.0012,-3.1016,-3.2162,-3.3267,-3.42,-3.5619,-3.6798,-3.6951,-3.8026,-3.904,-3.9148,-3.948,-3.9838,-4.0193,-4.1337,-4.2304,-4.2638,-4.3905,-4.4915,-4.4962,-4.5491,-4.5901,-4.5985,-4.6089,0.0,0.0,0.0,0.0,-4.5814,-4.5399,-4.5159,-4.5096,-4.4549,-4.4356,-4.4594,-4.5071,-4.5565,-4.6104,-4.7163,-4.785,-4.811,-4.8649,-4.8623,-4.8038,-4.7756,-4.7071,-4.6122,-4.5871,-4.577,-4.5736,-4.5476,-4.5423,-4.5371,-4.4961,-4.4243,-4.3453,-4.3047,-4.2317,-4.1588,0.0,0.0,0.0,0.0,0.0,0.0,0.0,0.0,0.0,0.0,0.0,0.0,0.0,0.0,0.0,0.0,0.0,-4.2443,-4.2081,-4.3471,-4.4151,-4.3809,-4.4488,-4.45,-4.3781,-4.3886,-4.3755,-4.3293,-4.3602,-4.377,-4.3759,-4.3918,-4.3823,-4.3419,-4.3105,-4.235,-4.1223,-3.99,-3.8384,-3.6738,-3.5163,-3.3379,-3.139,-2.9459,-2.7755,0.0,-2.4311,-2.3418,-2.2928,-2.1631,-2.2662,-2.4442,-2.4279,-2.5541,-2.7126,-2.7876,-2.8746,-2.9818,-3.1126,-3.2182,-3.3121,-3.4119,-3.5449,-3.6538,-3.6676,-3.7764,-3.8805,-3.8914,-3.9024,-3.9208,-3.9703,-4.0637,-4.1449,-4.1695,-4.3222,-4.4388,-4.4345,-4.5109,-4.5769,-4.593,-4.604,-4.6102,0.0,0.0,0.0,-4.5808,-4.549,-4.5244,-4.514,-4.4688,-4.4364,-4.4244,-4.4675,-4.5021,-4.5287,-4.6327,-4.7125,-4.7701,-4.8046,-4.7995,-4.7591,-4.7421,-4.6954,-4.6154,-4.5693,-4.5471,-4.5386,-4.4871,-4.4665,-4.4561,-4.4175,-4.3635,-4.2965,-4.2397,-4.1746,-4.1167,0.0,0.0,0.0,0.0,0.0,0.0,0.0,0.0,0.0,0.0,0.0,0.0,0.0,0.0,0.0,0.0,0.0,0.0,-4.2074,-4.266,-4.3316,-4.3912,-4.4023,-4.3689,-4.2872,-4.3013,-4.2688,-4.1866,-4.2688,-4.3146,-4.3238,-4.3933,-4.4042,-4.3597,-4.3369,-4.2741,-4.1747,-4.0298,-3.9026,-3.773,-3.5638,-3.3968,-3.262,-3.068,-2.9022,-2.7569,-2.6427,-2.538,-2.4387,-2.3074,-2.3655,-2.4856,-2.516,-2.5909,-2.6917,-2.7868,-2.8822,-2.986,-3.1129,-3.2082,-3.2933,-3.3656,-3.5044,-3.6245,-3.626,-3.7557,-3.8733,-3.8756,-3.8872,-3.9109,0.0,0.0,-4.0682,-4.0704,-4.2321,-4.3523,-4.3404,-4.4594,-4.5612,0.0,0.0,0.0,0.0,0.0,0.0,-4.5822,0.0,-4.5399,-4.5222,-4.4872,-4.4584,-4.4314,-4.4244,-4.4544,-4.5231,-4.5268,-4.6085,-4.7627,-4.7187,-4.714,-4.7464,-4.7008,-4.6542,-4.6014,-4.5198,-4.4785,-4.455,-4.3672,-4.3247,-4.3214,-4.3214,-4.2775,-4.2146,-4.1533,-4.0943,-4.0478,0.0,0.0,0.0,0.0,0.0,0.0,0.0,0.0,0.0,0.0,0.0,0.0,0.0,0.0,0.0,0.0,0.0,0.0,-4.2964,-4.4149,-4.4389,-4.3241,-4.4327,-4.4569,-4.3781,-4.3919,-4.3538,-4.2697,-4.2931,-4.2782,-4.2318,-4.2416,-4.237,-4.2196,-4.1802,-4.1053,-4.0023,-3.9606,-3.8533,-3.7083,-3.6039,-3.5002,-3.3933,-3.1618,-3.0269,-2.9401,-2.7984,-2.7169,-2.6503,-2.4451,-2.4508,-2.5558,-2.6371,-2.6834,-2.7188,-2.7918,-2.88,-2.968,-3.0453,-3.1343,-3.2212,-3.303,-3.4216,-3.531,-3.5661,-3.698,-3.8028,-3.7734,-3.7607,-3.7679,0.0,0.0,0.0,-4.0954,-4.2931,0.0,-4.4429,-4.5091,0.0,-4.5869,0.0,-4.6014,-4.6171,-4.6132,0.0,0.0,-4.5665,-4.5399,-4.5222,-4.4872,-4.461,-4.4383,-4.4274,-4.4296,-4.447,-4.5021,-4.5807,-4.681,-4.6672,-4.6342,-4.5816,-4.5694,-4.5203,-4.4483,-4.4148,-4.3916,-4.3802,-4.3447,-4.3247,-4.3214,-4.3214,-4.2775,-4.2146,-4.1533,-4.0943,-4.0349,0.0,0.0,0.0,0.0,0.0,0.0,0.0,0.0,0.0,0.0,0.0,0.0,0.0,0.0,0.0,0.0,0.0,0.0,0.0,-4.4064,-4.4175,-4.3554,-4.3979,-4.4023,-4.3569,-4.3636,-4.3058,-4.1855,-4.218,-4.1996,-4.136,-4.1567,-4.1571,-4.1385,-4.1199,-4.0613,-3.9825,-3.9451,-3.8581,0.0,0.0,-3.548,-3.4532,-3.2345,-3.1308,-3.0848,-2.9281,-2.88,-2.8686,-2.7525,-2.6979,-2.6924,-2.7956,-2.8205,-2.8243,-2.9019,-2.981,-3.0677,-3.1388,-3.2143,-3.2818,-3.3479,-3.4447,-3.5329,-3.5488,-3.6541,-3.7383,-3.7037,-3.6933,0.0,-3.7387,-3.8567,0.0,0.0,0.0,0.0,-4.409,-4.4937,-4.5654,0.0,-4.5959,0.0,-4.6228,-4.615,-4.6086,0.0,-4.579,-4.5541,-4.5343,-4.5055,-4.4795,-4.4522,-4.4383,-4.4274,-4.4184,-4.4538,-4.5138,-4.5974,-4.5771,-4.5516,-4.5178,-4.4998,-4.4553,-4.3869,0.0,-4.3114,-4.3001,-4.2528,-4.2262,-4.2213,-4.2213,-4.195,-4.1546,-4.0959,-4.0382,-3.9756,0.0,0.0,0.0,0.0,0.0,0.0,0.0,0.0,0.0,0.0,0.0,0.0,0.0,0.0,0.0,0.0,0.0,0.0,0.0,0.0,0.0,-4.4046,-4.3492,-4.3098,-4.2957,-4.301,-4.2292,-4.0746,-4.1282,-4.12,-4.0514,-4.1014,-4.1046,-4.074,-4.0804,-4.0562,-4.004,-3.9349,-3.8664,-3.7923,-3.6639,-3.5618,-3.4717,0.0,0.0,-3.2033,-3.0548,-3.0354,-3.0817,-3.1112,-3.005,-2.8767,-2.9587,-2.9786,-2.9839,-3.0597,-3.1371,-3.2097,-3.2933,-3.3492,-3.3919,-3.437,-3.5204,-3.5889,-3.5656,-3.641,-3.7031,-3.6607,0.0,-3.6763,-3.7014,-3.8182,-3.9173,-3.9423,0.0,-4.3391,-4.3448,-4.4651,-4.5626,-4.5878,-4.6024,-4.615,-4.6287,-4.6186,-4.6099,-4.6098,-4.5928,-4.5723,-4.5507,-4.5304,-4.503,-4.4669,-4.4486,-4.4344,-4.4184,-4.4085,-4.4395,-4.5119,-4.4715,-4.4657,-4.4932,-4.4468,-4.4058,-4.3627,0.0,0.0,-4.2183,-4.14,-4.1029,-4.0888,-4.0888,-4.0888,-4.0823,-4.022,-3.9645,-3.9098,0.0,0.0,0.0,0.0,0.0,0.0,0.0,0.0,0.0,0.0,-4.603,-4.5586,0.0,0.0,0.0,0.0,0.0,0.0,0.0,0.0,0.0,0.0,-4.398,-4.4178,-4.3265,-4.3995,-4.3755,-4.2547,-4.2006,-4.1334,-4.056,-4.0037,-3.9621,-3.9338,-3.913,-3.878,-3.831,-3.7897,-3.7447,-3.7009,-3.6371,-3.5762,-3.5203,-3.4394,0.0,0.0,-3.2619,-3.2277,-3.2154,-3.2608,-3.1914,-3.0831,-3.0838,-3.128,-3.1826,-3.1422,-3.2058,-3.2807,-3.2763,-3.3296,-3.398,-3.4589,-3.5537,-3.6336,-3.6169,-3.6925,0.0,0.0,-3.6552,-3.6802,-3.6828,-3.7803,-3.9085,-4.0547,-4.2192,-4.3662,-4.4649,-4.5284,-4.5708,0.0,-4.6016,-4.615,0.0,0.0,0.0,0.0,0.0,0.0,-4.5507,-4.5304,-4.4981,-4.4477,-4.4411,-4.4344,-4.4184,-4.4184,-4.4178,-4.4228,-4.4146,-4.3956,-4.3704,-4.3284,-4.2875,-4.2441,0.0,0.0,-4.14,-4.1215,-4.1088,-4.0888,-4.0888,-4.0888,-4.0823,-4.022,-3.9645,-3.9082,0.0,0.0,0.0,0.0,0.0,0.0,0.0,-4.8521,-4.8097,-4.764,-4.7181,-4.6567,-4.5701,-4.5586,-4.5586,0.0,0.0,0.0,0.0,0.0,0.0,0.0,0.0,0.0,0.0,-4.4388,0.0,0.0,0.0,0.0,0.0,0.0,0.0,0.0,-3.8615,-3.8364,-3.7964,-3.7685,-3.7394,-3.7073,-3.6638,-3.6284,0.0,0.0,0.0,0.0,0.0,-3.4069,-3.3858,-3.4187,-3.4204,-3.3991,-3.3002,-3.317,-3.3815,-3.3682,-3.4278,-3.4925,-3.4802,-3.5165,-3.5634,-3.5932,-3.6553,-3.6947,-3.6509,0.0,0.0,0.0,-3.6276,-3.6595,-3.6829,-3.7904,0.0,-4.0123,-4.1967,-4.353,-4.4178,-4.5141,0.0,-4.5988,-4.6118,-4.624,0.0,0.0,0.0,0.0,0.0,0.0,-4.5708,-4.54,-4.5007,-4.4629,-4.4477,-4.4354,-4.4314,-4.4244,-4.4184,-4.4085,-4.4036,-4.3777,-4.3406,-4.2978,-4.258,-4.2157,0.0,0.0,-4.1318,-4.1198,-4.1076,-4.1,-4.0935,-4.0888,-4.0871,-4.0566,-3.9919,-3.9135,0.0,0.0,0.0,0.0,0.0,0.0,0.0,-4.9264,-4.8767,-4.8521,-4.843,-4.7776,-4.6046,-4.5892,-4.5797,0.0,0.0,0.0,0.0,0.0,0.0,0.0,0.0,0.0,0.0,0.0,0.0,0.0,0.0,0.0,0.0,0.0,0.0,0.0,0.0,0.0,0.0,-3.7913,-3.7721,0.0,0.0,0.0,0.0,0.0,0.0,0.0,0.0,-3.5445,-3.5268,-3.5515,-3.5997,-3.631,-3.5014,-3.5078,-3.5689,-3.5719,-3.6306,-3.6987,-3.6948,-3.7219,-3.7557,-3.76,-3.7889,-3.7984,-3.7233,-3.7136,0.0,-3.6302,-3.6409,-3.6696,-3.7017,-3.806,-3.901,0.0,-4.133,-4.2869,-4.3498,-4.4691,-4.5653,0.0,-4.6201,0.0,0.0,0.0,0.0,0.0,0.0,0.0,0.0,-4.5418,-4.5074,-4.48,-4.4568,-4.4411,-4.4383,-4.4285,-4.4214,-4.4184,-4.4055,-4.3841,-4.3508,-4.3105,-4.2696,-4.232,0.0,0.0,0.0,-4.1169,-4.1093,-4.1047,-4.0935,-4.0888,-4.0888,-4.0888,-4.0237,-3.9348,0.0,0.0,0.0,0.0,0.0,0.0,0.0,-5.0703,-5.0361,-4.9481,-4.9384,-4.8711,-4.6964,-4.6795,-4.6471,0.0,0.0,0.0,0.0,0.0,0.0,0.0,0.0,0.0,0.0,0.0,0.0,0.0,0.0,0.0,0.0,0.0,0.0,0.0,0.0,0.0,0.0,0.0,0.0,0.0,0.0,0.0,0.0,0.0,0.0,0.0,0.0,-3.6037,-3.5751,-3.6287,0.0,-3.6026,-3.6189,-3.682,-3.7302,-3.6388,0.0,0.0,-3.7762,-3.8349,-3.8966,-3.9215,-3.9716,-3.9876,-3.8953,0.0,-3.8636,-3.7506,-3.7431,-3.7577,-3.7613,-3.8021,-3.8696,-3.9706,-4.0248,-4.1346,-4.3554,-4.4107,-4.4692,-4.5861,0.0,0.0,0.0,0.0,0.0,0.0,0.0,0.0,0.0,-4.5323,-4.5074,-4.48,-4.4595,-4.4458,-4.4383,-4.4344,-4.4274,-4.4184,-4.4055,-4.3974,-4.3923,-4.3508,-4.3141,-4.2734,0.0,0.0,0.0,-4.1209,-4.1088,-4.0935,-4.0871,-4.0888,-4.0888,-4.0888,-4.05,-3.9851,0.0,0.0,0.0,0.0,0.0,0.0,-5.0913,-5.0897,-5.0784,-5.04,-5.0308,-4.9635,-4.7921,-4.775,-4.7176,-4.5772,0.0,0.0,0.0,0.0,0.0,0.0,0.0,0.0,0.0,0.0,0.0,-4.4825,0.0,0.0,0.0,0.0,0.0,0.0,0.0,0.0,0.0,0.0,0.0,0.0,0.0,0.0,0.0,0.0,0.0,0.0,0.0,0.0,-3.6638,-3.6835,0.0,0.0,-3.6973,-3.7499,-3.8066,0.0,-3.7752,-3.8384,-3.8801,-3.9262,-3.961,-3.9714,-3.9781,-3.9603,-3.8963,0.0,-3.8257,-3.7569,-3.745,-3.7613,-3.7897,-3.8086,-3.8441,-3.9232,-3.9993,-4.0898,-4.21,-4.2905,-4.381,-4.5026,0.0,0.0,0.0,0.0,0.0,0.0,0.0,0.0,0.0,-4.5526,-4.5284,-4.5052,-4.4814,-4.4621,-4.444,-4.4383,-4.4344,-4.4274,-4.4165,-4.4085,-4.4005,-4.3575,-4.3177,-4.2772,0.0,0.0,0.0,-4.1255,-4.1134,-4.0982,-4.0935,-4.0888,-4.0888,-4.0888,-4.05,-3.9885,0.0,0.0,0.0,0.0,0.0,-5.0956,-5.096,-5.0929,-5.0913,-5.0897,-5.0861,-5.0188,-4.8508,-4.8334,-4.7642,-4.5908,-4.5722,0.0,0.0,0.0,0.0,0.0,0.0,0.0,0.0,0.0,-4.5419,-4.5099,-4.4508,-4.365,0.0,0.0,0.0,0.0,0.0,0.0,0.0,0.0,0.0,0.0,0.0,0.0,0.0,0.0,0.0,0.0,0.0,0.0,0.0,0.0,0.0,-3.7774,-3.7461,-3.7749,-3.8192,-3.8174,-3.8441,-3.8928,-3.961,-4.005,-4.032,-4.037,-4.0126,-3.97,0.0,0.0,-3.8182,-3.7738,-3.765,-3.7792,-3.8168,-3.83,-3.8491,-3.897,-3.9712,-4.044,-4.1104,-4.1932,-4.2888,0.0,0.0,0.0,0.0,0.0,0.0,0.0,0.0,0.0,0.0,-4.5723,-4.5491,-4.5222,-4.4868,-4.4629,-4.4515,-4.444,-4.4383,-4.4344,-4.4244,-4.4135,-4.4055,-4.3744,-4.3371,0.0,0.0,0.0,0.0,-4.1283,-4.1152,-4.1111,-4.0935,-4.0888,-4.0888,-4.0888,-4.0614,-4.017,0.0,0.0,0.0,0.0,0.0,0.0,-5.1095,-5.1029,-5.0971,-5.0906,-5.0906,-5.0268,-4.8585,-4.8392,-4.771,-4.6048,-4.5776,0.0,0.0,0.0,0.0,0.0,0.0,0.0,0.0,0.0,-4.5715,-4.58,-4.5696,-4.5105,-4.3978,-4.3899,0.0,0.0,0.0,0.0,0.0,0.0,0.0,0.0,0.0,0.0,0.0,0.0,0.0,0.0,0.0,0.0,0.0,0.0,0.0,0.0,0.0,-3.7613,-3.7666,-3.8358,-3.8982,-3.9529,-4.0122,-4.0734,-4.1255,-4.1515,-4.1198,-4.0694,-4.0285,-3.9606,-3.8906,-3.8321,-3.8241,-3.8354,-3.8572,-3.8755,-3.895,-3.9156,-3.9264,-3.9746,-4.1009,-4.1323,0.0,0.0,0.0,0.0,0.0,0.0,0.0,0.0,0.0,0.0,0.0,0.0,-4.5677,-4.5222,-4.4751,-4.4515,-4.4515,-4.444,-4.4383,-4.4383,-4.4255,-4.4184,-4.4184,-4.4055,0.0,0.0,0.0,0.0,0.0,-4.1401,-4.1152,-4.1111,-4.0935,-4.0888,-4.0888,-4.0888,-4.0888,-4.0823,0.0,0.0,0.0,0.0,0.0,0.0,0.0,-5.1075,-5.1056,-5.1042,-5.0513,-4.9731,-4.8657,-4.8017,-4.719,-4.6065,-4.5893,0.0,0.0,0.0,0.0,0.0,0.0,0.0,0.0,0.0,-4.5805,-4.5723,-4.5712,-4.5156,-4.4134,-4.398,-4.3262,-4.2085,0.0,0.0,0.0,0.0,0.0,0.0,0.0,0.0,0.0,0.0,0.0,0.0,0.0,0.0,0.0,0.0,0.0,0.0,0.0,0.0,0.0,-3.8624,-3.8851,-3.9266,-4.057,-4.0673,-4.0544,-4.1176,-4.0592,-3.9806,-3.9694,-3.9312,-3.8902,-3.8726,-3.8701,-3.8743,-3.8855,-3.8931,-3.9073,-3.935,-3.9427,-3.9679,0.0,0.0,0.0,0.0,0.0,0.0,0.0,0.0,0.0,0.0,0.0,0.0,0.0,0.0,-4.5541,-4.5222,-4.5049,-4.4833,-4.4515,-4.4487,-4.4458,-4.4383,-4.4314,-4.4244,-4.4184,-4.4055,0.0,0.0,0.0,0.0,0.0,-4.1507,-4.1244,-4.1111,-4.1047,-4.0982,-4.0888,-4.0888,-4.0888,-4.0823,0.0,0.0,0.0,0.0,0.0,0.0,0.0,-5.1132,-5.1008,-5.0685,-5.0142,-4.9376,-4.8222,-4.765,-4.6999,-4.6114,-4.6016,0.0,0.0,0.0,0.0,0.0,0.0,0.0,-4.5899,-4.5899,-4.5854,-4.5766,-4.5791,-4.541,-4.472,-4.4557,-4.3977,-4.3113,-4.3045,0.0,0.0,0.0,0.0,0.0,0.0,0.0,-3.9327,0.0,0.0,0.0,0.0,0.0,0.0,0.0,0.0,0.0,0.0,0.0,0.0,0.0,-3.911,-3.9382,-4.0637,-4.0798,-4.0815,-4.1589,-4.1089,0.0,-4.0437,-3.9845,-3.9245,-3.9335,-3.9113,-3.8921,-3.9045,-3.9101,-3.9245,-3.9623,-3.9698,-3.993,0.0,0.0,0.0,0.0,0.0,0.0,0.0,0.0,0.0,0.0,0.0,0.0,0.0,0.0,-4.5555,-4.5204,-4.5118,-4.4862,-4.4496,-4.4515,-4.4487,-4.4458,-4.4373,-4.4314,-4.4244,0.0,0.0,0.0,0.0,0.0,0.0,-4.1839,-4.1498,-4.138,-4.1123,-4.0982,-4.0888,-4.0888,-4.0888,-4.0823,0.0,0.0,0.0,0.0,0.0,0.0,0.0,-5.122,-5.088,-5.0024,-4.9809,-4.9118,-4.7495,-4.7319,-4.6986,-4.6174,0.0,0.0,0.0,0.0,0.0,0.0,0.0,0.0,-4.5917,-4.5917,-4.5905,-4.5919,-4.5906,-4.58,-4.5629,-4.5475,-4.4959,-4.4114,-4.3964,-4.3526,0.0,0.0,0.0,0.0,0.0,0.0,0.0,0.0,0.0,0.0,0.0,0.0,0.0,0.0,0.0,0.0,0.0,0.0,0.0,0.0,0.0,0.0,0.0,-4.1174,-4.176,-4.2613,-4.2412,-4.2054,-4.2136,-4.1043,0.0,-4.0237,-3.9637,-3.9138,-3.9312,-3.9362,-3.9483,-3.9954,-4.0001,-4.0406,0.0,0.0,0.0,0.0,0.0,0.0,0.0,0.0,0.0,0.0,0.0,0.0,0.0,0.0,0.0,-4.5227,-4.4912,-4.4657,-4.4515,-4.4515,-4.4477,-4.4421,-4.4336,-4.4242,-4.4146,0.0,0.0,0.0,0.0,0.0,0.0,-4.2181,-4.1764,-4.1679,-4.1052,-4.0763,-4.0716,-4.0716,-4.0716,-4.0716,0.0,0.0,0.0,0.0,0.0,0.0,0.0,0.0,0.0,0.0,-4.9435,-4.8621,-4.7572,-4.6874,-4.6396,0.0,0.0,0.0,0.0,0.0,0.0,0.0,0.0,0.0,-4.5986,-4.5972,-4.6003,-4.6046,-4.6005,-4.5983,-4.5972,-4.5692,-4.5447,-4.5216,-4.5034,-4.4367,0.0,0.0,0.0,0.0,0.0,0.0,0.0,0.0,0.0,0.0,-4.1463,-4.1565,0.0,0.0,0.0,0.0,0.0,0.0,0.0,0.0,-3.9599,-3.9932,-4.1518,0.0,-4.1443,-4.2712,-4.267,-4.2232,0.0,-4.189,-4.1844,-4.1789,-4.1227,-4.0757,-4.0802,-4.0252,-3.9899,-4.0041,-4.012,-4.0538,0.0,0.0,0.0,0.0,0.0,0.0,0.0,0.0,0.0,0.0,0.0,0.0,0.0,0.0,0.0,-4.5285,-4.4534,-4.4227,-4.4496,-4.4515,-4.4195,-4.3576,-4.3493,-4.3128,-4.2464,0.0,0.0,0.0,0.0,0.0,-4.1522,-4.0908,-4.0414,-4.0053,-3.9838,-3.9512,-3.9129,-3.9129,-3.9129,-3.9129,0.0,0.0,0.0,0.0,0.0,0.0,0.0,0.0,0.0,0.0,0.0,0.0,0.0,0.0,0.0,0.0,0.0,0.0,0.0,0.0,0.0,0.0,0.0,-4.6122,-4.6093,-4.6095,-4.6095,-4.6093,-4.6065,-4.6056,-4.6055,-4.578,-4.5642,-4.5642,-4.553,-4.5093,0.0,0.0,0.0,0.0,-4.336,0.0,0.0,0.0,0.0,0.0,-4.2404,-4.2581,0.0,-4.2687,-4.2233,-4.1562,0.0,0.0,0.0,0.0,-3.9935,-4.0298,-4.2034,-4.206,-4.1978,-4.3516,-4.3693,-4.345,-4.3271,-4.3118,-4.3035,-4.3012,-4.2414,-4.1907,-4.1907,-4.1223,-4.0673,-4.0768,-4.0871,0.0,0.0,0.0,0.0,0.0,0.0,0.0,0.0,0.0,0.0,0.0,0.0,0.0,0.0,0.0,0.0,0.0,-4.3905,-4.3583,-4.3951,-4.3557,-4.3144,-4.2712,-4.2658,-4.236,-4.1856,0.0,0.0,0.0,0.0,0.0,-4.1248,-4.0735,-4.0239,-3.9747,-3.9464,-3.9041,-3.8594,-3.8594,-3.8594,-3.8594,0.0,0.0,0.0,0.0,0.0,0.0,0.0,0.0,0.0,0.0,0.0,0.0,0.0,0.0,0.0,0.0,0.0,0.0,0.0,0.0,0.0,0.0,-4.6203,-4.6196,-4.619,-4.6203,-4.6176,-4.6123,-4.6123,-4.6083,-4.6035,-4.5815,-4.5723,-4.57,-4.5715,-4.5613,0.0,0.0,-4.5222,0.0,-4.49,0.0,0.0,0.0,0.0,0.0,0.0,0.0,0.0,-4.4386,-4.3682,-4.2506,-4.2436,0.0,0.0,0.0,0.0,0.0,-4.2564,-4.2808,-4.297,-4.4488,-4.4891,-4.4915,-4.4896,-4.441,-4.3983,-4.4026,-4.3418,-4.2829,-4.2717,-4.2125,0.0,0.0,0.0,0.0,0.0,0.0,0.0,0.0,0.0,0.0,0.0,0.0,0.0,0.0,0.0,0.0,0.0,0.0,0.0,0.0,-4.3152,-4.2772,-4.2961,-4.2326,-4.1961,-4.183,-4.183,-4.1694,-4.1446,-4.1446,0.0,0.0,0.0,0.0,-4.1171,-4.0717,-4.0213,-3.9696,-3.9217,-3.8741,-3.8294,-3.8249,-3.8249,-3.8188,0.0,0.0,0.0,0.0,0.0,0.0,0.0,0.0,0.0,0.0,0.0,0.0,0.0,0.0,0.0,0.0,0.0,0.0,0.0,0.0,0.0,-4.6191,-4.6198,-4.621,-4.6197,-4.6195,-4.6189,-4.6176,-4.6183,-4.6177,-4.6164,-4.5959,-4.5815,-4.57,-4.5765,-4.5677,-4.5483,-4.5398,-4.5304,-4.518,-4.5151,0.0,0.0,0.0,0.0,0.0,0.0,0.0,0.0,-4.3958,-4.3251,-4.2455,-4.1732,0.0,0.0,0.0,0.0,0.0,-4.3609,-4.4034,-4.4154,-4.4889,-4.5222,-4.5302,-4.4985,-4.5084,-4.5189,-4.5091,-4.4518,-4.3838,-4.3216,-4.2945,-4.2393,0.0,0.0,0.0,0.0,0.0,0.0,0.0,0.0,0.0,0.0,0.0,0.0,0.0,0.0,0.0,0.0,0.0,0.0,0.0,0.0,-4.1626,-4.1434,-4.192,-4.1763,-4.0985,-4.0985,-4.0577,-3.9844,-3.9791,-3.9693,0.0,0.0,0.0,-3.9472,-3.933,-3.887,-3.822,-3.7972,-3.7447,-3.6807,-3.6688,-3.6646,-3.6603,0.0,0.0,0.0,0.0,0.0,0.0,0.0,0.0,0.0,0.0,0.0,0.0,0.0,0.0,0.0,0.0,0.0,0.0,0.0,0.0,-4.6162,-4.6191,-4.62,-4.6211,-4.6241,-4.6254,-4.6248,-4.6245,-4.6261,-4.6245,-4.6195,-4.6036,-4.591,-4.586,-4.5944,-4.588,-4.5708,-4.5638,-4.5524,-4.5419,0.0,0.0,0.0,0.0,0.0,0.0,0.0,0.0,0.0,0.0,-4.4002,-4.3345,-4.2945,0.0,0.0,0.0,0.0,0.0,-4.397,-4.435,-4.4575,-4.5293,-4.5558,-4.5613,-4.5435,-4.5552,-4.5679,-4.5594,-4.5321,-4.4862,0.0,0.0,-4.3686,-4.3061,0.0,0.0,0.0,0.0,0.0,0.0,0.0,0.0,0.0,0.0,0.0,0.0,0.0,0.0,0.0,0.0,0.0,0.0,0.0,0.0,-4.0566,-4.0814,-4.0698,-4.0201,-4.0171,-3.9927,-3.9495,-3.9444,-3.9346,0.0,0.0,-3.9101,-3.9101,-3.9073,-3.87,-3.8129,-3.7807,-3.7268,-3.6719,-3.6409,-3.6276,-3.6233,0.0,0.0,0.0,0.0,0.0,0.0,0.0,0.0,0.0,0.0,0.0,0.0,0.0,0.0,0.0,0.0,0.0,0.0,0.0,-4.6052,-4.6088,-4.615,-4.6151,-4.6197,-4.6267,-4.6287,-4.6289,-4.6288,-4.6285,-4.6267,-4.6177,-4.6074,-4.6007,-4.6033,-4.6085,-4.6037,-4.5944,-4.5861,-4.5766,-4.5661,0.0,0.0,0.0,0.0,0.0,0.0,0.0,0.0,0.0,0.0,0.0,0.0,0.0,0.0,0.0,-4.2867,-4.2879,-4.3038,-4.4061,-4.4434,-4.4723,-4.5568,-4.578,-4.5766,-4.5822,-4.5859,-4.5875,-4.5829,-4.5815,0.0,0.0,-4.4415,0.0,0.0,0.0,0.0,0.0,0.0,0.0,0.0,0.0,0.0,0.0,0.0,0.0,0.0,0.0,0.0,0.0,0.0,0.0,0.0,0.0,0.0,-4.0157,-4.0015,-3.9848,-3.9693,-3.9631,-3.9552,-3.9495,-3.9444,-3.9328,-3.9183,-3.9156,-3.9129,-3.9101,-3.9101,-3.8836,-3.8373,-3.7891,-3.7361,-3.6803,-3.6451,-3.6233,-3.6122,0.0,0.0,0.0,0.0,0.0,0.0,0.0,0.0,0.0,0.0,0.0,0.0,0.0,0.0,0.0,0.0,0.0,0.0,0.0,-4.5944,-4.5933,-4.6017,-4.6017,-4.608,-4.6191,-4.6202,-4.6212,-4.6219,-4.6269,-4.6228,-4.6098,-4.6096,-4.6102,-4.6095,-4.6104,-4.6083,-4.6072,-4.5958,-4.5891,-4.5861,-4.581,0.0,0.0,0.0,0.0,0.0,0.0,0.0,0.0,0.0,0.0,0.0,0.0,0.0,-4.1959,-4.2835,-4.2553,-4.2343,-4.4041,-4.4495,-4.4684,-4.5519,-4.5715,-4.5737,-4.5856,-4.5852,-4.5815,-4.5878,-4.5889,0.0,0.0,-4.3996,0.0,0.0,0.0,0.0,0.0,0.0,0.0,0.0,0.0,0.0,0.0,0.0,0.0,0.0,0.0,0.0,0.0,0.0,0.0,0.0,0.0,0.0,-4.0291,-4.0157,-3.9954,-3.9693,-3.9631,-3.9552,-3.9495,-3.9495,-3.9399,-3.921,-3.9183,-3.9156,-3.9101,-3.9101,-3.8855,-3.846,-3.791,-3.7137,-3.6343,-3.6301,-3.6191,-3.6019,0.0,0.0,0.0,0.0,0.0,0.0,0.0,0.0,0.0,0.0,0.0,0.0,0.0,0.0,0.0,0.0,0.0,0.0,0.0,-4.58,-4.5786,-4.5814,-4.5794,-4.5841,-4.5878,-4.6049,-4.6162,-4.621,-4.6225,-4.6205,-4.6158,-4.6162,-4.6164,-4.6164,-4.6157,-4.6138,-4.6105,-4.6091,-4.6007,-4.5906,-4.5914,-4.5917,0.0,0.0,0.0,0.0,0.0,0.0,0.0,0.0,-4.541,-4.5032,-4.4514,-4.3904,-4.3352,-4.3188,-4.296,-4.285,-4.3556,-4.4189,-4.4587,-4.4433,-4.517,-4.5944,-4.5959,-4.6017,-4.6044,-4.6033,-4.6013,0.0,0.0,0.0,0.0,0.0,0.0,0.0,0.0,0.0,0.0,0.0,0.0,0.0,0.0,0.0,0.0,0.0,0.0,0.0,0.0,0.0,0.0,0.0,0.0,0.0,0.0,-4.0157,-4.0057,-3.9954,-3.9735,-3.9631,-3.9571,-3.952,-3.9469,-3.938,-3.9256,-3.9183,-3.9156,-3.9129,-3.8998,-3.8778,-3.8026,-3.7137,-3.6301,-3.6301,-3.6259,-3.6174,0.0,0.0,0.0,0.0,0.0,0.0,0.0,0.0,0.0,0.0,0.0,0.0,0.0,0.0,0.0,0.0,0.0,0.0,-4.6095,-4.6056,-4.594,-4.5687,-4.5651,-4.5648,-4.5673,-4.5835,-4.5979,-4.6103,-4.616,-4.6171,-4.6165,-4.6189,-4.6199,-4.6191,-4.6222,-4.6218,-4.6167,-4.6186,-4.6117,-4.5979,-4.6013,-4.6035,0.0,0.0,0.0,0.0,0.0,0.0,0.0,0.0,-4.5828,-4.5654,-4.4802,-4.4316,-4.3897,-4.3104,-4.2653,-4.2525,-4.2854,-4.3421,-4.3918,-4.3973,-4.4842,-4.5763,-4.6005,-4.613,-4.6183,-4.617,-4.6138,-4.6098,-4.6103,0.0,0.0,0.0,0.0,0.0,0.0,0.0,0.0,0.0,0.0,0.0,0.0,0.0,0.0,0.0,0.0,0.0,0.0,0.0,0.0,0.0,0.0,0.0,0.0,-4.0196,-4.0137,-4.0096,-3.987,-3.9712,-3.9631,-3.9552,-3.952,-3.9495,-3.9328,-3.9256,-3.9183,-3.9129,-3.9027,-3.8789,-3.7993,-3.7193,-3.6516,-3.6326,-3.6259,-3.6191,0.0,0.0,0.0,0.0,0.0,0.0,0.0,0.0,0.0,0.0,0.0,0.0,0.0,0.0,0.0,0.0,0.0,0.0,-4.6856,-4.68,-4.6435,-4.5643,-4.555,-4.553,-4.5596,-4.5526,-4.5623,-4.5886,-4.602,-4.6105,-4.6106,-4.6171,-4.6204,-4.6204,-4.6267,-4.6307,-4.6287,-4.6221,-4.6161,-4.6104,-4.6099,-4.6098,-4.6108,0.0,0.0,0.0,0.0,0.0,0.0,0.0,-4.5996,-4.5812,-4.488,-4.4001,-4.3129,-4.2334,-4.1489,-4.1022,-4.1956,-4.2216,-4.2622,-4.4353,-4.4801,-4.5059,-4.5975,-4.6183,-4.622,-4.6296,-4.6187,-4.6105,-4.6105,0.0,0.0,0.0,0.0,0.0,0.0,0.0,0.0,0.0,0.0,0.0,0.0,0.0,0.0,0.0,0.0,0.0,0.0,0.0,0.0,0.0,0.0,0.0,0.0,-4.0291,-4.0234,-4.0117,-3.9973,-3.9826,-3.9693,-3.9631,-3.9552,-3.9495,-3.9444,-3.9346,-3.9183,-3.9129,-3.8818,-3.8355,-3.7807,-3.736,-3.6943,-3.6474,-3.6174,-3.6019,0.0,0.0,0.0,0.0,0.0,0.0,0.0,0.0,0.0,0.0,0.0,0.0,0.0,0.0,0.0,0.0,0.0,0.0,-4.7433,-4.6819,-4.6399,-4.6173,-4.5562,-4.5237,-4.5239,-4.5282,-4.5486,-4.5897,-4.6037,-4.6119,-4.6178,-4.6246,-4.6268,-4.6268,-4.6287,-4.6265,-4.6239,-4.6204,-4.6189,-4.6172,-4.6161,-4.6163,-4.6171,0.0,0.0,0.0,0.0,0.0,0.0,0.0,0.0,0.0,-4.4153,-4.3644,-4.3199,-4.241,-4.1982,-4.1855,-4.2181,-4.2728,-4.3169,-4.3119,-4.4495,-4.5763,-4.5425,-4.5796,-4.6211,0.0,-4.6205,-4.6165,-4.6113,0.0,0.0,0.0,0.0,0.0,0.0,0.0,0.0,0.0,0.0,0.0,0.0,0.0,0.0,0.0,0.0,0.0,0.0,0.0,0.0,0.0,0.0,0.0,0.0,0.0,-4.0291,-4.0234,-4.0098,-3.9933,-3.9693,-3.9631,-3.9596,-3.9571,-3.9495,-3.9425,-3.9346,-3.9175,-3.8818,-3.8337,-3.7857,-3.7415,-3.6943,-3.6474,-3.6259,-3.6174,0.0,0.0,0.0,0.0,0.0,0.0,0.0,0.0,0.0,0.0,-4.8694,-4.8471,0.0,0.0,0.0,0.0,0.0,0.0,0.0,-4.7653,-4.721,-4.6844,-4.633,-4.6045,-4.6045,-4.591,-4.5935,-4.6139,-4.6033,-4.6013,-4.6079,-4.6206,-4.6261,-4.6261,-4.6264,-4.6241,-4.6191,-4.6191,-4.6199,-4.6209,-4.6207,-4.6191,-4.6209,0.0,0.0,0.0,0.0,0.0,0.0,0.0,0.0,0.0,-4.35,-4.3044,-4.287,-4.2401,-4.2259,-4.2331,-4.2744,-4.324,-4.3611,-4.3469,-4.4594,-4.5694,-4.5526,0.0,0.0,0.0,-4.621,-4.6184,-4.6153,0.0,0.0,0.0,0.0,0.0,0.0,0.0,0.0,0.0,0.0,0.0,0.0,0.0,0.0,0.0,0.0,0.0,0.0,0.0,0.0,0.0,0.0,0.0,0.0,0.0,0.0,-4.0291,-4.0157,-4.0015,-3.9848,-3.9708,-3.9631,-3.9577,-3.9495,-3.9418,-3.9301,-3.9156,-3.8923,-3.8621,-3.7993,-3.7578,-3.723,-3.6597,-3.6318,-3.6233,0.0,0.0,0.0,0.0,0.0,0.0,0.0,0.0,0.0,0.0,-4.9048,-4.8996,0.0,0.0,0.0,0.0,0.0,0.0,0.0,-4.8897,-4.8473,-4.7618,-4.7511,-4.7473,-4.7473,-4.7063,-4.6781,-4.6602,-4.6063,-4.5829,-4.5886,-4.6099,-4.6196,-4.6196,-4.6195,-4.6181,-4.6201,-4.6201,-4.6183,-4.6196,-4.6187,-4.6191,-4.6183,-4.6204,0.0,0.0,0.0,0.0,0.0,0.0,0.0,0.0,-4.298,-4.2424,-4.2334,-4.247,-4.2483,-4.2607,-4.3468,-4.3761,-4.4011,-4.4809,-4.5016,-4.5233,-4.6019,-4.6204,-4.619,-4.619,0.0,-4.6195,0.0,0.0,0.0,0.0,0.0,0.0,0.0,0.0,0.0,0.0,0.0,0.0,0.0,0.0,0.0,0.0,0.0,0.0,0.0,0.0,0.0,0.0,0.0,0.0,0.0,0.0,0.0,0.0,-4.0177,-4.0117,-4.0077,-3.9826,-3.9642,-3.9577,-3.9451,-3.9346,-3.921,-3.9129,-3.9101,-3.9027,-3.8227,-3.7841,-3.7596,-3.6838,-3.6419,-3.6225,0.0,0.0,0.0,0.0,0.0,0.0,0.0,0.0,0.0,0.0,0.0,0.0,0.0,0.0,0.0,0.0,0.0,0.0,0.0,-4.889,-4.8418,-4.822,-4.7597,-4.7257,-4.7257,-4.7226,-4.7267,-4.743,-4.6326,-4.5822,-4.5829,-4.6037,-4.6119,-4.6119,-4.6123,-4.6123,-4.6127,-4.6127,-4.6119,-4.6119,-4.6118,-4.6117,-4.6128,-4.6183,-4.6204,0.0,0.0,0.0,0.0,0.0,0.0,0.0,-4.3314,-4.2939,-4.2527,-4.3214,-4.3409,-4.3447,-4.3644,-4.4191,-4.4776,-4.4945,-4.5465,-4.5976,-4.6151,-4.6167,-4.6123,-4.6123,-4.6111,0.0,0.0,0.0,0.0,0.0,0.0,0.0,0.0,0.0,0.0,0.0,0.0,0.0,0.0,0.0,0.0,0.0,0.0,0.0,0.0,0.0,0.0,0.0,0.0,0.0,-4.0502,-4.0432,-4.0362,0.0,-4.0272,-4.0215,-4.0077,-3.9826,-3.9642,-3.9596,-3.952,-3.9444,-3.9346,-3.9229,-3.9156,-3.9027,-3.8436,-3.8011,-3.7631,-3.7038,-3.6574,-3.6276,0.0,0.0,0.0,0.0,0.0,0.0,0.0,0.0,0.0,0.0,0.0,0.0,0.0,0.0,0.0,0.0,0.0,0.0,0.0,0.0,-4.9013,-4.9013,-4.8636,-4.8437,-4.8409,-4.8132,-4.7984,-4.8036,-4.704,-4.6506,-4.6375,-4.6158,-4.6047,-4.6047,-4.6047,-4.6056,-4.6047,-4.6095,-4.6075,-4.6047,-4.6091,-4.6103,-4.6105,-4.6131,-4.6167,-4.615,-4.574,0.0,0.0,0.0,0.0,0.0,0.0,0.0,-4.199,-4.283,-4.3084,-4.326,-4.41,-4.4646,-4.5094,-4.5485,0.0,-4.619,-4.6153,-4.6128,-4.6091,-4.6072,0.0,0.0,0.0,0.0,0.0,0.0,0.0,0.0,0.0,0.0,0.0,0.0,0.0,0.0,0.0,0.0,0.0,0.0,0.0,0.0,0.0,0.0,0.0,0.0,0.0,0.0,-4.0495,-4.0479,-4.0413,-4.0363,-4.031,-4.0234,-4.0077,-3.9826,-3.9642,-3.9596,-3.952,-3.9469,-3.9391,-3.9256,-3.9156,-3.9073,-3.8609,-3.8143,-3.7631,-3.7228,-3.6719,-3.6301,0.0,0.0,0.0,0.0,0.0,0.0,0.0,0.0,0.0,0.0,0.0,0.0,0.0,0.0,0.0,0.0,0.0,0.0,0.0,0.0,0.0,-4.9604,-4.9693,-4.9703,-4.9682,-4.9143,-4.8791,-4.8626,-4.7965,-4.7551,-4.7356,-4.6538,-4.6169,-4.6193,-4.6053,-4.5986,-4.5986,-4.6046,-4.6026,-4.5986,-4.6026,-4.6066,-4.6074,-4.6063,-4.6006,-4.5852,-4.5124,-4.4679,-4.4216,-4.2767,0.0,0.0,0.0,0.0,-4.1326,-4.2168,-4.2402,-4.2715,-4.416,-4.4765,-4.5176,-4.6015,-4.6207,0.0,-4.6131,-4.6098,-4.606,0.0,0.0,0.0,0.0,0.0,0.0,0.0,0.0,0.0,0.0,0.0,0.0,0.0,0.0,0.0,0.0,0.0,0.0,0.0,0.0,0.0,0.0,0.0,0.0,0.0,0.0,-4.0569,-4.0489,-4.0489,-4.046,-4.04,-4.0328,-4.0234,-4.0077,-3.9848,-3.9689,-3.9626,-3.9546,-3.9469,-3.9418,-3.9301,-3.9202,-3.9101,-3.8778,-3.8291,-3.7666,-3.7377,-3.6878,-3.6301,0.0,0.0,0.0,0.0,0.0,0.0,0.0,0.0,0.0,0.0,-4.9692,-4.9663,0.0,0.0,0.0,0.0,0.0,0.0,-4.9521,0.0,0.0,-4.9276,-4.9421,-4.9551,-4.9521,-4.951,-4.9514,-4.9606,-4.889,-4.8662,-4.8875,-4.739,-4.6808,-4.701,-4.6254,-4.5898,-4.5898,-4.5929,-4.5929,-4.5898,-4.5929,-4.5937,-4.5925,-4.5929,-4.549,-4.489,-4.4772,-4.3794,-4.2513,-4.2292,-4.1682,0.0,0.0,0.0,-4.1218,-4.2124,-4.2401,-4.244,-4.2676,0.0,-4.513,0.0,-4.6209,-4.6131,0.0,0.0,-4.6017,0.0,0.0,0.0,0.0,0.0,0.0,0.0,0.0,0.0,0.0,0.0,0.0,0.0,0.0,0.0,0.0,0.0,0.0,0.0,0.0,0.0,0.0,0.0,-4.0668,-4.0607,-4.0607,0.0,-4.0489,-4.0489,-4.0457,-4.0392,-4.0327,-4.0234,-4.0077,-3.9933,-3.9804,-3.967,-3.9607,-3.9546,-3.9469,-3.9399,-3.9301,-3.9183,-3.9007,-3.8436,-3.7701,-3.756,-3.6999,-3.6301,0.0,0.0,0.0,0.0,0.0,0.0,0.0,0.0,0.0,0.0,0.0,-4.9582,0.0,0.0,0.0,-4.9345,-4.9345,-4.9262,-4.9164,-4.9164,-4.9131,-4.9046,-4.9131,-4.9164,-4.9164,-4.9295,-4.9384,-4.9469,-4.9363,-4.9467,-4.9682,-4.8518,-4.7664,-4.7071,-4.6728,-4.6311,-4.5847,-4.5841,-4.5867,-4.5899,-4.5905,-4.6093,-4.6325,-4.6015,-4.5557,-4.4979,-4.4163,-4.3119,-4.2063,-4.1548,-4.1101,-4.089,-4.1317,0.0,0.0,0.0,-4.1581,-4.1827,-4.2806,-4.395,-4.5055,0.0,-4.6138,-4.6118,-4.6138,0.0,0.0,0.0,0.0,0.0,0.0,0.0,0.0,0.0,0.0,0.0,0.0,0.0,0.0,0.0,0.0,0.0,0.0,0.0,0.0,0.0,0.0,0.0,0.0,-4.066,-4.0612,-4.0654,-4.0654,0.0,-4.0559,-4.0558,-4.0531,-4.0447,-4.0344,-4.0272,-4.0196,-4.0058,-3.9911,-3.9693,-3.9631,-3.9571,-3.9495,-3.9469,-3.9354,-3.9183,-3.9147,-3.8681,-3.8059,-3.7754,-3.7268,-3.6661,0.0,0.0,0.0,0.0,0.0,0.0,0.0,0.0,0.0,0.0,0.0,0.0,0.0,0.0,0.0,0.0,-4.9113,-4.9046,-4.882,-4.8874,-4.8874,-4.882,-4.8855,-4.8909,-4.8909,-4.9046,-4.9113,-4.9146,-4.9495,-4.975,-4.9968,-4.9384,-4.8433,-4.7199,-4.7056,-4.6561,-4.5815,-4.5791,-4.5819,-4.5886,-4.6013,-4.6314,-4.6568,-4.5986,-4.5423,-4.4786,-4.337,-4.235,-4.1538,-4.0887,-4.0696,-4.0732,-4.0752,-4.0809,0.0,0.0,0.0,-4.1329,-4.2869,0.0,-4.4397,-4.5501,-4.5761,-4.5799,0.0,0.0,0.0,0.0,0.0,0.0,0.0,0.0,0.0,0.0,0.0,0.0,0.0,0.0,0.0,0.0,0.0,0.0,0.0,0.0,0.0,0.0,0.0,0.0,-4.0759,-4.0612,-4.0579,-4.0694,-4.072,-4.07,-4.061,-4.0588,-4.055,-4.0504,-4.0379,-4.0325,-4.0307,-4.0177,-3.9975,-3.9758,-3.9661,-3.9602,-3.952,-3.9495,-3.9399,-3.9256,-3.921,-3.8876,-3.8337,-3.7873,-3.7397,-3.6943,0.0,0.0,0.0,0.0,0.0,0.0,0.0,0.0,0.0,0.0,0.0,0.0,-4.8943,-4.8943,-4.8943,-4.8909,-4.8909,-4.882,-4.8623,-4.8785,-4.882,-4.8623,-4.8785,0.0,-4.8909,-4.8909,-4.8925,-4.9008,-4.9179,-4.9384,-4.9627,-4.9711,-4.9036,-4.7735,-4.703,-4.639,-4.58,-4.5731,-4.5731,-4.5858,-4.6357,-4.653,-4.6431,-4.563,-4.4687,-4.3624,-4.2412,-4.1289,-4.0408,-4.0558,-4.0569,-4.053,-4.0668,-4.0706,-4.0754,0.0,0.0,0.0,-4.2114,-4.2344,0.0,-4.4436,-4.482,0.0,0.0,0.0,0.0,0.0,0.0,0.0,0.0,0.0,0.0,0.0,0.0,0.0,0.0,0.0,0.0,0.0,0.0,0.0,0.0,0.0,0.0,0.0,0.0,0.0,-4.07,-4.064,-4.0615,-4.0694,-4.0752,-4.0726,-4.061,-4.0549,-4.0511,-4.0504,-4.0415,-4.0362,-4.0307,-4.0215,-4.0077,-3.9889,-3.9739,-3.9661,-3.9596,-3.952,-3.9444,-3.9391,-3.9256,-3.8876,-3.8337,-3.7873,-3.7397,-3.6943,0.0,0.0,0.0,0.0,0.0,0.0,0.0,0.0,0.0,0.0,0.0,0.0,0.0,-4.8909,-4.8855,-4.8714,-4.8605,-4.8495,-4.842,-4.8495,-4.8495,-4.842,-4.8495,-4.8532,-4.8532,-4.8642,-4.8714,-4.8731,-4.9071,-4.9358,-4.9558,-4.9627,-4.8958,-4.7671,-4.7543,-4.6743,-4.553,-4.5512,-4.5475,-4.5477,-4.6141,-4.6249,-4.5987,-4.5357,-4.4664,-4.3868,-4.2607,-4.1628,-4.096,-4.1017,-4.0797,-4.0504,-4.0564,-4.0593,-4.0635,-4.0734,-4.08,-4.1005,-4.1927,0.0,0.0,-4.3617,-4.4295,-4.4793,0.0,0.0,0.0,0.0,0.0,0.0,0.0,0.0,0.0,0.0,0.0,0.0,0.0,0.0,0.0,0.0,0.0,0.0,0.0,0.0,0.0,0.0,0.0,0.0,-4.0569,-4.0469,-4.0481,-4.0629,-4.0739,-4.0759,-4.0668,-4.0593,-4.0569,-4.0562,-4.0502,-4.0432,-4.0362,-4.0289,-4.0196,-4.0015,-3.9889,-3.9731,-3.9596,-3.9552,-3.952,-3.9444,-3.9373,-3.9129,-3.8789,-3.8273,-3.7807,-3.7323,0.0,0.0,0.0,0.0,0.0,0.0,0.0,0.0,-4.866,-4.8678,0.0,0.0,0.0,0.0,-4.8642,-4.8514,-4.8382,-4.8306,-4.8306,-4.8306,-4.8306,-4.8306,-4.8306,-4.8306,-4.8306,-4.8144,-4.8255,-4.8587,-4.8624,-4.8856,-4.9252,-4.9377,-4.8673,-4.7359,-4.7562,-4.6746,-4.5302,-4.5301,-4.5241,-4.5235,-4.6136,-4.6346,-4.6129,-4.5457,-4.4979,-4.4429,0.0,0.0,0.0,0.0,-4.13,-4.0959,-4.0783,-4.0672,-4.0588,-4.0654,-4.0688,-4.0842,-4.149,-4.1679,0.0,0.0,0.0,-4.3582,0.0,0.0,0.0,0.0,0.0,0.0,0.0,0.0,0.0,0.0,0.0,0.0,0.0,0.0,0.0,0.0,0.0,0.0,0.0,0.0,0.0,0.0,0.0,0.0,-4.0519,-4.0434,-4.0466,-4.0662,-4.0759,-4.0778,-4.07,-4.0621,-4.0593,-4.0607,-4.0527,-4.0447,-4.0398,-4.0362,-4.0253,-4.0077,-3.9973,-3.98,-3.9631,-3.9602,-3.9571,-3.9495,-3.9418,-3.9275,-3.9073,-3.8499,-3.8096,-3.7755,0.0,0.0,0.0,0.0,0.0,0.0,0.0,0.0,-4.8306,-4.8306,0.0,0.0,0.0,0.0,0.0,-4.8306,-4.8306,-4.8306,-4.8306,-4.8306,-4.8306,-4.8306,-4.8306,-4.8306,-4.8306,-4.7516,-4.7573,-4.8513,-4.7758,-4.7884,-4.8787,-4.8925,-4.8231,-4.6888,-4.7015,-4.6341,-4.5074,-4.5106,-4.5087,-4.5163,-4.6336,-4.6861,-4.6844,-4.5959,-4.5559,0.0,-4.3083,-4.2184,0.0,-4.2008,0.0,0.0,-4.1342,-4.0864,-4.0504,-4.0573,-4.0654,-4.0713,0.0,0.0,0.0,0.0,0.0,0.0,0.0,0.0,0.0,0.0,0.0,0.0,0.0,0.0,0.0,0.0,0.0,0.0,0.0,0.0,0.0,0.0,0.0,0.0,0.0,0.0,0.0,0.0,0.0,-4.0398,-4.0593,-4.054,-4.0602,-4.0788,-4.0796,-4.0778,-4.07,-4.0654,-4.0593,-4.0607,-4.0539,-4.046,-4.0415,-4.0415,-4.029,-4.0096,-3.9954,-3.9826,-3.9693,-3.9631,-3.9571,-3.9495,-3.9418,-3.9301,-3.9129,-3.853,-3.8291,-3.8162,0.0,0.0,0.0,0.0,0.0,-4.7327,-4.8032,-4.8111,-4.8111,0.0,0.0,0.0,-4.8306,-4.8306,-4.8267,-4.8208,-4.8226,-4.8226,-4.8226,-4.813,-4.8072,-4.8072,-4.8072,-4.8072,-4.8072,-4.7853,-4.7949,-4.8265,-4.8142,-4.8274,-4.8642,-4.8804,-4.807,-4.6682,-4.6725,-4.5959,-4.4621,-4.4796,-4.4796,-4.4799,-4.6154,-4.6352,-4.5786,0.0,0.0,0.0,0.0,-4.2981,-4.2594,0.0,-4.1946,-4.1052,0.0,-4.0442,-4.0515,-4.0592,-4.0617,-4.064,-4.07,0.0,0.0,0.0,0.0,0.0,0.0,0.0,0.0,0.0,0.0,0.0,0.0,0.0,0.0,0.0,0.0,0.0,0.0,0.0,0.0,0.0,0.0,0.0,0.0,0.0,0.0,0.0,0.0,-4.0363,-4.0519,-4.0602,-4.0694,-4.0796,-4.08,-4.0776,-4.0776,-4.0713,-4.0673,-4.0673,-4.0603,-4.0508,-4.0408,-4.0396,-4.0345,-4.0234,-4.0098,-4.0036,-3.9954,-3.9722,-3.9571,-3.9495,-3.9418,-3.9275,-3.9101,-3.8826,-3.8328,-3.7755,0.0,0.0,0.0,0.0,0.0,-4.7475,-4.7951,-4.7992,-4.8032,0.0,0.0,0.0,-4.819,-4.819,-4.8151,-4.813,-4.8148,-4.8148,-4.8148,-4.8032,-4.7992,-4.7992,-4.7992,-4.7992,-4.7992,-4.7664,-4.7703,-4.8148,-4.7821,-4.7899,-4.8364,-4.8182,-4.7459,-4.6289,-4.6085,-4.5339,-4.4248,-4.4477,-4.4551,-4.4618,-4.601,0.0,0.0,-4.6595,-4.6459,0.0,0.0,0.0,-4.4141,-4.3378,-4.2188,0.0,0.0,-4.0613,-4.0288,-4.0463,-4.0527,-4.0539,-4.0621,-4.0675,-4.0636,-4.0389,0.0,0.0,-4.0267,-3.9675,0.0,0.0,0.0,0.0,0.0,0.0,0.0,0.0,0.0,0.0,0.0,0.0,0.0,0.0,0.0,0.0,0.0,0.0,0.0,0.0,-4.053,-4.0511,-4.0623,-4.0738,-4.0804,-4.0837,-4.0815,-4.0804,-4.0804,-4.0732,-4.0707,-4.0707,-4.0631,-4.0539,-4.0438,-4.0447,-4.0381,-4.0291,-4.0196,-4.0137,-4.0096,-3.9773,-3.9607,-3.9533,-3.9425,-3.9301,-3.9129,-3.895,-3.8585,-3.808,0.0,0.0,-4.7062,-4.7615,-4.7717,-4.7801,-4.787,-4.7951,-4.7951,0.0,-4.7992,-4.7992,-4.7992,-4.7992,-4.7992,-4.7992,-4.801,-4.801,-4.801,-4.7951,-4.7951,-4.7951,-4.7951,-4.7951,-4.7951,-4.7277,-4.7259,-4.801,-4.7259,-4.7299,-4.7974,-4.7366,-4.6635,-4.5902,-4.5386,-4.4716,-4.4005,-4.4177,0.0,-4.4692,-4.5922,-4.6457,0.0,0.0,-4.7479,-4.7272,-4.5669,-4.5556,-4.5848,-4.4005,-4.2608,0.0,0.0,0.0,0.0,0.0,-4.0398,-4.0504,-4.0543,-4.0617,-4.0488,-3.9693,0.0,0.0,-3.9189,-3.8724,0.0,0.0,0.0,0.0,0.0,0.0,0.0,0.0,0.0,0.0,0.0,0.0,0.0,0.0,0.0,0.0,0.0,0.0,0.0,-4.0726,-4.0729,-4.0761,-4.0801,-4.0869,-4.0908,-4.0917,-4.0858,-4.0818,-4.0807,-4.0742,-4.0706,-4.0725,-4.064,-4.0573,-4.0523,-4.0515,-4.0432,-4.0307,-4.0234,-4.0176,-4.0098,-3.9848,-3.967,-3.9594,-3.9432,-3.9328,-3.9183,-3.8979,-3.8862,-3.8725,0.0,-4.5802,-4.5665,-4.6266,-4.6619,-4.6944,-4.724,-4.7536,-4.7801,-4.7902,-4.7988,-4.797,-4.7925,-4.797,-4.797,-4.7925,-4.7943,-4.7943,-4.7943,-4.7842,-4.7741,-4.7741,-4.7741,-4.7741,-4.7741,-4.7578,-4.7638,-4.7943,-4.7779,-4.7802,-4.7974,-4.7229,-4.6503,-4.5865,-4.5147,-4.4457,-4.3929,-4.4005,0.0,-4.5158,-4.6118,0.0,-4.6509,-4.7776,-4.7813,-4.7059,-4.6084,-4.5423,-4.4761,-4.3109,-4.2516,-4.2259,0.0,0.0,0.0,-4.0192,0.0,0.0,-4.0421,-4.0422,0.0,0.0,0.0,0.0,-3.7841,-3.7462,-3.7422,0.0,0.0,0.0,0.0,0.0,0.0,0.0,0.0,0.0,0.0,0.0,0.0,0.0,0.0,0.0,0.0,0.0,-4.0859,-4.0791,-4.0829,-4.0866,-4.0876,-4.0937,-4.0972,-4.098,-4.0915,-4.0888,-4.0877,-4.0807,-4.0773,-4.0788,-4.0713,-4.0646,-4.0573,-4.0515,-4.0449,-4.0379,-4.0307,-4.0271,-4.0252,-3.9956,-3.9758,-3.9594,-3.9432,-3.9328,-3.9183,-3.9036,-3.8737,-3.8373,-4.5751,-4.57,-4.5767,-4.6346,-4.6602,-4.6898,-4.732,-4.7345,-4.732,-4.7407,-4.7432,-4.7518,-4.7759,-4.7824,-4.7824,-4.7801,-4.7819,-4.7819,-4.7819,-4.7717,-4.7717,-4.7717,-4.7717,-4.7717,-4.7717,-4.7717,-4.7717,-4.7819,-4.7819,-4.7625,-4.7229,-4.6488,-4.5765,-4.5076,-4.4399,-4.3934,-4.3701,0.0,-4.436,-4.5175,-4.6042,0.0,-4.6979,-4.8016,-4.8105,-4.7553,-4.6324,-4.5095,-4.3996,-4.3697,-4.2805,0.0,0.0,-4.1344,-4.1023,0.0,-4.0608,-4.0874,0.0,0.0,0.0,-3.9017,0.0,0.0,0.0,-3.7006,-3.7133,0.0,0.0,0.0,0.0,0.0,0.0,0.0,0.0,0.0,0.0,0.0,0.0,0.0,0.0,0.0,0.0,0.0,-4.0998,-4.0947,-4.0922,-4.0928,-4.1,-4.0994,-4.0994,-4.1006,-4.0979,-4.0949,-4.0945,-4.0878,-4.0819,-4.0804,-4.0745,-4.0648,-4.0598,-4.0577,-4.0515,-4.0449,-4.0379,-4.0325,-4.027,-4.0078,-3.9911,-3.9712,-3.9483,-3.9328,-3.9183,-3.9036,-3.8844,-3.8511,-4.5529,-4.57,-4.5968,-4.6472,-4.6613,-4.6771,-4.7169,-4.6954,-4.6707,-4.6707,-4.6817,-4.7017,-4.732,-4.7445,-4.7535,-4.7535,-4.7661,-4.7741,-4.7702,-4.7728,-4.7716,-4.7717,-4.7717,-4.7717,-4.7717,-4.7717,-4.7627,-4.7482,-4.7482,-4.7065,-4.625,-4.5551,-4.4903,-4.4287,-4.3852,-4.3574,-4.3463,-4.3818,0.0,-4.5178,0.0,-4.6685,-4.7444,-4.8088,-4.8306,-4.8104,-4.6452,-4.4912,-4.3722,-4.4211,-4.2947,-4.1299,-4.1952,-4.1471,0.0,0.0,0.0,0.0,0.0,0.0,0.0,0.0,0.0,-3.7983,0.0,0.0,0.0,0.0,0.0,0.0,0.0,0.0,0.0,0.0,0.0,0.0,0.0,0.0,0.0,0.0,0.0,0.0,0.0,0.0,-4.0931,-4.1082,-4.0855,-4.0818,-4.1085,-4.1057,-4.1028,-4.1025,-4.1019,-4.1,-4.0996,-4.0941,-4.0897,-4.0818,-4.075,-4.0668,-4.0615,-4.0617,-4.0577,-4.0518,-4.0449,-4.0379,-4.0307,-4.0177,-4.0036,-3.9867,-3.9558,-3.9354,-3.9229,-3.9064,-3.8979,-3.8722,-4.5336,-4.5177,-4.5015,-4.5177,-4.5529,-4.5717,-4.5614,-4.58,-4.6,-4.6,-4.6406,-4.6548,-4.6165,-4.6595,-4.6897,-4.6897,-4.7439,-4.7801,-4.7791,-4.7785,-4.7778,-4.7693,-4.7717,-4.7717,-4.7717,-4.7717,-4.7355,-4.6649,-4.6649,-4.6232,-4.5417,-4.4621,-4.4263,-4.4324,-4.4233,-4.3852,-4.3287,0.0,-4.4967,0.0,-4.5847,-4.6489,0.0,-4.805,-4.8306,-4.8104,-4.6396,-4.5224,-4.4272,0.0,-4.2347,-4.1919,0.0,-4.1066,-4.1654,-3.9637,0.0,0.0,0.0,0.0,0.0,0.0,-3.828,0.0,0.0,0.0,0.0,0.0,0.0,0.0,0.0,0.0,0.0,0.0,0.0,0.0,0.0,0.0,0.0,0.0,0.0,0.0,0.0,0.0,0.0,-4.1048,-4.0423,-4.0326,-4.1064,-4.1099,-4.1088,-4.109,-4.1096,-4.1064,-4.0996,-4.0996,-4.0954,-4.0897,-4.0823,-4.0757,-4.0681,-4.0631,-4.0607,-4.0592,-4.0515,-4.0449,-4.0381,-4.0253,-4.0077,-3.9867,-3.9618,-3.9439,-3.9346,-3.9175,-3.9007,-3.8781,-4.4886,-4.4776,-4.4776,-4.5142,-4.5232,-4.539,-4.5614,-4.5459,-4.5407,-4.5665,-4.5648,-4.5767,-4.6116,-4.623,-4.6394,-4.6778,-4.7108,-4.7334,0.0,-4.7621,-4.7477,-4.6788,-4.7363,-4.7554,-4.7258,-4.7102,-4.6848,-4.6504,-4.6033,-4.5399,-4.4603,-4.4258,-4.388,-4.3502,-4.4068,-4.4123,-4.387,0.0,-4.4948,0.0,0.0,0.0,0.0,-4.7858,-4.7837,-4.727,-4.6099,-4.5148,-4.4272,0.0,-4.2172,0.0,0.0,0.0,0.0,0.0,0.0,0.0,0.0,0.0,0.0,0.0,0.0,0.0,-3.5615,0.0,-3.5641,0.0,0.0,0.0,0.0,0.0,0.0,0.0,0.0,0.0,0.0,0.0,0.0,0.0,0.0,0.0,0.0,0.0,0.0,0.0,0.0,-4.0253,-4.1068,-4.1107,-4.1103,-4.1111,-4.1104,-4.1085,-4.1058,-4.102,-4.0957,-4.0897,-4.0828,-4.0761,-4.0694,-4.0668,-4.0651,-4.0607,-4.0527,-4.0463,-4.0379,-4.0308,-4.0118,-3.9889,-3.9717,-3.9564,-3.9373,-3.912,-3.8682,-3.8069,-4.4626,-4.4587,-4.472,-4.5035,-4.4964,-4.5018,-4.5303,-4.5161,-4.5001,0.0,0.0,0.0,-4.5614,-4.5753,-4.6077,-4.6502,-4.7004,-4.7182,0.0,0.0,-4.7171,-4.635,-4.697,-4.7214,-4.7026,-4.6636,-4.6295,-4.6078,-4.5323,-4.4548,-4.3769,-4.3769,-4.3444,-4.2918,-4.3828,-4.4247,-4.4247,0.0,-4.5126,-4.5854,-4.5911,-4.6218,-4.6819,-4.7682,-4.7645,-4.6986,-4.5947,-4.518,-4.4469,-4.3233,-4.2067,0.0,-4.2248,0.0,0.0,0.0,0.0,0.0,-3.9571,0.0,0.0,0.0,0.0,0.0,0.0,0.0,0.0,0.0,0.0,0.0,0.0,0.0,0.0,-3.5639,0.0,0.0,0.0,0.0,0.0,0.0,0.0,0.0,0.0,0.0,0.0,0.0,-4.0019,0.0,-4.1072,-4.1111,-4.111,-4.1103,-4.1099,-4.1108,-4.11,-4.1031,-4.0986,-4.0932,-4.0829,-4.0765,-4.0718,-4.0707,-4.0673,-4.0617,-4.0554,-4.0492,-4.043,-4.0362,-4.0177,-3.9911,-3.9826,-3.9637,-3.9373,-3.9138,-3.846,-3.7571,-4.457,-4.4587,-4.457,-4.4626,-4.444,0.0,0.0,0.0,0.0,0.0,0.0,0.0,0.0,0.0,0.0,0.0,0.0,-4.7621,-4.6859,0.0,-4.6816,0.0,0.0,-4.6663,-4.7371,-4.6579,-4.5737,-4.4946,-4.4393,-4.3715,-4.2936,-4.2936,-4.29,-4.2918,-4.3733,-4.4095,-4.415,-4.5064,-4.5863,-4.6468,-4.6608,-4.6626,-4.6635,0.0,-4.7929,-4.7666,-4.6066,0.0,0.0,-4.2741,-4.1958,0.0,0.0,0.0,0.0,0.0,0.0,0.0,0.0,0.0,0.0,-3.7163,0.0,0.0,0.0,0.0,-3.4718,0.0,0.0,0.0,0.0,-3.5273,-3.5355,-3.5483,-3.5574,0.0,0.0,0.0,0.0,0.0,0.0,0.0,0.0,0.0,0.0,0.0,-3.9139,0.0,-4.1113,-4.1132,-4.1091,-4.1091,-4.1103,-4.1091,-4.1094,-4.1037,-4.0993,-4.0996,-4.0859,-4.0807,-4.0787,-4.072,-4.07,-4.0687,-4.0636,-4.0558,-4.0489,-4.043,-4.0253,-3.9975,-3.9848,-3.9637,-3.9391,-3.9175,-3.8517,-3.7571,-4.4384,-4.4367,-4.4367,-4.4367,0.0,0.0,0.0,-4.3948,0.0,0.0,0.0,0.0,0.0,-4.579,-4.6088,0.0,0.0,-4.7062,-4.6334,-4.6574,0.0,0.0,0.0,-4.6064,0.0,-4.5304,-4.46,-4.4316,-4.3394,-4.2843,-4.2573,-4.2765,-4.2842,-4.284,-4.3498,-4.3989,0.0,0.0,0.0,0.0,0.0,-4.5563,-4.654,0.0,0.0,-4.6817,-4.5729,-4.5349,0.0,-4.3174,-4.2268,-4.1959,-4.2123,-4.1741,-4.1247,-4.1467,-4.1393,0.0,0.0,0.0,-4.0513,-3.7692,0.0,0.0,0.0,0.0,0.0,0.0,0.0,0.0,0.0,-3.4905,-3.5083,-3.4973,-3.5239,-3.5451,0.0,0.0,0.0,0.0,0.0,0.0,0.0,0.0,0.0,-3.9804,-3.9627,-3.998,0.0,-4.1172,-4.1152,-4.1092,-4.1107,-4.1101,-4.1091,-4.1081,-4.1045,-4.0993,-4.0904,-4.084,-4.0807,-4.0769,-4.0739,-4.07,-4.0626,-4.0549,-4.0489,-4.043,-4.029,-4.0118,-3.9933,-3.9689,-3.9364,-3.8542,-3.7664,-3.6667,-4.4138,-4.4196,0.0,0.0,0.0,0.0,0.0,0.0,0.0,0.0,-4.4776,0.0,-4.6112,0.0,-4.6487,0.0,-4.7251,-4.6969,-4.6017,-4.6518,0.0,-4.544,-4.5801,-4.6165,0.0,0.0,-4.4125,-4.4349,-4.2914,-4.2292,-4.2472,-4.2706,-4.2783,-4.2802,-4.3073,-4.3638,-4.4448,-4.4466,-4.4802,0.0,0.0,-4.4591,0.0,0.0,-4.5924,-4.6354,0.0,-4.5152,-4.5055,-4.3425,-4.2594,-4.2322,-4.2775,-4.2268,-4.165,-4.2105,-4.1851,-4.1379,-4.1089,-4.1361,0.0,0.0,-3.8074,0.0,-3.5093,0.0,0.0,0.0,0.0,0.0,0.0,0.0,-3.4736,-3.4617,-3.5013,-3.5326,0.0,-3.5562,0.0,0.0,0.0,0.0,0.0,0.0,-3.8163,-3.9355,-3.9432,-3.9823,0.0,0.0,-4.1172,-4.1132,-4.1111,-4.1107,-4.1101,-4.1097,-4.1067,-4.0994,-4.0937,-4.0869,-4.0807,-4.0792,-4.0784,-4.0733,-4.0635,-4.0579,-4.0534,-4.0447,-4.0326,-4.0177,-3.9975,-3.9735,-3.9364,-3.8245,-3.6999,-3.5634,0.0,0.0,0.0,0.0,-4.4039,0.0,0.0,0.0,-4.3305,0.0,-4.4331,-4.447,-4.5735,-4.6463,-4.6893,-4.6941,-4.7587,-4.7388,-4.5947,-4.651,0.0,0.0,-4.6229,-4.6791,-4.7547,0.0,0.0,0.0,-4.2855,-4.211,-4.257,-4.2706,-4.2802,-4.2783,-4.2494,0.0,-4.4148,-4.4021,-4.4671,-4.5673,-4.4301,-4.3769,-4.3769,-4.3615,0.0,-4.6254,-4.4968,-4.4827,-4.5015,-4.3387,-4.2882,-4.2882,-4.2882,-4.2882,-4.2882,-4.2882,-4.2747,-4.2408,-4.1636,-4.142,-4.1081,-3.9536,0.0,0.0,0.0,0.0,-3.4615,0.0,0.0,0.0,0.0,0.0,-3.4416,-3.4375,-3.4794,-3.5212,-3.5364,-3.5509,0.0,0.0,0.0,0.0,0.0,-3.6523,-3.6776,-3.8475,-3.859,-3.9,0.0,0.0,0.0,-4.1191,-4.1132,-4.109,-4.1107,-4.1108,-4.1076,-4.0994,-4.0937,-4.0869,-4.0807,-4.0792,-4.0808,-4.079,-4.0668,-4.0588,-4.0593,-4.0463,-4.0325,-4.0196,-3.9979,-3.9683,-3.9252,-3.8223,-3.651,-3.4579,-4.3822,-4.3805,-4.3671,0.0,-4.3552,-4.3372,0.0,0.0,0.0,0.0,-4.4399,-4.4586,-4.6399,-4.6776,-4.7008,-4.7275,-4.744,0.0,0.0,0.0,0.0,-4.6626,-4.6205,-4.6317,-4.7065,-4.4606,-4.3622,-4.4165,0.0,-4.1788,-4.2228,-4.2486,-4.2584,-4.2584,-4.2409,-4.2257,-4.2211,-4.2881,-4.3673,-4.4313,-4.3133,-4.3078,0.0,0.0,-4.4212,-4.5336,-4.4466,-4.4396,-4.4545,-4.2969,-4.2432,-4.2432,-4.2432,-4.2432,-4.2432,-4.2432,-4.2409,-4.2315,-4.2119,-4.2065,-4.1689,-4.0098,-3.9135,-3.8205,0.0,0.0,0.0,0.0,0.0,0.0,0.0,0.0,0.0,-3.3942,-3.4311,-3.4736,-3.4925,0.0,0.0,-3.5507,0.0,0.0,0.0,-3.6692,-3.7422,-3.8511,-3.8609,0.0,0.0,0.0,0.0,-4.1112,-4.1113,-4.109,-4.1107,-4.1108,-4.1076,-4.0994,-4.0991,-4.0935,-4.0877,-4.0826,-4.0792,-4.0776,-4.0648,-4.0588,-4.0588,-4.0511,-4.0432,-4.0307,-4.0078,-3.8958,-3.7443,-3.697,-3.5625,-3.388,-4.3388,0.0,0.0,-4.319,0.0,0.0,-4.3181,0.0,0.0,-4.4577,-4.4141,0.0,-4.6413,-4.675,-4.7014,-4.7337,-4.7404,0.0,-4.6941,0.0,0.0,-4.6908,-4.6808,-4.6808,-4.6891,-4.4863,0.0,-4.3746,0.0,-4.1733,-4.1941,-4.2305,-4.2503,-4.2503,-4.2305,-4.2154,-4.2086,-4.2827,-4.3013,-4.2743,-4.2666,0.0,0.0,-4.3069,-4.3515,-4.4213,-4.36,-4.3816,-4.4103,-4.2763,-4.2187,-4.2086,-4.2228,-4.2287,-4.2287,-4.2287,-4.2205,-4.2103,-4.2103,-4.2103,-4.189,-4.1019,-3.9975,-3.8877,-3.7647,-3.6506,-3.5615,0.0,0.0,0.0,0.0,0.0,0.0,-3.3987,-3.4147,-3.4423,0.0,0.0,0.0,0.0,0.0,0.0,0.0,0.0,0.0,0.0,0.0,0.0,0.0,0.0,0.0,0.0,-4.0523,-4.0703,-4.1107,-4.0748,-4.0723,-4.0994,-4.0993,-4.096,-4.0907,-4.0867,-4.0834,-4.0788,-4.0688,-4.0615,-4.0588,-4.0523,-4.0447,-4.0323,-3.9659,-3.8328,-3.6714,-3.6102,-3.4972,-3.3606,0.0,0.0,0.0,0.0,0.0,0.0,0.0,-4.2039,0.0,-4.3926,0.0,-4.4076,-4.5891,-4.6488,-4.6876,-4.7202,0.0,-4.7225,-4.7009,-4.7636,-4.7669,-4.6924,-4.7504,-4.7504,-4.6775,-4.5301,-4.4215,0.0,0.0,-4.1829,-4.1709,-4.2205,-4.2463,-4.2463,-4.2264,0.0,0.0,-4.2929,-4.2409,0.0,-4.2517,-4.2919,-4.2846,-4.2832,-4.2986,-4.3137,-4.2736,-4.3123,-4.3613,-4.2541,-4.1959,-4.177,-4.2103,-4.2205,-4.2205,-4.2205,-4.2019,-4.1831,-4.1831,-4.1831,-4.1831,-4.1831,-4.0902,-3.9783,-3.8943,-3.7681,-3.6417,-3.5616,-3.5456,0.0,0.0,0.0,0.0,-3.4309,0.0,0.0,0.0,0.0,0.0,0.0,0.0,0.0,0.0,0.0,0.0,0.0,0.0,0.0,0.0,0.0,0.0,0.0,-3.995,0.0,-4.0913,0.0,-4.0307,-4.0838,-4.0942,-4.0949,-4.0907,-4.0907,-4.0856,-4.08,-4.0725,-4.0655,-4.0607,-4.0534,-4.0476,-4.0266,-3.8953,-3.7796,-3.6715,-3.5488,-3.4412,-3.3476,0.0,0.0,0.0,0.0,0.0,-4.2332,-4.1824,-4.1442,-4.1787,-4.3333,-4.3251,-4.3602,-4.4919,-4.5608,-4.6136,-4.6426,-4.6807,0.0,0.0,0.0,0.0,-4.6924,-4.7023,-4.6742,-4.5997,-4.4556,-4.3714,0.0,0.0,-4.1829,-4.1709,-4.2145,-4.2346,-4.2346,-4.2405,0.0,-4.2236,-4.1018,0.0,-4.1825,-4.2495,-4.2732,-4.2782,-4.324,-4.3322,-4.3137,-4.2736,-4.2582,-4.2457,-4.1885,-4.1692,-4.1631,-4.1692,-4.1736,-4.1736,-4.1736,-4.1692,-4.1648,-4.1648,-4.1648,-4.1648,-4.1648,-4.1006,-4.0186,-3.9394,-3.8456,-3.7598,-3.6841,-3.6682,-3.6488,-3.5857,0.0,0.0,0.0,0.0,0.0,0.0,0.0,0.0,0.0,0.0,0.0,0.0,0.0,0.0,0.0,0.0,0.0,0.0,0.0,0.0,0.0,0.0,0.0,0.0,0.0,0.0,-3.9941,-4.0599,-4.0897,-4.0898,-4.0898,-4.0867,-4.0796,-4.0718,-4.0655,-4.0588,-4.0593,-4.0485,-4.0149,-3.8327,-3.7402,-3.6885,-3.494,-3.368,-3.2877,0.0,0.0,0.0,0.0,0.0,0.0,0.0,-4.1729,0.0,-4.2789,-4.3196,-4.3723,-4.446,-4.5321,-4.592,-4.6301,-4.6191,-4.6257,-4.6781,-4.6668,-4.65,-4.6344,-4.6328,0.0,-4.5235,-4.4539,-4.3681,-4.2665,0.0,0.0,-4.1445,0.0,0.0,-4.2305,0.0,-4.2113,0.0,0.0,0.0,-4.1933,-4.2808,-4.3198,-4.3232,-4.3773,-4.3361,-4.2581,-4.2877,-4.2371,-4.1574,-4.1576,-4.1453,-4.1318,-4.1542,-4.1604,-4.1604,-4.1604,-4.1604,-4.1604,-4.1604,-4.1604,-4.1604,-4.1604,-4.1042,-4.027,-3.9498,-3.869,-3.79,-3.7128,-3.693,-3.6685,-3.6086,-3.5137,0.0,0.0,0.0,0.0,0.0,0.0,0.0,0.0,0.0,0.0,0.0,0.0,0.0,0.0,0.0,0.0,0.0,0.0,0.0,0.0,0.0,0.0,0.0,0.0,0.0,-4.0383,-4.0766,-4.0935,-4.0907,-4.0898,-4.0868,-4.0848,-4.0815,-4.0769,-4.0707,-4.0635,-4.0246,-3.9531,-3.8061,-3.7371,-3.6968,-3.5136,-3.4324,-3.392,0.0,-4.15,0.0,0.0,-4.1301,0.0,0.0,-4.1712,-4.1799,-4.2272,-4.2986,-4.3599,-4.3935,-4.4705,-4.5349,-4.5729,-4.5373,-4.5395,-4.5979,-4.5586,-4.5464,-4.5566,-4.5566,-4.5218,-4.4473,-4.4456,-4.3663,0.0,0.0,0.0,0.0,0.0,0.0,0.0,0.0,0.0,0.0,0.0,-4.2763,-4.2289,-4.3223,-4.3628,-4.3611,-4.3855,-4.3105,-4.2058,-4.2705,-4.2089,-4.1071,-4.1453,-4.1408,-4.1163,-4.1498,-4.1604,-4.1604,-4.1604,-4.1604,-4.1604,-4.1604,-4.1604,-4.1604,-4.1604,-4.1148,-4.0516,-3.9743,-3.8936,-3.8146,-3.7374,-3.6974,-3.6663,-3.6217,-3.5526,0.0,0.0,0.0,0.0,0.0,0.0,0.0,0.0,0.0,0.0,0.0,0.0,0.0,0.0,0.0,0.0,0.0,0.0,0.0,0.0,0.0,0.0,-4.0539,0.0,-4.0276,0.0,-4.091,-4.0943,-4.0907,-4.0907,-4.0888,-4.0907,-4.0907,-4.0856,-4.0788,-4.0662,-4.014,-3.9342,-3.8319,-3.7776,-3.7376,-3.5913,-3.5235,-3.4777,0.0,0.0,0.0,0.0,0.0,0.0,0.0,-4.0406,-4.0699,-4.2009,-4.2164,-4.2389,-4.3001,-4.3137,-4.3403,-4.3911,-4.4533,-4.4885,-4.495,-4.5452,-4.5483,-4.4821,-4.4787,-4.4456,-4.3744,-4.3727,-4.3339,0.0,0.0,0.0,0.0,0.0,0.0,0.0,0.0,0.0,0.0,-4.2858,-4.3024,-4.3429,-4.3562,-4.3628,-4.3545,-4.2941,-4.2372,-4.1991,-4.1733,-4.1381,-4.1071,-4.1453,-4.156,-4.156,-4.1604,-4.1604,-4.1604,-4.1604,-4.1604,-4.1604,-4.1604,-4.1604,-4.1604,-4.1604,-4.1552,-4.1306,-4.0551,-3.9761,-3.8971,-3.8164,-3.7318,-3.6681,-3.6559,-3.5839,-3.537,0.0,0.0,0.0,0.0,0.0,0.0,0.0,0.0,0.0,0.0,0.0,0.0,0.0,0.0,0.0,0.0,0.0,0.0,0.0,0.0,-3.9408,-3.8749,-4.0162,0.0,-3.9828,-4.0565,-4.0907,-4.0907,-4.0907,-4.0888,-4.0907,-4.0907,-4.0856,-4.0788,-4.0726,-4.0648,-4.0461,-3.9441,-3.8922,-3.8595,-3.7343,-3.5689,-3.3964,0.0,0.0,0.0,0.0,0.0,0.0,0.0,-4.0182,-4.0292,-4.0829,-4.1492,-4.2002,-4.2303,-4.2984,-4.3497,-4.3652,-4.36,-4.3613,-4.3812,-4.3894,-4.3834,-4.3723,-4.3922,-4.391,-4.3628,-4.3628,-4.3306,0.0,0.0,0.0,0.0,0.0,0.0,0.0,0.0,-4.2702,-4.2975,-4.314,-4.3405,-4.3628,-4.3628,-4.3628,-4.3604,-4.3339,-4.2912,-4.2362,-4.2299,-4.187,-4.1363,-4.156,-4.1604,-4.1604,-4.1604,-4.1604,-4.1604,-4.1604,-4.1604,-4.1604,-4.1604,-4.1604,-4.1604,-4.1604,-4.1604,-4.1411,-4.0656,-3.9824,-3.8933,-3.8205,-3.7271,-3.6643,-3.6763,-3.6284,-3.6111,0.0,0.0,0.0,0.0,0.0,0.0,0.0,0.0,0.0,0.0,0.0,0.0,0.0,0.0,0.0,0.0,0.0,0.0,-3.8904,0.0,-4.0028,-3.9228,-4.0363,-4.0777,-4.0429,-4.0742,-4.0907,-4.0907,-4.0907,-4.0898,-4.0888,-4.0888,-4.0888,-4.0856,-4.0819,-4.0507,-3.9987,-3.9452,-3.7961,-3.5959,-3.5037,-3.319,-3.0956,-3.8144,0.0,-3.8619,0.0,-3.9139,-3.9051,-3.9712,-3.9668,-3.9538,-3.9538,-4.0426,-4.1245,-4.1589,-4.2333,-4.2899,-4.309,-4.2715,-4.2614,-4.2861,-4.2813,-4.2851,-4.3096,-4.3432,0.0,-4.3628,-4.3628,-4.3422,-4.2933,-4.2618,0.0,0.0,0.0,0.0,0.0,-4.2913,-4.3059,-4.2966,-4.3396,-4.3628,-4.3628,-4.3628,-4.3495,-4.3273,-4.328,-4.2839,-4.2245,-4.2228,-4.1943,-4.1515,-4.1515,-4.1515,-4.156,-4.1604,-4.1604,-4.1604,-4.1604,-4.1604,-4.1604,-4.156,-4.156,-4.1515,-4.1498,-4.1498,-4.1375,-4.0876,-4.0071,-3.9171,-3.8133,-3.7189,-3.6609,-3.7017,-3.6653,-3.6537,0.0,0.0,0.0,0.0,0.0,0.0,0.0,-3.6775,-3.6582,-3.6983,0.0,0.0,0.0,0.0,0.0,0.0,0.0,0.0,0.0,0.0,0.0,0.0,0.0,-4.0904,-4.0898,-4.0915,-4.0915,-4.0907,-4.0907,-4.0907,-4.0907,-4.0915,-4.0926,-4.0907,-4.0926,-4.0552,-3.9976,-3.9836,-3.8247,-3.5876,-3.4363,-3.2385,-3.0202,-3.7158,-3.673,-3.6747,-3.9118,-3.8261,-3.7752,-3.903,-3.8652,-3.8217,-3.8217,-3.8752,-3.9591,-4.0804,-4.087,-4.1018,-4.1554,-4.1931,-4.2125,-4.2125,-4.2743,-4.3113,0.0,0.0,-4.3628,-4.3628,-4.3628,-4.3628,-4.3611,0.0,0.0,-4.2095,0.0,0.0,-4.2699,-4.2699,-4.3032,-4.3611,-4.3628,-4.3628,-4.3628,-4.3628,-4.3181,-4.251,-4.2177,-4.1796,-4.1459,-4.0999,-4.1071,-4.138,-4.1255,-4.1318,-4.1426,-4.156,-4.1604,-4.1604,-4.1604,-4.1604,-4.156,-4.1426,-4.138,-4.1363,-4.1255,-4.1192,-4.1255,-4.1363,-4.0831,-3.9792,-3.8136,-3.7106,-3.6713,-3.7358,-3.686,-3.6558,-3.7374,0.0,0.0,0.0,0.0,0.0,0.0,-3.6736,-3.6694,-3.7514,0.0,0.0,0.0,0.0,0.0,0.0,0.0,0.0,-3.9469,-3.9567,0.0,-3.9597,-4.0462,-4.091,-4.0907,-4.0964,-4.0953,-4.0907,-4.0907,-4.0907,-4.0888,-4.0964,-4.0953,-4.0898,-4.0972,-4.0955,-4.089,-4.089,-4.0691,-4.0024,-3.6701,-3.4534,-3.2913,-3.6886,-3.6886,-3.7101,-3.8361,-3.8243,-3.8057,-3.8463,-3.8333,-3.8352,-3.8723,-3.9277,-3.994,-4.0747,-4.0785,-4.1003,0.0,-4.172,-4.1851,0.0,-4.2539,-4.2834,-4.3096,-4.3432,-4.3628,-4.3628,-4.3628,-4.3628,-4.3628,0.0,0.0,0.0,-4.2339,-4.2589,-4.3322,-4.3322,-4.3396,-4.3628,-4.3628,-4.3628,-4.3578,-4.3065,-4.2734,-4.2427,-4.1859,-4.1546,-4.1358,-4.1254,-4.1209,-4.1255,-4.1209,-4.1209,-4.1255,-4.13,-4.1453,-4.1604,-4.1604,-4.1604,-4.156,-4.1426,-4.138,-4.138,-4.1255,-4.1209,-4.1209,-4.1255,-4.0635,-3.966,-3.8262,-3.7565,-3.7259,-3.7447,-3.7055,-3.6929,-3.7589,0.0,0.0,0.0,0.0,0.0,0.0,-3.6002,-3.5992,0.0,-3.6149,0.0,0.0,0.0,0.0,0.0,0.0,0.0,0.0,-3.9739,0.0,-3.9596,-4.0431,-4.084,-4.091,-4.0924,-4.0935,-4.098,-4.0974,-4.0961,-4.0979,-4.0994,-4.0986,-4.0978,-4.0982,-4.0967,-4.0882,-4.0705,-3.9159,-3.6869,-3.5573,-3.1997,-2.7703,-3.6591,-3.6915,-3.7211,-3.7825,-3.8127,-3.8202,-3.8202,-3.8202,-3.8352,-3.8723,-3.922,-3.9849,-4.0424,-4.0646,0.0,-4.1522,-4.172,0.0,-4.2109,-4.2539,-4.2912,-4.3096,-4.3432,-4.3628,-4.3628,0.0,0.0,-4.3628,-4.3206,-4.3032,-4.3032,-4.3032,-4.3223,-4.3628,-4.3628,-4.3628,-4.3628,-4.3628,-4.3462,-4.3164,-4.2717,-4.2244,-4.1816,-4.156,-4.129,-4.11,-4.1232,-4.1244,-4.1134,-4.1088,-4.1134,-4.1134,-4.1134,-4.1272,-4.1453,-4.1453,-4.1515,-4.1471,-4.1353,-4.1307,-4.1261,-4.1134,-4.1088,-4.1088,-4.1134,-4.0516,-3.9683,-3.8928,-3.8296,-3.7862,-3.7771,-3.7514,-3.7447,-3.781,0.0,-3.7807,0.0,0.0,0.0,0.0,0.0,0.0,0.0,-3.6642,0.0,0.0,0.0,0.0,0.0,0.0,0.0,-3.9058,-4.0094,0.0,-4.0014,-4.0535,-4.083,-4.0855,-4.0888,-4.0936,-4.0996,-4.1007,-4.1,-4.1006,-4.1033,-4.1031,-4.1046,-4.1015,-4.0973,-4.0916,-4.0635,-3.9195,-3.71,-3.5539,-3.2336,-2.8511,-3.6218,-3.6772,0.0,0.0,-3.7976,0.0,-3.8202,-3.8202,-3.8277,-3.8337,-3.887,-3.9436,-3.996,-4.0562,-4.1055,-4.1588,0.0,0.0,0.0,-4.2726,-4.3113,-4.3096,-4.3432,0.0,-4.3628,-4.3628,-4.3628,-4.3628,-4.3628,-4.3628,-4.3628,-4.3628,-4.3628,-4.3628,-4.3628,-4.3595,-4.3545,-4.3545,-4.3115,-4.2435,-4.2386,-4.1783,-4.0889,-4.1154,-4.1016,-4.0697,-4.1,-4.1093,-4.1047,-4.0935,-4.0982,-4.1111,-4.1111,-4.1169,-4.1209,-4.1209,-4.1272,-4.1335,-4.114,-4.1093,-4.1047,-4.0935,-4.0888,-4.0935,-4.1047,-4.0522,-3.9967,-3.9915,-3.9254,-3.8599,-3.8281,-3.8146,-3.8086,-3.8078,-3.7862,-3.7572,-3.7166,0.0,0.0,0.0,0.0,0.0,0.0,-3.771,-3.809,0.0,0.0,0.0,0.0,0.0,-3.8741,-4.0415,-4.0564,-4.0621,-4.07,-4.0761,-4.0801,-4.0807,-4.0878,-4.0943,-4.0996,-4.1003,-4.102,-4.1008,-4.1072,-4.1086,-4.1091,-4.1013,-4.0984,-4.0935,-4.0675,-4.0486,-3.9964,-3.6614,-3.5073,-3.3965,0.0,0.0,-3.761,-3.7976,-3.8127,-3.8202,-3.8202,-3.8575,-3.9002,-3.9478,-3.999,-4.0578,-4.1174,-4.1573,-4.1851,-4.198,-4.2045,-4.2238,-4.2459,-4.2851,-4.3235,-4.3492,-4.3568,-4.3628,-4.3628,-4.3628,-4.3628,-4.3628,-4.3628,-4.3628,-4.3628,-4.3628,-4.3628,-4.3628,-4.3628,-4.3313,-4.2783,-4.2783,-4.2508,-4.2093,-4.1485,-4.1264,-4.1154,-4.1011,-4.0751,-4.0583,-4.0953,-4.1047,-4.0935,-4.0935,-4.0935,-4.0935,-4.0935,-4.1029,-4.1123,-4.1163,-4.1209,-4.1226,-4.114,-4.1093,-4.1047,-4.0935,-4.0888,-4.0935,-4.0935,-4.0797,-4.0562,-4.0298,-3.9815,-3.945,-3.9461,-3.8624,-3.8126,-3.8654,-3.7666,-3.6874,-3.7076,0.0,0.0,0.0,-3.6201,-3.657,-3.7367,-3.7663,-3.7896,0.0,0.0,0.0,0.0,0.0,-3.9014,-4.0321,-4.0457,-4.0583,-4.07,-4.0732,-4.0761,-4.0787,-4.0922,-4.0983,-4.1,-4.1057,-4.1081,-4.1072,-4.1035,-4.1029,-4.1001,-4.0843,-4.0743,-4.0654,-4.0303,-4.008,-3.9871,-3.8612,-3.6624,-3.4336,-3.738,-3.7625,-3.7763,-3.8127,-3.8202,-3.8277,-3.8575,-3.8649,-3.9002,-3.9763,-4.02,-4.0631,-4.1189,-4.1588,-4.1851,-4.1851,-4.2285,-4.2601,-4.2851,-4.3174,-4.3432,-4.3568,-4.3628,-4.3628,-4.3628,-4.3628,-4.3628,-4.3628,-4.3628,-4.3628,-4.3628,-4.3628,-4.3628,-4.3611,-4.328,-4.2899,-4.2502,-4.2154,-4.1799,-4.1446,-4.1059,-4.1002,-4.103,-4.0862,-4.0819,-4.0853,-4.1059,-4.1105,-4.1041,-4.0982,-4.0982,-4.0982,-4.0935,-4.0935,-4.1029,-4.1041,-4.1088,-4.1152,-4.1029,-4.1,-4.0982,-4.0935,-4.0888,-4.0888,-4.0888,-4.0888,-4.0874,-4.0858,-4.0682,-4.0394,-3.9878,-3.9349,-3.8872,-3.8474,-3.7518,-3.691,-3.7057,-3.6479,0.0,-3.6632,-3.6721,-3.7063,-3.7888,-3.8188,-3.8302,-3.8359,0.0,0.0,-3.894,-3.9082,-3.9504,-4.0233,-4.0372,-4.0519,-4.0654,-4.072,-4.0781,-4.0848,-4.0948,-4.0992,-4.0994,-4.107,-4.1099,-4.109,-4.1029,-4.1007,-4.0983,-4.0771,-4.0684,-4.0604,-4.0174,-3.9943,-3.9775,-3.9279,-3.7939,-3.6155,-3.7519,-3.7687,-3.7763,-3.8127,-3.8202,-3.8352,-3.8885,-3.8649,-3.8841,-3.9748,-4.003,-4.0324,-4.0851,-4.139,-4.1769,-4.1769,-4.2601,-4.3096,-4.3035,-4.3372,-4.3568,-4.3628,-4.3628,-4.3628,-4.3628,-4.3628,-4.3628,-4.3628,-4.3628,-4.3628,-4.3628,-4.3512,-4.3446,-4.3429,-4.2684,-4.2286,-4.2154,-4.1524,-4.1088,-4.0828,-4.0828,-4.0831,-4.0913,-4.0913,-4.1007,-4.1209,-4.1209,-4.1209,-4.1209,-4.1123,-4.1093,-4.1093,-4.0982,-4.0935,-4.0888,-4.0888,-4.0982,-4.1047,-4.0935,-4.0888,-4.0888,-4.0888,-4.0888,-4.0935,-4.0965,-4.1012,-4.1134,-4.1534,-4.1516,-4.111,-4.0153,-4.0052,-3.9571,-3.8043,-3.7359,-3.6971,-3.6926,0.0,-3.6383,-3.7266,-3.7479,-3.7839,-3.8634,-3.8822,-3.8892,-3.8892,-3.9073,0.0,0.0,-3.9693,-3.9916,-4.0196,-4.0321,-4.0469,-4.0621,-4.0754,-4.0849,-4.0898,-4.096,-4.1013,-4.1011,-4.1066,-4.1099,-4.1094,-4.1038,-4.0983,-4.0948,-4.0751,-4.0655,-4.0584,-4.0175,-3.9901,-3.9731,-3.9305,-3.8913,-3.8237,-3.771,-3.8127,-3.8127,-3.8202,-3.8202,-3.8202,-3.8352,-3.9045,-3.9692,-3.9905,-4.0737,-4.1374,-4.1456,-4.2093,-4.2459,-4.2459,-4.3113,-4.3295,-4.271,-4.2974,-4.3295,-4.3568,-4.3628,-4.3628,-4.3628,-4.3628,-4.3628,-4.3628,-4.3628,-4.3628,-4.3611,-4.2982,-4.2684,-4.2667,-4.1922,-4.1259,-4.0696,-4.058,-4.0551,-4.0489,-4.0489,-4.0827,-4.1318,-4.1318,-4.1272,-4.1209,-4.1209,-4.1209,-4.1209,-4.1163,-4.1152,-4.1111,-4.1111,-4.0982,-4.0888,-4.0888,-4.0935,-4.0935,-4.0935,-4.0888,-4.0888,-4.0888,-4.0888,-4.1012,-4.1328,-4.1401,-4.1534,-4.199,-4.1493,-4.1042,-4.1169,-4.0037,-3.8852,-3.8316,-3.7003,-3.6108,0.0,0.0,-3.6261,-3.7124,-3.7831,-3.835,-3.8658,-3.8822,-3.8921,-3.8979,-3.912,-3.929,-3.9502,-3.9693,-3.9916,-4.0196,-4.0325,-4.0476,-4.0687,-4.082,-4.0898,-4.0896,-4.0967,-4.1022,-4.1072,-4.1108,-4.1103,-4.1094,-4.1031,-4.0928,-4.082,-4.0604,-4.0438,-4.0267,-4.0138,-3.9935,-3.9675,-3.9401,-3.9036,-3.8589,-3.6967,-3.7186,-3.7186,-3.7186,-3.7405,-3.7678,-3.8005,-3.8482,-3.9017,-3.985,-4.0112,-4.0435,-4.0895,-4.1206,-4.1452,-4.1375,-4.1694,-4.1814,-4.1678,-4.2731,-4.3432,-4.3568,-4.3628,-4.3628,-4.3628,-4.3628,-4.3429,-4.3032,-4.3032,-4.2816,-4.2435,-4.2088,-4.1922,-4.1889,-4.1177,-4.068,-4.0403,-4.0221,-4.0222,-4.04,-4.0611,-4.1024,-4.1515,-4.1515,-4.1453,-4.1408,-4.1408,-4.1408,-4.1408,-4.1255,-4.118,-4.1152,-4.1029,-4.0935,-4.0888,-4.0888,-4.0888,-4.0888,-4.0888,-4.0888,-4.0965,-4.1163,-4.1192,-4.1328,-4.1778,-4.1864,-4.1866,-4.1884,-4.1525,-4.1061,-4.0546,-3.9786,-3.8864,-3.7834,-3.7048,0.0,0.0,-3.6576,-3.6867,-3.7807,-3.8196,-3.8496,-3.875,-3.8851,-3.8939,-3.8979,-3.9193,-3.9388,-3.9599,-3.9832,-4.0082,-4.0342,-4.0496,-4.0641,-4.08,-4.0896,-4.0935,-4.0909,-4.0962,-4.0994,-4.0995,-4.0949,-4.0955,-4.0976,-4.0805,-4.0761,-4.0787,-4.0466,-4.0341,-4.0288,-4.0038,-3.9826,-3.9599,-3.9181,-3.8865,-3.8597,-3.62,-3.6301,-3.6315,-3.6443,-3.6866,-3.7389,-3.7901,-3.8152,-3.8611,-3.9752,-3.9596,-3.9642,-4.0345,-4.0464,-4.0524,-4.0524,-4.0583,-4.0759,-4.0976,-4.2294,-4.3115,-4.3115,-4.3115,-4.3115,-4.3115,-4.3115,-4.2833,-4.2253,-4.2253,-4.1972,-4.1409,-4.1243,-4.1177,-4.1143,-4.0431,-4.0171,-4.0247,-3.9981,-4.0171,-4.0563,-4.0884,-4.1226,-4.1604,-4.1604,-4.1604,-4.1604,-4.156,-4.156,-4.1515,-4.13,-4.1209,-4.1134,-4.0982,-4.0965,-4.1041,-4.1041,-4.1134,-4.118,-4.1088,-4.1134,-4.13,-4.1578,-4.1648,-4.1778,-4.2257,-4.2235,-4.1992,-4.1778,-4.1361,-4.0745,-3.979,-3.9407,-3.8809,-3.7358,0.0,0.0,0.0,-3.7121,-3.7476,-3.8387,-3.8446,-3.851,-3.8792,-3.8881,-3.8921,-3.9036,-3.9309,-3.9545,-3.9766,-4.0023,-4.0303,-4.0571,-4.0684,-4.0793,-4.09,-4.0976,-4.0967,-4.0918,-4.0973,-4.0957,-4.0866,-4.0818,-4.0797,-4.0824,-4.0544,-4.0532,-4.0662,-4.0302,-4.0214,-4.0271,-3.9935,-3.9712,-3.9526,-3.9045,-3.8748,-3.8523,-3.6114,-3.6301,-3.6443,-3.6936,-3.7306,-3.7654,-3.8188,-3.8966,-3.9486,-3.9626,-4.0011,-4.0345,-4.0404,-4.0701,-4.086,-4.086,-4.1165,-4.1352,-4.1352,-4.1508,-4.1574,-4.1574,-4.1574,-4.1574,-4.1574,-4.1574,-4.1558,-4.1491,-4.1491,-4.1458,-4.1409,-4.0763,-4.0448,-4.0415,-3.9686,-3.9568,-3.9933,-3.9918,-4.032,-4.0977,-4.0977,-4.1226,-4.1604,-4.1604,-4.1604,-4.1604,-4.1471,-4.1426,-4.1363,-4.1255,-4.1152,-4.1093,-4.1093,-4.1272,-4.1445,-4.1445,-4.1778,-4.199,-4.1561,-4.1778,-4.2115,-4.2115,-4.2157,-4.2297,-4.275,-4.221,-4.176,-4.2099,-4.086,-3.9698,-3.9622,-3.8937,-3.8107,-3.7235,0.0,0.0,-3.7043,-3.7121,-3.7489,-3.8323,-3.8446,-3.8603,-3.8881,-3.891,-3.8979,-3.9156,-3.9421,-3.9709,-3.9963,-4.0236,-4.0521,-4.0857,-4.0889,-4.0896,-4.09,-4.0967,-4.0994,-4.0996,-4.0996,-4.0933,-4.0805,-4.0735,-4.0682,-4.0613,-4.0337,-4.0265,-4.0317,-4.0101,-4.0021,-4.0017,-3.9848,-3.967,-3.9458,-3.9192,-3.8826,-3.8478,-3.5013,-3.5385,-3.5589,-3.5468,-3.6295,-3.7057,-3.709,-3.7901,-3.8654,-3.9062,-3.9251,-3.9511,-3.968,-3.9847,-3.9902,-3.9902,-4.0029,-4.0083,-4.0083,-4.0083,-4.0481,-4.1375,-4.1409,-4.1409,-4.1409,-4.1409,-4.121,-4.0779,-4.0779,-4.0547,-4.0083,-3.9818,-3.9847,-4.0113,-3.9828,-3.9867,-4.0237,-4.05,-4.0741,-4.1024,-4.1272,-4.1453,-4.1604,-4.1604,-4.1604,-4.1604,-4.156,-4.1515,-4.1515,-4.1255,-4.1163,-4.118,-4.13,-4.1255,-4.1163,-4.1445,-4.2032,-4.2595,-4.2418,-4.2297,-4.2297,-4.2555,-4.2634,-4.2623,-4.2522,-4.2247,-4.1736,-4.0954,-4.0141,-3.944,-3.8994,-3.8601,-3.8113,-3.728,0.0,-3.7685,-3.7194,-3.7558,-3.8041,-3.841,-3.8559,-3.8701,-3.8862,-3.9073,-3.9272,-3.9371,-3.9664,-3.9945,-4.017,-4.0517,-4.0799,-4.1019,-4.0975,-4.0976,-4.1015,-4.1004,-4.0979,-4.0948,-4.0855,-4.0761,-4.0674,-4.0519,-4.041,-4.035,-4.0062,-3.9907,-3.9867,-3.9838,-3.9747,-3.9637,-3.9698,-3.9599,-3.935,-3.9183,-3.8931,-3.8652,-3.4414,-3.4854,-3.5169,-3.5023,-3.6102,-3.7042,-3.7115,-3.7854,-3.8455,-3.8914,-3.8985,-3.904,-3.9272,-3.9272,-3.9272,-3.9272,-3.9272,-3.9272,-3.9272,-3.9272,-3.9719,-4.0696,-4.0746,-4.0746,-4.0746,-4.0746,-4.0514,-4.0034,-4.0034,-3.9785,-3.9272,-3.9272,-3.9537,-3.9901,-3.9901,-4.0171,-4.0611,-4.0866,-4.1071,-4.1209,-4.1498,-4.1604,-4.1604,-4.1604,-4.1604,-4.1604,-4.156,-4.1515,-4.1498,-4.1255,-4.1283,-4.1463,-4.1534,-4.1534,-4.1596,-4.2015,-4.2559,-4.3014,-4.2778,-4.2502,-4.2332,-4.2631,-4.2705,-4.2577,-4.2035,-4.1702,-4.1174,-4.0107,-3.9552,-3.9071,-3.8588,-3.8415,-3.8218,-3.7658,-3.799,-3.8172,-3.7608,-3.8008,-3.8401,-3.8559,-3.867,-3.8822,-3.9036,-3.9264,-3.9458,-3.9641,-3.9945,-4.0219,-4.0498,-4.0811,-4.0994,-4.1074,-4.1013,-4.1003,-4.1003,-4.098,-4.0926,-4.0849,-4.0734,-4.061,-4.0511,-4.0288,-4.0139,-4.0062,-3.9724,-3.9609,-3.9626,-3.9537,-3.9489,-3.95,-3.9556,-3.9452,-3.9245,-3.9073,-3.8892,-3.8732,-3.4414,-3.4854,-3.5479,-3.6259,-3.7055,-3.7879,-3.8678,-3.9094,-3.9272,-3.9272,-3.9272,-3.9272,-3.9272,-3.9272,-3.9272,-3.9272,-3.9272,-3.9272,-3.9325,-3.9325,-3.9325,-3.9325,-3.9272,-3.9272,-3.9272,-3.9272,-3.9272,-3.9272,-3.9272,-3.9272,-3.9272,-3.9325,-3.9537,-3.9901,-3.9901,-4.032,-4.1024,-4.1024,-4.1226,-4.1604,-4.1604,-4.1604,-4.1604,-4.1604,-4.1604,-4.1604,-4.1471,-4.1426,-4.138,-4.1255,-4.1507,-4.1881,-4.1753,-4.2257,-4.2995,-4.3375,-4.3479,-4.3314,-4.2525,-4.2304,-4.2286,-4.2286,-4.2286,-4.2084,-4.1277,-4.0469,-3.9868,-3.979,-3.9095,-3.8478,-3.8415,-3.8382,-3.8368,-3.8307,-3.8354,-3.8368,-3.8307,-3.8401,-3.8559,-3.8689,-3.878,-3.8979,-3.935,-3.935,-3.9489,-3.9982,-4.0187,-4.0517,-4.0984,-4.1058,-4.1074,-4.0998,-4.0994,-4.0929,-4.0801,-4.0867,-4.084,-4.0692,-4.063,-4.0496,-4.0307,-4.0022,-3.9857,-3.9781,-3.9298,-3.9324,-3.967,-3.9272,-3.9324,-3.967,-3.9401,-3.9264,-3.9156,-3.8892,-3.875,-3.8658,-3.532,-3.6119,-3.6859,-3.6722,-3.7488,-3.8173,-3.8311,-3.8662,-3.904,-3.9272,-3.9272,-3.9272,-3.9272,-3.9272,-3.9272,-3.9272,-3.9395,-3.9484,-3.9573,-3.9573,-3.9573,-3.9573,-3.9432,-3.9272,-3.9272,-3.9272,-3.9272,-3.9272,-3.9379,-3.9448,-3.9448,-3.9729,-4.007,-4.0402,-4.0597,-4.0931,-4.1408,-4.1408,-4.1498,-4.1604,-4.1604,-4.1604,-4.1604,-4.1604,-4.1604,-4.1604,-4.156,-4.1701,-4.1924,-4.1753,-4.199,-4.2302,-4.2115,-4.2655,-4.3304,-4.3123,-4.2866,-4.2598,-4.2378,-4.1901,-4.1445,-4.1412,-4.1379,-4.1177,-4.0372,-3.9937,-3.9557,-3.9122,-3.8711,-3.8446,-3.8478,-3.8401,-3.8322,-3.8307,-3.834,-3.8354,-3.8368,-3.8382,-3.851,-3.8732,-3.8921,-3.9101,-3.9298,-3.9702,-4.0002,-4.0138,-4.0501,-4.0797,-4.0994,-4.1015,-4.1021,-4.1008,-4.0859,-4.0762,-4.0723,-4.0757,-4.0692,-4.0549,-4.0434,-4.0285,-4.0081,-3.9897,-3.9651,-3.9376,-3.9237,-3.8998,-3.8737,-3.8836,-3.8759,-3.8621,-3.8952,-3.8913,-3.8646,-3.8862,-3.8773,-3.8559,-3.6119,-3.6919,-3.7531,-3.7322,-3.8026,-3.8583,-3.8662,-3.8843,-3.9094,-3.9415,-3.9432,-3.9379,-3.9468,-3.9484,-3.9484,-3.9484,-3.9537,-3.9625,-3.9677,-3.9677,-3.9677,-3.9677,-3.952,-3.9484,-3.9484,-3.9484,-3.9484,-3.9484,-3.9537,-3.959,-3.959,-4.002,-4.0336,-4.0628,-4.1082,-4.1418,-4.1719,-4.1719,-4.1719,-4.1719,-4.1648,-4.1604,-4.1604,-4.1805,-4.1831,-4.1874,-4.2026,-4.2216,-4.2378,-4.2257,-4.244,-4.2696,-4.2752,-4.2869,-4.2986,-4.2722,-4.228,-4.1772,-4.1442,-4.1001,-4.0529,-4.0115,-4.028,-4.0349,-3.953,-3.9296,-3.9132,-3.8719,-3.8528,-3.8446,-3.8433,-3.8354,-3.8307,-3.8307,-3.8307,-3.8368,-3.8597,-3.8658,-3.8778,-3.911,-3.9305,-3.9464,-3.9632,-4.0002,-4.0281,-4.0424,-4.074,-4.0972,-4.1032,-4.1008,-4.0983,-4.0909,-4.0752,-4.0623,-4.0545,-4.0506,-4.0477,-4.0422,-4.0232,-4.0061,-3.9899,-3.9698,-3.9452,-3.9183,-3.9073,-3.8844,-3.859,-3.8597,-3.8535,-3.8378,-3.8646,-3.8603,-3.8368,-3.8504,-3.8491,-3.8401,-3.6904,-3.7397,-3.7838,-3.8181,-3.8551,-3.8969,-3.9448,-3.9395,-3.9432,-3.9625,-3.959,-3.9537,-3.9677,-3.9677,-3.9677,-3.9677,-3.9729,-3.9729,-3.9729,-3.9729,-3.9729,-3.9729,-3.9729,-3.9729,-3.9729,-3.9729,-3.9677,-3.9677,-3.9729,-3.9729,-3.9764,-4.0269,-4.0563,-4.0754,-4.1428,-4.1813,-4.1934,-4.1934,-4.1934,-4.1917,-4.1762,-4.1675,-4.1719,-4.2092,-4.2239,-4.232,-4.2657,-4.279,-4.277,-4.2808,-4.2939,-4.3124,-4.3422,-4.2941,-4.232,-4.2213,-4.1625,-4.0836,-4.0102,-3.9845,-3.9606,-3.8724,-3.914,-3.9588,-3.8841,-3.8658,-3.8658,-3.851,-3.851,-3.8446,-3.8322,-3.8307,-3.8307,-3.8322,-3.834,-3.8478,-3.8971,-3.9008,-3.9189,-3.9647,-3.975,-3.9922,-4.0177,-4.0211,-4.0395,-4.0796,-4.094,-4.1029,-4.109,-4.1019,-4.0903,-4.0801,-4.0648,-4.0481,-4.0289,-4.0215,-4.0196,-4.0252,-4.0002,-3.9854,-3.9739,-3.9452,-3.9245,-3.9156,-3.8892,-3.8833,-3.8884,-3.8541,-3.846,-3.8579,-3.8428,-3.8303,-3.8223,-3.7964,-3.805,-3.8189,-3.7879,-3.8423,-3.8969,-3.9023,-3.9148,-3.9218,-3.9325,-3.9395,-3.9501,-3.9554,-3.959,-3.9677,-3.9677,-3.9677,-3.9677,-3.9677,-3.9798,-3.9884,-4.0037,-4.002,-4.002,-4.002,-4.002,-4.002,-4.002,-3.9833,-3.9677,-3.9677,-3.9798,-4.0054,-4.04,-4.0849,-4.122,-4.1604,-4.2002,-4.2187,-4.2187,-4.2187,-4.2187,-4.2228,-4.2274,-4.2279,-4.232,-4.258,-4.2657,-4.2696,-4.2772,-4.2996,-4.3301,-4.3563,-4.3615,-4.3523,-4.2926,-4.2595,-4.2304,-4.1646,-4.0877,-4.0184,-3.9968,-3.9441,-3.8909,-3.8713,-3.8737,-3.8729,-3.8501,-3.8465,-3.8465,-3.851,-3.8433,-3.8387,-3.8446,-3.8322,-3.8307,-3.851,-3.8541,-3.8676,-3.9091,-3.9173,-3.9279,-3.9575,-3.9769,-3.9943,-4.0101,-4.0404,-4.0704,-4.0933,-4.0988,-4.1014,-4.1019,-4.0813,-4.0671,-4.0636,-4.0396,-4.0269,-4.0215,-3.9998,-3.9916,-3.9998,-3.9873,-3.9717,-3.9477,-3.9298,-3.9101,-3.8862,-3.878,-3.8559,-3.8281,-3.8135,-3.8,-3.7931,-3.8034,-3.7967,-3.7757,-3.7861,-3.7844,-3.7721,-3.8662,-3.9023,-3.9325,-3.9379,-3.9395,-3.9432,-3.959,-3.959,-3.9642,-3.9781,-3.9781,-3.9833,-3.9867,-3.9884,-3.9884,-3.9884,-3.9935,-4.0037,-4.0087,-4.007,-4.007,-4.007,-4.007,-4.0204,-4.0497,-4.0334,-4.012,-3.9884,-3.9986,-4.0254,-4.0689,-4.1157,-4.1516,-4.1924,-4.2374,-4.2472,-4.2287,-4.2287,-4.2246,-4.2103,-4.2297,-4.236,-4.24,-4.2922,-4.3105,-4.3105,-4.3283,-4.3493,-4.359,-4.3319,-4.3208,-4.3047,-4.2184,-4.1649,-4.1199,-4.0762,-4.005,-3.9393,-3.9331,-3.9019,-3.8707,-3.8707,-3.8658,-3.8609,-3.8546,-3.8496,-3.8446,-3.8491,-3.8446,-3.8433,-3.8541,-3.8446,-3.8496,-3.8755,-3.8807,-3.8943,-3.9408,-3.9489,-3.9614,-3.9941,-4.012,-4.0281,-4.041,-4.0643,-4.0838,-4.0934,-4.0974,-4.0987,-4.0961,-4.0722,-4.0578,-4.0549,-4.023,-4.0039,-3.9996,-3.9762,-3.9623,-3.9575,-3.9526,-3.9427,-3.9317,-3.9129,-3.895,-3.875,-3.8738,-3.8483,-3.8101,-3.8018,-3.788,-3.7703,-3.7774,-3.7649,-3.7466,-3.7468,-3.7339,-3.7223,-3.9309,-3.9379,-3.9432,-3.9537,-3.9554,-3.9642,-3.9901,-3.9833,-3.9884,-4.0087,-4.0037,-4.0037,-4.0188,-4.0171,-4.0171,-4.0171,-4.0171,-4.0171,-4.0171,-4.0171,-4.0171,-4.0171,-4.0204,-4.0466,-4.0903,-4.0995,-4.0844,-4.0402,-4.0402,-4.0611,-4.1065,-4.1455,-4.176,-4.2092,-4.2634,-4.2729,-4.2472,-4.2472,-4.2374,-4.2216,-4.244,-4.2501,-4.2559,-4.3266,-4.3508,-4.356,-4.3892,-4.3899,-4.3582,-4.2815,-4.2469,-4.221,-4.1416,-4.0634,-4.0001,-3.9841,-3.9295,-3.8719,-3.8707,-3.8719,-3.878,-3.878,-3.8792,-3.8822,-3.8822,-3.8695,-3.8566,-3.8628,-3.8597,-3.8597,-3.8688,-3.8676,-3.8737,-3.9027,-3.9073,-3.9242,-3.9781,-3.9857,-4.0003,-4.0356,-4.0534,-4.0674,-4.0796,-4.0883,-4.0915,-4.0873,-4.0914,-4.0909,-4.0809,-4.0616,-4.0492,-4.0399,-4.0042,-3.9848,-3.9758,-3.9551,-3.9376,-3.921,-3.9129,-3.9147,-3.9129,-3.895,-3.881,-3.8707,-3.8645,-3.8451,-3.8101,-3.8018,-3.788,-3.7703,-3.7613,-3.7521,-3.7334,-3.7048,-3.6834,-3.6713,-3.9625,-3.9625,-3.9677,-3.9849,-3.9849,-3.9901,-4.0037,-4.0138,-4.0238,-4.0255,-4.0337,-4.0436,-4.0419,-4.0436,-4.0436,-4.0436,-4.0436,-4.0436,-4.0436,-4.0436,-4.0436,-4.0436,-4.0802,-4.0984,-4.1076,-4.1464,-4.1595,-4.1472,-4.1472,-4.1648,-4.2032,-4.2074,-4.2338,-4.2768,-4.2844,-4.2995,-4.316,-4.316,-4.3303,-4.3493,-4.3679,-4.3712,-4.3697,-4.3992,-4.4023,-4.3923,-4.3974,-4.3559,-4.2916,-4.2804,-4.2303,-4.1579,-4.0781,-4.037,-4.0023,-3.928,-3.8925,-3.8762,-3.8738,-3.8881,-3.9045,-3.9045,-3.9127,-3.9242,-3.9357,-3.9127,-3.8896,-3.9125,-3.9063,-3.8999,-3.9173,-3.9017,-3.8989,-3.9357,-3.9383,-3.9526,-3.9975,-4.0119,-4.0214,-4.0377,-4.0565,-4.0752,-4.0877,-4.0945,-4.0937,-4.0811,-4.0762,-4.0664,-4.0467,-4.0279,-4.012,-3.9983,-3.9832,-3.967,-3.9551,-3.9324,-3.9237,-3.9183,-3.891,-3.884,-3.8921,-3.881,-3.8738,-3.8676,-3.8469,-3.8256,-3.8101,-3.7985,-3.7846,-3.7703,-3.7613,-3.7577,-3.7503,-3.7031,-3.6609,-3.6251,-3.9918,-3.9918,-3.9986,-4.0087,-4.0104,-4.0138,-4.0271,-4.0387,-4.0387,-4.0387,-4.0485,-4.0485,-4.0485,-4.0485,-4.0485,-4.0485,-4.0485,-4.0485,-4.0485,-4.0485,-4.0597,-4.0849,-4.1001,-4.1393,-4.1997,-4.2221,-4.24,-4.2634,-4.2056,-4.1955,-4.2382,-4.232,-4.2675,-4.3355,-4.3266,-4.3369,-4.3568,-4.3505,-4.3471,-4.3487,-4.3758,-4.3809,-4.3828,-4.4135,-4.4226,-4.4121,-4.3606,-4.2917,-4.2172,-4.1696,-4.1353,-4.0996,-4.0147,-3.9919,-3.9858,-3.9458,-3.9294,-3.9242,-3.9216,-3.9294,-3.9371,-3.9371,-3.9389,-3.9439,-3.9705,-3.9566,-3.932,-3.9313,-3.9154,-3.9119,-3.9272,-3.9272,-3.9324,-3.9556,-3.9647,-3.9804,-4.0099,-4.0177,-4.0283,-4.0538,-4.0682,-4.0785,-4.0887,-4.0859,-4.0781,-4.0704,-4.0599,-4.048,-4.0348,-4.012,-3.9962,-3.9897,-3.9358,-3.9072,-3.899,-3.8566,-3.8319,-3.8172,-3.8044,-3.8249,-3.878,-3.8609,-3.8515,-3.8469,-3.834,-3.8223,-3.8052,-3.7951,-3.781,-3.7703,-3.7613,-3.7466,-3.7203,-3.6851,-3.6502,-3.6182]},{"header":{"parameterUnit":"m.s-1","parameterCategory":1,"la1":30.6,"la2":28.766,"lo1":-90.7593,"lo2":-88.6598,"dy":0.0162,"dx":0.0183,"nx":116,"ny":114,"refTime":"2023-08-22T12:00:00:Z","depth":0,"parameterNumber":3,"parameterNumberName":"V-component_of_WINDS"},"data":[0.0,0.0,0.0,0.0,0.0,0.0,0.0,0.0,0.0,0.0,0.0,0.0,0.0,0.0,0.0,0.0,0.0,0.0,0.0,0.0,0.0,0.0,0.0,0.0,0.0,0.0,0.0,0.0,0.0,0.0,0.0,0.0,0.0,0.0,0.0,0.0,0.0,0.0,0.0,0.0,0.0,0.0,0.0,0.0,0.0,0.0,0.0,0.0,0.0,0.0,0.0,0.0,0.0,0.0,0.0,0.0,0.0,0.0,0.0,0.0,0.0,0.0,0.0,0.0,0.0,0.0,0.0,0.0,0.0,0.0,0.0,0.0,0.0,0.0,0.0,0.0,0.0,0.0,0.0,0.0,0.0,0.0,0.0,0.0,0.0,0.0,0.0,0.0,0.0,0.0,0.0,0.0,0.0,0.0,0.0,0.0,0.0,0.0,0.0,0.0,0.0,0.0,0.0,0.0,0.0,0.0,0.0,0.0,0.0,0.0,0.0,0.0,0.0,0.0,0.0,0.0,0.0,0.0,0.0,0.0,0.0,0.0,0.0,0.0,0.0,0.0,0.0,0.0,0.0,0.0,0.0,0.0,0.0,0.0,0.0,0.0,0.0,0.0,0.0,0.0,0.0,0.0,0.0,0.0,0.0,0.0,0.0,0.0,0.0,0.0,0.0,0.0,0.0,0.0,0.0,0.0,0.0,0.0,0.0,0.0,0.0,0.0,0.0,0.0,0.0,0.0,0.0,0.0,0.0,0.0,0.0,0.0,0.0,0.0,0.0,0.0,0.0,0.0,0.0,0.0,0.0,0.0,0.0,0.0,0.0,0.0,0.0,0.0,0.0,0.0,0.0,0.0,0.0,0.0,0.0,0.0,0.0,0.0,0.0,0.0,0.0,0.0,0.0,0.0,0.0,0.0,0.0,0.0,0.0,0.0,0.0,0.0,0.0,0.0,0.0,0.0,0.0,0.0,0.0,0.0,0.0,0.0,0.0,0.0,0.0,0.0,0.0,0.0,0.0,0.0,0.0,0.0,0.0,0.0,0.0,0.0,0.0,0.0,0.0,0.0,0.0,0.0,0.0,0.0,0.0,0.0,0.0,0.0,0.0,0.0,0.0,0.0,0.0,0.0,0.0,0.0,0.0,0.0,0.0,0.0,0.0,0.0,0.0,0.0,0.0,0.0,0.0,0.0,0.0,0.0,0.0,0.0,0.0,0.0,0.0,0.0,0.0,0.0,0.0,0.0,0.0,0.0,0.0,0.0,0.0,0.0,0.0,0.0,0.0,0.0,0.0,0.0,0.0,0.0,0.0,0.0,0.0,0.0,0.0,0.0,0.0,0.0,0.0,0.0,0.0,0.0,0.0,0.0,0.0,0.0,0.0,0.0,0.0,0.0,0.0,0.0,0.0,0.0,0.0,0.0,0.0,0.0,0.0,0.0,0.0,0.0,0.0,0.0,0.0,0.0,0.0,0.0,0.0,0.0,0.0,0.0,0.0,0.0,0.0,0.0,0.0,0.0,0.0,0.0,0.0,0.0,0.0,0.0,0.0,0.0,0.0,0.0,0.0,0.0,0.0,0.0,0.0,0.0,0.0,0.0,0.0,0.0,0.0,0.0,0.0,0.0,0.0,0.0,0.0,0.0,0.0,0.0,0.0,0.0,0.0,0.0,0.0,0.0,0.0,0.0,0.0,0.0,0.0,0.0,0.0,0.0,0.0,0.0,0.0,0.0,0.0,0.0,0.0,0.0,0.0,0.0,0.0,0.0,0.0,0.0,0.0,0.0,0.0,0.0,0.0,0.0,0.0,0.0,0.0,0.0,0.0,0.0,0.0,0.0,0.0,0.0,0.0,0.0,0.0,0.0,0.0,0.0,0.0,0.0,0.0,0.0,0.0,0.0,0.0,0.0,0.0,0.0,0.0,0.0,0.0,0.0,0.0,0.0,0.0,0.0,0.0,0.0,0.0,0.0,0.0,0.0,0.0,0.0,0.0,0.0,0.0,0.0,0.0,0.0,0.0,0.0,0.0,0.0,0.0,0.0,0.0,0.0,0.0,0.0,0.0,0.0,0.0,0.0,0.0,0.0,0.0,0.0,0.0,0.0,0.0,0.0,0.0,0.0,0.0,0.0,0.0,0.0,0.0,0.0,0.0,0.0,0.0,0.0,0.0,0.0,0.0,0.0,0.0,0.0,0.0,0.0,0.0,0.0,0.0,0.0,0.0,0.0,0.0,0.0,0.0,0.0,0.0,0.0,0.0,0.0,0.0,0.0,0.0,0.0,0.0,0.0,0.0,0.0,0.0,0.0,0.0,0.0,0.0,0.0,0.0,0.0,0.0,0.0,0.0,0.0,0.0,0.0,0.0,0.0,0.0,0.0,0.0,0.0,0.0,0.0,0.0,0.0,0.0,0.0,0.0,0.0,0.0,0.0,0.0,0.0,0.0,0.0,0.0,0.0,0.0,0.0,0.0,0.0,0.0,0.0,0.0,0.0,0.0,0.0,0.0,0.0,0.0,0.0,0.0,0.0,0.0,0.0,0.0,0.0,0.0,0.0,0.0,0.0,0.0,0.0,0.0,0.0,0.0,0.0,0.0,0.0,0.0,0.0,0.0,0.0,0.0,0.0,0.0,0.0,0.0,0.0,0.0,0.0,0.0,0.0,0.0,0.0,0.0,0.0,0.0,0.0,0.0,0.0,0.0,0.0,0.0,0.0,0.0,0.0,0.0,0.0,0.0,0.0,0.0,0.0,0.0,0.0,0.0,0.0,0.0,0.0,0.0,0.0,0.0,0.0,0.0,0.0,0.0,0.0,0.0,0.0,0.0,0.0,0.0,0.0,0.0,0.0,0.0,0.0,0.0,0.0,0.0,0.0,0.0,0.0,0.0,0.0,0.0,0.0,0.0,0.0,0.0,0.0,0.0,0.0,0.0,0.0,0.0,0.0,0.0,0.0,0.0,0.0,0.0,0.0,0.0,0.0,0.0,0.0,0.0,0.0,0.0,0.0,0.0,0.0,0.0,0.0,0.0,0.0,0.0,0.0,0.0,0.0,0.0,0.0,0.0,0.0,0.0,0.0,0.0,0.0,0.0,0.0,0.0,0.0,0.0,0.0,0.0,0.0,0.0,0.0,0.0,0.0,0.0,0.0,0.0,0.0,0.0,0.0,0.0,0.0,0.0,0.0,0.0,0.0,0.0,0.0,0.0,0.0,0.0,0.0,0.0,0.0,0.0,0.0,0.0,0.0,0.0,0.0,0.0,0.0,0.0,0.0,0.0,0.0,0.0,0.0,0.0,0.0,0.0,0.0,0.0,0.0,0.0,0.0,0.0,0.0,0.0,0.0,0.0,0.0,0.0,0.0,0.0,0.0,0.0,0.0,0.0,0.0,0.0,0.0,0.0,0.0,0.0,0.0,0.0,0.0,0.0,0.0,0.0,0.0,0.0,0.0,0.0,0.0,0.0,0.0,0.0,0.0,0.0,0.0,0.0,0.0,0.0,0.0,0.0,0.0,0.0,0.0,0.0,0.0,0.0,0.0,0.0,0.0,0.0,0.0,0.0,0.0,0.0,0.0,0.0,0.0,0.0,0.0,0.0,0.0,0.0,0.0,0.0,0.0,0.0,0.0,0.0,0.0,0.0,0.0,0.0,0.0,0.0,0.0,0.0,0.0,0.0,0.0,0.0,0.0,0.0,0.0,0.0,0.0,0.0,0.0,0.0,0.0,0.0,0.0,0.0,0.0,0.0,0.0,0.0,0.0,0.0,0.0,0.0,0.0,0.0,0.0,0.0,0.0,0.0,0.0,0.0,0.0,0.0,0.0,0.0,0.0,0.0,0.0,0.0,0.0,0.0,0.0,0.0,0.0,0.0,0.0,0.0,0.0,0.0,0.0,0.0,0.0,0.0,0.0,0.0,0.0,0.0,0.0,0.0,0.0,0.0,0.0,0.0,0.0,0.0,0.0,0.0,0.0,0.0,0.0,0.0,0.0,0.0,0.0,0.0,0.0,0.0,0.0,0.0,0.0,0.0,0.0,0.0,0.0,0.0,0.0,0.0,0.0,0.0,0.0,0.0,0.0,0.0,0.0,0.0,0.0,0.0,0.0,0.0,0.0,0.0,0.0,0.0,0.0,0.0,0.0,0.0,0.0,0.0,0.0,0.0,0.0,0.0,0.0,0.0,0.0,0.0,0.0,0.0,0.0,0.0,0.0,0.0,0.0,0.0,0.0,0.0,0.0,0.0,0.0,0.0,0.0,0.0,0.0,0.0,0.0,0.0,0.0,0.0,0.0,0.0,0.0,0.0,0.0,0.0,0.0,0.0,0.0,0.0,0.0,0.0,0.0,0.0,0.0,0.0,0.0,0.0,0.0,0.0,0.0,0.0,0.0,0.0,0.0,0.0,0.0,0.0,0.0,0.0,0.0,0.0,0.0,0.0,0.0,0.0,0.0,0.0,0.0,0.0,0.0,0.0,0.0,0.0,0.0,0.0,0.0,0.0,0.0,0.0,0.0,0.0,0.0,0.0,0.0,0.0,0.0,0.0,0.0,0.0,0.0,0.0,0.0,0.0,0.0,0.0,0.0,0.0,0.0,0.0,0.0,0.0,0.0,0.0,0.0,0.0,0.0,0.0,0.0,0.0,0.0,0.0,0.0,0.0,0.0,0.0,0.0,0.0,0.0,0.0,0.0,0.0,0.0,0.0,0.0,0.0,0.0,0.0,0.0,0.0,0.0,0.0,0.0,0.0,0.0,0.0,0.0,0.0,0.0,0.0,0.0,0.0,0.0,0.0,0.0,0.0,0.0,0.0,0.0,0.0,0.0,0.0,0.0,0.0,0.0,0.0,0.0,0.0,0.0,0.0,0.0,0.0,0.0,0.0,0.0,0.0,0.0,0.0,0.0,0.0,0.0,0.0,0.0,0.0,0.0,0.0,0.0,0.0,0.0,0.0,0.0,0.0,0.0,0.0,0.0,0.0,0.0,0.0,0.0,0.0,0.0,0.0,0.0,0.0,0.0,0.0,0.0,0.0,0.0,0.0,0.0,0.0,0.0,0.0,0.0,0.0,0.0,0.0,0.0,0.0,0.0,0.0,0.0,0.0,0.0,0.0,0.0,0.0,0.0,0.0,0.0,0.0,0.0,0.0,0.0,0.0,0.0,0.0,0.0,0.0,0.0,0.0,0.0,0.0,0.0,0.0,0.0,0.0,0.0,0.0,0.0,0.0,0.0,0.0,0.0,0.0,0.0,0.0,0.0,0.0,0.0,0.0,0.0,0.0,0.0,0.0,0.0,0.0,0.0,0.0,0.0,0.0,0.0,0.0,0.0,0.0,0.0,0.0,0.0,0.0,0.0,0.0,0.0,0.0,0.0,0.0,0.0,0.0,0.0,0.0,0.0,0.0,0.0,0.0,0.0,0.0,0.0,0.0,0.0,0.0,0.0,0.0,0.0,0.0,0.0,0.0,0.0,0.0,0.0,0.0,0.0,0.0,0.0,0.0,0.0,0.0,0.0,0.0,0.0,0.0,0.0,0.0,0.0,0.0,0.0,0.0,0.0,0.0,0.0,0.0,0.0,0.0,0.0,0.0,0.0,0.0,0.0,0.0,0.0,0.0,0.0,0.0,0.0,0.0,0.0,0.0,0.0,0.0,0.0,0.0,0.0,0.0,0.0,0.0,0.0,0.0,0.0,0.0,0.0,0.0,0.0,0.0,0.0,0.0,0.0,0.0,0.0,0.0,0.0,0.0,0.0,0.0,0.0,0.0,0.0,0.0,0.0,0.0,0.0,0.0,0.0,0.0,0.0,0.0,0.0,0.0,0.0,0.0,0.0,0.0,0.0,0.0,0.0,0.0,0.0,0.0,0.0,0.0,0.0,0.0,0.0,0.0,0.0,0.0,0.0,0.0,0.0,0.0,0.0,0.0,0.0,0.0,0.0,0.0,0.0,0.0,0.0,0.0,0.0,0.0,0.0,0.0,0.0,0.0,0.0,0.0,0.0,0.0,0.0,0.0,0.0,0.0,0.0,0.0,0.0,0.0,0.0,0.0,0.0,0.0,0.0,0.0,0.0,0.0,0.0,0.0,0.0,0.0,0.0,0.0,0.0,0.0,0.0,-1.8835,0.0,0.0,0.0,0.0,0.0,0.0,0.0,0.0,0.0,0.0,0.0,0.0,0.0,0.0,0.0,0.0,0.0,0.0,0.0,0.0,0.0,0.0,0.0,0.0,0.0,0.0,0.0,0.0,0.0,0.0,0.0,0.0,0.0,0.0,0.0,0.0,0.0,0.0,0.0,2.8131,2.6124,2.4638,2.3501,2.1621,1.9265,0.0,0.0,0.0,0.0,0.0,0.0,0.0,0.0,0.0,0.0,0.0,0.0,0.0,0.0,0.0,0.0,0.0,0.0,0.0,0.0,0.0,0.0,0.0,0.0,0.0,0.0,0.0,0.0,0.0,0.0,0.0,0.0,0.0,0.0,0.0,0.0,0.0,0.0,0.0,0.0,0.0,0.0,0.0,0.0,0.0,0.0,0.0,0.0,0.0,0.0,0.0,0.0,0.0,0.0,0.0,0.0,0.0,0.0,0.0,0.0,0.0,0.0,0.0,0.0,0.0,0.0,0.0,0.0,0.0,0.0,0.0,-1.9004,0.0,0.0,0.0,0.0,0.0,0.0,0.0,0.0,0.0,0.0,0.0,0.0,0.0,0.0,0.0,0.0,0.0,0.0,0.0,0.0,0.0,0.0,0.0,0.0,0.0,0.0,0.0,0.0,0.0,0.0,0.0,0.0,0.0,0.0,0.0,3.6901,3.4543,3.1216,2.8864,2.6816,2.5285,2.5115,2.3404,2.0523,1.9911,0.0,0.0,0.0,0.0,0.0,0.0,0.0,0.0,0.0,0.0,0.0,0.0,0.0,0.0,0.0,0.0,0.0,0.0,0.0,0.0,0.0,0.0,0.0,0.0,0.0,0.0,0.0,0.0,0.0,0.0,0.0,0.0,0.0,0.0,0.0,0.0,0.0,0.0,0.0,0.0,0.0,0.0,0.0,0.0,0.0,0.0,0.0,0.0,0.0,0.0,0.0,0.0,0.0,0.0,0.0,0.0,0.0,0.0,0.0,0.0,0.0,0.0,0.0,0.0,-1.7468,-1.9279,-1.8696,-1.8896,-1.9671,-1.9471,-1.9371,-1.9279,0.0,0.0,0.0,0.0,0.0,0.0,0.0,0.0,0.0,0.0,0.0,0.0,0.0,0.0,0.0,0.0,0.0,0.0,0.0,0.0,0.0,0.0,0.0,0.0,0.0,0.0,0.0,0.0,0.0,0.0,0.0,0.0,0.0,0.0,3.6611,3.3681,3.2105,2.7882,2.5724,2.5454,2.47,2.4433,2.4607,2.2872,2.1748,2.1154,0.0,0.0,0.0,0.0,0.0,0.0,0.0,0.0,0.0,0.0,0.0,0.0,0.0,0.0,0.0,0.0,0.0,0.0,0.0,0.0,0.0,0.0,0.0,0.0,0.0,0.0,0.0,0.0,0.0,0.0,0.0,0.0,0.0,0.0,0.0,0.0,0.0,0.0,0.0,0.0,0.0,-0.2937,-0.3308,0.0,0.0,0.0,0.0,0.0,0.0,0.0,0.0,0.0,0.0,0.0,0.0,0.0,0.0,-1.4555,-1.4937,-1.5981,-1.7692,-1.794,-1.8596,-1.9546,-1.9828,-2.0102,-2.0201,-2.0201,0.0,-1.9745,-1.9579,0.0,0.0,0.0,0.0,0.0,0.0,0.0,0.0,0.0,0.0,0.0,0.0,0.0,0.0,0.0,0.0,0.0,0.0,0.0,0.0,0.0,0.0,0.0,0.0,0.0,0.0,0.0,0.0,0.0,0.0,0.0,4.2949,4.1286,3.8027,3.4196,2.9744,2.7301,2.5997,2.5863,2.5863,2.5946,2.5986,2.4503,2.3273,2.2269,2.1322,0.0,0.0,0.0,0.0,0.0,0.0,0.0,0.0,0.0,0.0,0.0,0.0,0.0,0.0,0.0,0.0,0.0,0.0,0.0,0.0,0.0,0.0,0.0,0.0,0.0,0.0,0.0,0.0,0.0,0.0,0.0,0.0,0.0,0.0,0.0,0.0,0.0,0.0,0.0,-0.123,-0.3393,-0.3877,-0.5701,-0.6793,0.0,0.0,0.0,0.0,0.0,0.0,0.0,0.0,0.0,-1.3152,-1.4094,-1.4752,-1.5026,-1.6445,-1.7576,-1.8334,-1.9072,-1.9629,-2.0011,-2.0201,-2.0292,-2.0292,-2.0473,-2.0555,-2.0464,-2.0119,-2.0019,-2.0011,0.0,0.0,0.0,0.0,0.0,-2.5221,0.0,0.0,0.0,0.0,0.0,0.0,0.0,0.0,0.0,0.0,0.0,0.0,0.0,0.0,0.0,4.5781,0.0,0.0,0.0,0.0,0.0,0.0,0.0,4.3295,4.1011,3.7645,3.3127,2.7392,2.6651,2.6246,2.6279,2.6846,2.6928,2.6648,2.5633,2.4467,2.3241,2.2511,2.1747,2.0961,0.0,0.0,0.0,0.0,0.0,0.0,0.0,0.0,0.0,0.0,0.0,0.0,0.0,0.0,0.0,0.0,0.0,0.0,0.0,0.0,0.0,0.0,0.0,0.0,0.0,0.0,0.0,0.0,0.0,0.0,0.0,0.0,0.0,0.0,0.0,0.0,0.0,-0.1629,-0.3568,-0.4058,-0.6173,-0.7469,0.0,0.0,0.0,0.0,0.0,0.0,-1.3077,-1.3255,-1.3443,-1.3642,-1.4567,-1.5222,-1.5501,-1.7196,-1.8133,-1.8419,-1.9446,-1.9911,-1.9911,-2.0201,-2.0292,-2.0292,-2.0564,-2.0826,-2.0997,-2.0645,-2.0645,-2.0817,-2.0817,-2.1863,0.0,-2.3521,-2.4573,-2.5895,0.0,0.0,0.0,0.0,0.0,0.0,0.0,0.0,0.0,0.0,0.0,0.0,0.0,0.0,4.5227,4.5318,4.5437,4.5531,0.0,0.0,0.0,4.5414,4.3438,4.1598,3.9998,3.3519,2.8839,2.6257,2.583,2.583,2.6528,2.6741,2.6905,2.7139,2.6418,2.5558,2.4401,2.2906,2.2947,2.3818,2.2627,0.0,0.0,0.0,0.0,0.0,0.0,0.0,0.0,0.0,0.0,0.0,0.0,0.0,0.0,0.0,0.0,0.0,0.0,0.0,0.0,0.0,0.0,0.0,0.0,0.0,0.0,0.0,0.0,0.0,0.0,0.0,0.0,0.0,0.0,0.0,0.0,0.0,0.0,-0.3316,-0.6387,0.0,0.0,0.0,0.0,-1.1965,-1.2058,-1.2155,-1.2446,-1.334,-1.3835,-1.3835,-1.4208,-1.4765,-1.5798,-1.5886,-1.6452,-1.7382,-1.8411,-1.8888,-1.8888,-1.982,-2.0292,-2.0292,-2.0564,-2.0826,-2.0997,-2.0988,-2.1516,-2.2306,-2.2306,-2.3153,-2.4341,-2.4607,-2.5253,-2.599,0.0,0.0,0.0,0.0,0.0,0.0,0.0,0.0,0.0,0.0,0.0,0.0,0.0,4.48,4.4729,4.4844,4.4999,4.5228,4.5471,0.0,0.0,4.5463,4.4118,4.1045,3.6166,3.1972,2.868,2.6351,2.6517,2.6917,2.7568,2.7891,2.8211,2.8414,2.7693,2.7164,2.6692,2.468,2.4302,2.4838,2.399,2.3385,0.0,0.0,0.0,0.0,0.0,0.0,0.0,0.0,0.0,0.0,0.0,0.0,0.0,0.0,0.0,0.0,0.0,0.0,0.0,0.0,0.0,0.0,0.0,0.0,0.0,0.0,0.0,0.0,0.0,0.0,0.0,0.0,0.0,0.0,0.0,0.0,0.0,-0.3458,-0.5785,0.0,0.0,-0.9304,-1.0489,-1.0979,-1.2355,-1.3238,-1.334,-1.3823,-1.4208,-1.4208,-1.4298,-1.4484,-1.486,-1.6375,-1.7325,-1.7713,-1.9549,-2.0429,-2.0523,-2.0814,-2.1011,-2.1011,-2.148,-2.176,-2.1751,-2.2131,-2.2108,-2.198,-2.257,-2.369,-2.4979,-2.569,-2.6678,-2.7748,0.0,0.0,0.0,0.0,0.0,0.0,0.0,0.0,0.0,0.0,0.0,4.4953,4.4895,4.4681,4.4619,4.4787,4.493,4.5009,4.4949,0.0,0.0,4.4189,4.2134,3.8473,3.3115,3.048,2.8427,2.6846,2.7174,2.7487,2.781,2.8621,2.8779,2.8359,2.8439,2.8276,2.7717,2.6689,2.6226,2.6164,2.5681,2.5085,2.4472,0.0,0.0,0.0,0.0,0.0,0.0,0.0,0.0,0.0,0.0,0.0,0.0,0.0,0.0,0.0,0.0,0.0,0.0,0.0,0.0,0.0,0.0,0.0,0.0,0.0,0.0,0.0,0.0,0.0,0.0,0.0,0.0,0.0,0.0,0.0,-0.3323,-0.3422,-0.5829,-0.7534,-0.7726,-0.9797,-1.1072,-1.117,-1.2937,-1.4022,-1.4022,-1.4208,-1.4298,-1.4298,-1.4389,-1.4437,-1.4437,-1.6155,-1.7176,-1.7566,-1.9435,-2.0523,-2.0916,-2.1213,-2.1413,-2.1596,-2.1986,-2.2262,-2.2366,-2.2753,-2.2546,-2.2235,-2.3099,-2.4492,-2.5908,-2.6541,-2.7629,-2.8786,0.0,0.0,0.0,0.0,0.0,0.0,0.0,0.0,0.0,0.0,4.5225,4.5106,4.5106,4.4924,4.4909,4.5126,4.5209,4.4889,4.4085,4.4334,0.0,4.1434,3.7283,3.3815,3.1183,2.8946,2.7637,2.7464,2.7476,2.7313,2.7151,2.8609,2.8474,2.7033,2.8719,2.8711,2.7607,2.8871,2.8785,2.7868,2.7776,2.7206,2.6327,0.0,0.0,0.0,0.0,0.0,0.0,0.0,0.0,0.0,0.0,0.0,0.0,0.0,0.0,0.0,0.0,0.0,0.0,0.0,0.0,0.0,0.0,0.0,0.0,0.0,0.0,0.0,0.0,0.0,0.0,0.0,0.0,0.0,0.2521,-0.1006,-0.3522,-0.3224,-0.6523,-0.8718,-0.8806,-1.097,-1.2441,-1.2635,-1.3709,-1.4298,-1.4298,-1.4298,-1.4298,-1.431,-1.4576,-1.4721,-1.4733,-1.4986,-1.5714,-1.6893,-1.7896,-1.8981,-2.0055,-2.1046,-2.1639,-2.1831,-2.2108,-2.2402,-2.2686,-2.2893,-2.2902,-2.2988,-2.3951,-2.5482,-2.7216,-2.7216,-2.7843,-2.8907,0.0,0.0,0.0,0.0,0.0,0.0,0.0,0.0,0.0,0.0,4.5387,4.5187,4.525,4.5192,4.4887,4.4171,4.372,4.3205,4.2557,0.0,3.9743,3.7861,3.5326,3.27,3.0018,2.8179,2.6778,2.5797,2.6329,2.6577,2.6625,2.7395,2.8063,2.853,2.8819,2.9151,2.9606,2.9784,2.9807,2.9758,2.9485,2.9038,2.8478,0.0,0.0,0.0,0.0,0.0,0.0,0.0,0.0,0.0,0.0,0.0,0.0,0.0,0.0,0.0,0.0,0.0,0.0,0.0,0.0,0.0,0.0,0.0,0.0,0.0,0.0,0.0,0.0,0.0,0.0,0.0,0.0,0.3618,0.282,-0.0805,-0.3323,-0.3521,-0.5927,-0.8028,-0.9015,-1.0583,-1.1853,-1.2635,-1.3709,-1.4298,-1.4298,-1.4298,-1.4389,-1.4594,-1.4678,-1.4805,-1.4998,-1.6056,-1.7204,-1.8225,-1.976,-2.1094,-2.2119,-2.2624,-2.2929,-2.3028,-2.3225,-2.3421,-2.3519,-2.3724,-2.3822,-2.3855,-2.4181,-2.5309,-2.689,-2.7525,-2.8656,-2.988,0.0,0.0,0.0,0.0,0.0,0.0,0.0,0.0,0.0,0.0,4.4869,4.4509,4.4738,4.4753,4.4233,4.2972,4.2364,4.1435,3.9983,0.0,3.6229,3.4675,3.2493,3.0241,2.7951,2.6549,2.5587,2.5072,2.5546,2.5891,2.6284,2.6812,2.7325,2.7879,2.8664,2.916,2.9459,3.0602,3.0796,3.0381,3.1139,3.0713,2.9594,2.9676,2.887,2.7762,2.7788,2.7233,2.6481,2.6289,0.0,0.0,0.0,0.0,0.0,0.0,0.0,0.0,0.0,0.0,0.0,0.0,0.0,0.0,0.0,0.0,0.0,0.0,0.0,0.0,0.0,0.0,0.0,0.0,0.6318,0.432,0.3122,-0.0604,-0.3224,-0.3422,-0.5629,-0.7534,-0.8326,-0.9702,-1.0974,-1.195,-1.3022,-1.3806,-1.4298,-1.4413,-1.4552,-1.4708,-1.4932,-1.5119,-1.527,-1.6141,-1.7204,-1.8348,-1.9243,-2.057,-2.2123,-2.2426,-2.2828,0.0,-2.3646,-2.3854,-2.3954,-2.4152,-2.4152,0.0,0.0,0.0,0.0,0.0,-2.9125,-3.0306,0.0,0.0,0.0,0.0,0.0,0.0,0.0,0.0,0.0,0.0,0.0,4.3134,4.3588,4.3615,4.296,4.1444,4.0679,3.9132,0.0,3.4333,3.2701,3.1475,2.9151,2.7115,2.5362,2.4374,2.4139,2.4587,2.4745,2.5115,2.5786,2.6224,2.6329,2.6268,2.8119,2.8655,2.8268,3.0926,3.1411,3.06,3.2333,3.1901,3.0133,3.0208,2.9676,2.8975,2.903,2.8671,2.8088,2.7998,0.0,0.0,0.0,0.0,0.0,0.0,0.0,0.0,0.0,0.0,0.0,0.0,0.0,0.0,0.0,0.0,0.0,0.0,0.0,0.0,0.0,0.0,0.0,0.0,0.6716,0.5022,0.3423,-0.0302,-0.292,-0.3123,-0.5429,-0.7036,-0.7335,-0.8718,-1.0096,-1.1268,-1.2145,-1.3216,-1.4196,0.0,0.0,0.0,0.0,-1.5511,-1.5541,-1.5771,-1.6418,-1.7582,-1.7582,-1.8819,-2.0987,-2.1285,-2.2106,-2.3447,-2.3755,-2.3954,-2.4152,-2.4152,-2.4152,-2.4251,-2.444,-2.5109,-2.6071,-2.8154,-2.9463,0.0,0.0,0.0,0.0,0.0,0.0,0.0,0.0,0.0,0.0,4.071,4.0528,4.0637,4.1399,4.1202,4.0445,3.8995,3.712,3.431,3.0247,2.9173,2.8239,2.7191,2.6052,2.4881,2.3872,2.2853,2.2347,2.2366,2.2726,2.3173,2.3724,2.4155,2.4914,2.5913,2.6152,2.7383,2.9362,2.9114,3.0326,3.2377,3.1424,3.1047,3.1087,3.1437,3.1204,3.0628,3.0628,3.0222,2.9614,2.9552,2.873,2.7788,2.8145,2.7403,0.0,0.0,0.0,0.0,0.0,0.0,0.0,0.0,0.0,0.0,0.0,0.0,0.0,0.0,0.0,0.0,0.0,0.0,0.0,0.9003,0.7143,0.532,0.3423,0.1006,-0.1308,-0.3021,-0.4628,-0.6229,-0.8018,-0.8817,-1.0096,-1.195,-1.2436,-1.3216,-1.4196,-1.4564,0.0,-1.5028,-1.5336,-1.5602,-1.5813,-1.5861,-1.6418,-1.7582,0.0,0.0,-2.1285,-2.1684,-2.261,-2.3755,-2.4053,-2.4152,-2.4152,-2.4152,-2.4152,-2.4341,-2.5954,-2.6713,-2.7189,-2.9176,-3.0023,-3.0216,0.0,0.0,0.0,0.0,0.0,0.0,0.0,0.0,0.0,0.0,3.7351,3.7161,3.7611,3.7455,3.6734,3.5252,3.2796,3.011,2.7213,2.692,2.6477,2.5573,2.4567,2.3345,2.1994,2.1569,2.1051,2.061,2.1069,2.1606,2.2217,2.2668,2.3434,2.4522,2.563,2.6964,2.8311,2.9492,3.1043,3.2758,3.2811,3.2856,3.2869,3.2655,3.2422,3.2145,3.2018,3.1804,3.1489,3.1028,3.0459,2.9946,2.9873,2.9442,2.8786,0.0,0.0,0.0,0.0,0.0,0.0,0.0,0.0,0.0,0.0,0.0,0.0,0.0,0.0,1.6541,0.0,0.0,1.1879,1.0329,0.855,0.6719,0.4822,0.2916,0.0402,-0.282,-0.4427,-0.5829,-0.7431,-0.7928,-0.911,-1.1365,-1.1658,-1.2538,-1.4196,-1.4564,-1.4835,-1.5101,-1.536,-1.5626,-1.5885,-1.5891,-1.6205,-1.6736,-1.6942,-1.7877,-1.9435,-2.0451,-2.1582,-2.282,-2.3646,-2.4053,-2.4152,-2.4152,-2.4152,-2.444,-2.6426,-2.7189,-2.7379,-2.8899,-2.9749,-3.0216,0.0,0.0,0.0,0.0,0.0,0.0,0.0,0.0,0.0,0.0,3.3388,3.2851,3.2982,3.2917,3.2169,0.0,2.8015,2.6025,2.487,2.4999,2.477,2.4053,2.2998,2.1692,2.0232,2.0068,1.9712,1.9255,1.9729,2.0348,2.1025,2.1489,2.211,2.2882,2.502,2.6295,2.6942,2.9859,3.1768,3.2863,3.4259,3.4911,3.4952,3.4181,3.363,3.3271,3.3171,3.3187,3.3145,3.2585,3.2307,3.2169,3.1769,3.1645,3.1194,2.9267,2.9513,0.0,0.0,0.0,0.0,0.0,0.0,0.0,0.0,0.0,2.1579,1.9877,1.8937,1.7827,1.6071,1.4627,1.3137,1.1477,0.9964,0.8219,0.6315,0.4422,0.1811,-0.2114,-0.3924,-0.5331,-0.6642,-0.6939,-0.8024,-1.019,-1.0583,-1.1755,-1.3806,-1.4362,-1.4835,-1.5101,-1.536,-1.5626,-1.5885,-1.5891,-1.5891,-1.5891,-1.5891,-1.6524,-1.7687,-1.902,-2.0349,-2.1684,-2.3129,-2.3954,-2.4152,-2.4152,-2.4152,-2.4341,-2.6244,-2.6999,-2.7379,-2.8527,-2.9463,-3.0216,0.0,0.0,0.0,0.0,0.0,0.0,0.0,0.0,0.0,0.0,0.0,0.0,0.0,0.0,0.0,2.4545,2.2959,2.1849,2.1244,2.0604,2.0262,2.0141,1.9613,1.908,1.8703,1.7971,1.787,1.8126,1.8696,1.933,2.0034,2.052,2.1159,2.1863,2.2726,2.4395,2.6524,2.8203,3.0795,3.3753,3.3827,3.5018,3.6786,3.6486,3.5259,3.3671,3.4039,3.3806,3.3407,3.4465,3.413,3.3571,3.5015,3.4364,3.2761,3.11,3.0292,2.9402,2.7005,2.6689,2.6688,2.5608,2.5253,2.487,0.0,0.0,2.1655,1.9983,1.8877,1.7731,1.6109,1.4924,1.3538,1.1622,1.0263,0.8707,0.6315,0.4422,0.2315,-0.0101,-0.2213,-0.4227,-0.6237,-0.6639,-0.7335,-0.8612,-0.9993,-1.1268,-1.2436,-1.3866,-1.4835,-1.5101,-1.536,-1.5626,-1.5885,-1.5891,-1.5891,-1.5891,-1.5891,-1.6524,-1.7687,-1.902,-2.0254,-2.1489,-2.3129,-2.3954,-2.4152,-2.4152,-2.4152,-2.435,-2.5401,-2.6436,-2.7474,-2.936,-3.0114,-3.0216,0.0,0.0,0.0,0.0,0.0,0.0,0.0,0.0,0.0,0.0,0.0,0.0,0.0,0.0,0.0,2.1101,2.0702,2.0313,1.9791,1.9181,1.8948,1.9015,1.8295,1.7561,1.6807,1.6532,1.6539,1.6929,1.7016,1.7483,1.8241,1.8788,1.9513,2.052,2.1808,2.3537,2.543,2.7521,3.0123,3.2807,3.3648,3.5247,3.7171,3.7387,3.692,3.6056,3.5112,3.4414,0.0,3.4595,3.4318,3.4057,3.6022,3.5509,3.3871,3.2454,3.1539,0.0,2.9227,2.8357,0.0,0.0,2.6487,2.578,2.4712,2.3771,2.2778,2.1463,2.0465,1.9487,1.8213,1.6338,1.4659,0.0,1.1385,0.9209,0.8209,0.522,0.2618,0.1105,-0.1006,-0.3122,-0.5233,-0.6137,-0.7033,-0.8315,-0.96,-1.0877,-1.2242,-1.3528,-1.441,-1.4871,-1.5137,-1.5396,-1.5656,-1.5813,-1.5891,-1.5891,-1.5891,-1.6099,-1.663,-1.8492,-2.0459,-2.2325,-2.3338,-2.3854,-2.3954,-2.4152,-2.4152,-2.4341,-2.5964,-2.6819,-2.7379,-2.8806,-2.9658,-3.0216,0.0,0.0,0.0,0.0,0.0,0.0,0.0,0.0,0.0,0.0,0.0,0.0,0.0,0.0,1.959,1.8193,1.8196,1.8319,1.8156,1.7756,1.7642,1.7895,1.7166,1.6425,1.5677,1.5481,1.5494,1.5527,1.5419,1.5615,1.6197,1.6727,1.7654,1.8696,2.0506,2.228,2.3998,2.6862,2.9428,3.168,3.3431,3.5269,3.6981,3.7475,3.756,3.7232,3.5929,3.5161,3.4719,3.4504,3.4097,3.3991,3.5664,3.5451,3.4224,3.2842,3.1717,3.0745,3.0277,0.0,0.0,2.8462,2.7699,2.6782,2.5945,2.4834,2.3703,2.3047,2.1943,2.0872,2.0158,1.7654,1.5697,1.5501,1.2415,0.9899,0.9706,0.6016,0.3019,0.2211,-0.0101,-0.2318,-0.413,-0.5334,-0.6531,-0.7723,-0.9209,-1.0485,-1.1658,-1.3044,-1.4152,-1.461,-1.4902,-1.5161,-1.5493,-1.5686,-1.5819,-1.5891,-1.5891,-1.5891,-1.5998,-1.8185,-2.057,-2.3046,-2.3456,-2.3746,-2.3854,-2.4053,-2.4152,-2.4341,-2.5761,-2.6713,-2.7284,-2.8049,-2.9095,-3.0306,0.0,0.0,0.0,0.0,0.0,0.0,0.0,0.0,0.0,0.0,0.0,0.0,0.0,0.0,1.5476,1.5126,1.4815,1.4878,1.5363,1.5322,1.5438,1.5906,1.5825,1.5724,1.5432,1.4949,1.4472,1.4004,1.4178,1.4262,1.3974,1.4435,1.5298,1.6372,1.8218,2.0176,2.2233,2.6035,2.8823,3.0829,3.3114,3.494,3.6353,3.6948,3.6626,3.5914,3.6321,3.5985,3.5256,3.4471,3.3761,3.3335,3.3997,3.4032,0.0,3.2053,2.9889,2.8093,2.8731,2.8664,2.8588,2.9308,2.8431,2.7452,2.7452,2.5735,2.4186,2.411,2.2589,2.1248,2.1239,1.8688,1.6386,1.5893,1.3,1.0583,1.0096,0.631,0.362,0.3519,0.0503,-0.2016,0.0,-0.423,-0.5336,-0.6337,-0.8612,-0.9998,-1.0096,-1.2457,-1.4049,-1.4307,-1.4523,-1.498,-1.5493,-1.5505,-1.5638,-1.5891,-1.5891,-1.5891,-1.5998,-1.8185,-2.057,-2.3046,-2.3247,-2.3546,-2.3854,-2.4053,-2.4152,-2.4251,-2.4251,-2.5479,-2.7189,-2.7189,-2.8516,-3.0216,0.0,0.0,0.0,0.0,0.0,0.0,0.0,0.0,0.0,0.0,0.0,0.0,0.0,0.0,0.0,0.0,1.387,1.4292,1.549,1.5315,1.5159,1.5248,1.5036,1.4564,1.3896,1.3619,1.3619,1.3902,1.3992,1.4088,1.419,1.4669,1.533,1.5967,1.7446,1.9356,2.1692,2.4152,2.6689,2.9247,3.0961,3.2905,3.4661,3.4497,3.479,3.5077,0.0,3.2798,3.2753,3.3044,3.2708,3.2457,3.4096,3.387,3.2617,3.1061,3.015,2.9621,2.9822,2.9861,2.9954,3.0258,2.9102,2.7855,2.7718,2.6257,2.4871,2.47,2.314,2.1631,2.0923,1.8512,1.6451,1.5624,1.2901,1.0783,1.0587,0.7307,0.4622,0.3922,0.2012,0.0,0.0,0.0,0.0,-0.6337,-0.8517,-0.9805,-0.9998,-1.2355,-1.3773,-1.406,-1.4427,-1.4805,-1.498,-1.5324,-1.5547,-1.5632,-1.5807,-1.6624,-1.808,-1.8812,-2.0467,-2.2745,-2.3247,-2.3447,-2.3555,-2.4053,-2.4152,-2.4251,-2.4922,-2.6061,-2.7284,-2.7955,-2.9084,-3.0216,0.0,0.0,0.0,0.0,0.0,0.0,0.0,0.0,0.0,0.0,0.0,0.0,0.0,0.0,0.0,0.0,0.0,1.3281,1.4387,1.4545,1.4666,1.4765,1.4455,1.4031,1.3385,1.3104,1.3065,1.3443,1.3435,1.3486,1.3588,1.4058,1.4663,1.5589,1.6438,1.8195,2.0666,2.2805,2.4808,2.6691,2.8857,3.0586,3.1943,3.1868,3.2211,0.0,3.07,3.0109,3.0289,3.1181,3.1191,3.1144,3.2961,3.2838,3.1901,3.0959,3.0557,3.0476,3.0856,3.0807,3.0751,3.0992,2.9614,2.8164,2.8016,2.6565,2.52,2.5031,2.3448,2.1845,2.0889,1.8306,1.6119,1.5693,1.3008,1.0964,1.1057,0.8259,0.562,0.4321,0.2917,0.1006,0.0,0.0,0.0,-0.6234,-0.8021,-0.9308,-0.9801,-1.1765,-1.3141,-1.3738,-1.4193,-1.452,-1.4714,-1.5052,-1.5312,-1.5499,-1.6076,-1.735,-1.9228,-1.9642,-2.0783,-2.2636,-2.2906,-2.3044,-2.3125,-2.3483,-2.3624,-2.3818,-2.4487,-2.532,-2.6329,-2.7271,-2.8291,-2.9364,0.0,0.0,0.0,0.0,0.0,0.0,0.0,0.0,0.0,0.0,0.0,0.0,0.0,0.0,0.0,0.0,0.0,0.0,1.2064,1.3042,1.3761,1.4268,1.4304,1.4195,1.393,1.3356,1.2949,1.27,1.2746,1.2576,1.2398,1.2597,1.3465,1.4905,1.5145,1.6729,1.9356,2.1766,2.2988,2.3691,2.6734,2.8126,2.8357,2.9241,2.9149,2.8549,2.834,2.8187,2.8178,2.9138,2.9474,2.9753,3.0794,3.1291,3.1515,3.1777,3.118,3.0653,3.1816,3.1527,3.098,3.1523,3.0063,2.8445,2.8457,2.6789,2.5274,2.5168,2.3588,2.1902,0.0,0.0,1.5718,1.5931,1.3344,1.1357,1.1427,0.9073,0.6512,0.0,0.0,0.0,0.0,0.0,0.0,-0.6134,0.0,-0.8517,-0.9509,-1.0877,-1.2155,-1.3443,-1.3738,-1.4152,-1.4696,-1.4708,-1.4974,-1.5475,-1.6594,-1.786,-1.9177,-2.0318,-2.1456,-2.2567,-2.2412,-2.2451,-2.2699,-2.2613,-2.2753,-2.2857,-2.2857,-2.3588,-2.4579,-2.5451,-2.6462,-2.769,0.0,0.0,0.0,0.0,0.0,0.0,0.0,0.0,0.0,0.0,0.0,0.0,0.0,0.0,0.0,0.0,0.0,0.0,1.2218,1.2973,1.3465,1.3738,1.4189,1.4267,1.3909,1.3532,1.3311,1.3054,1.3023,1.2774,1.2134,1.2564,1.3055,1.3609,1.4598,1.6378,1.8663,1.9531,2.1249,2.3398,2.4769,2.6019,2.6992,2.7485,2.7736,2.7779,2.7142,2.7051,2.7325,2.8252,2.9863,3.1703,3.3005,3.3434,3.3425,3.3124,3.2985,3.2962,3.2944,3.2885,3.2779,3.2318,3.0944,2.9628,2.9266,2.7614,2.6014,2.5333,2.3958,2.2195,0.0,0.0,0.0,1.5109,1.3023,0.0,1.1284,0.9276,0.0,0.4922,0.0,0.2714,-0.0302,-0.1913,0.0,0.0,-0.6825,-0.8517,-0.9509,-1.0877,-1.2058,-1.3147,-1.3642,-1.3966,-1.4128,-1.452,-1.4883,-1.5209,-1.5503,-1.6638,-1.8511,-1.881,-2.0008,-2.1696,-2.1891,-2.2136,-2.2318,-2.2497,-2.2753,-2.2857,-2.2857,-2.3588,-2.4579,-2.5451,-2.6462,-2.7602,0.0,0.0,0.0,0.0,0.0,0.0,0.0,0.0,0.0,0.0,0.0,0.0,0.0,0.0,0.0,0.0,0.0,0.0,0.0,1.2635,1.3295,1.3524,1.3866,1.3986,1.3737,1.3654,1.3473,1.3197,1.3401,1.3141,1.2349,1.3006,1.3507,1.3948,1.4488,1.5896,1.7731,1.8501,1.9658,0.0,0.0,2.3819,2.4405,2.5157,2.558,2.577,2.5678,2.6275,2.7341,2.8753,3.0764,3.2808,3.3169,3.3317,3.3362,3.3235,3.3108,3.2897,3.2788,3.2709,3.2533,3.1909,3.0745,2.9514,2.8737,2.7287,2.5813,2.4864,2.3416,0.0,1.9879,1.8087,0.0,0.0,0.0,0.0,1.1505,0.9347,0.7027,0.0,0.4223,0.0,0.0504,-0.141,-0.2819,0.0,-0.5927,-0.7723,-0.8814,-1.0092,-1.1272,-1.2452,-1.3147,-1.3642,-1.3931,-1.4364,-1.4666,-1.4938,-1.5426,-1.6567,-1.8368,-1.8754,-1.9836,-2.1396,0.0,-2.1731,-2.191,-2.2021,-2.2235,-2.2327,-2.2327,-2.2777,-2.3386,-2.4247,-2.5233,-2.6314,0.0,0.0,0.0,0.0,0.0,0.0,0.0,0.0,0.0,0.0,0.0,0.0,0.0,0.0,0.0,0.0,0.0,0.0,0.0,0.0,0.0,1.3047,1.3193,1.3279,1.3339,1.3561,1.3436,1.3141,1.3513,1.3387,1.2774,1.3326,1.4033,1.4728,1.455,1.5266,1.6688,1.7932,1.8338,1.8394,2.0835,2.172,2.1694,0.0,0.0,2.3595,2.4408,2.581,2.7626,2.9524,3.1528,3.3092,3.2572,3.2364,3.2421,3.2811,3.2344,3.1818,3.2082,3.1783,3.1355,3.0947,2.9935,2.8675,2.7484,2.6211,2.4978,2.3887,0.0,2.1012,2.0202,1.7804,1.6026,1.5928,0.0,1.1627,1.1642,0.9186,0.6819,0.5024,0.3925,0.2722,0.1414,-0.0705,-0.2214,-0.2618,-0.4929,-0.6833,-0.7922,-0.9011,-1.0293,-1.176,-1.2651,-1.3346,-1.3931,-1.4112,-1.4425,-1.466,-1.5615,-1.6808,-1.804,-1.9105,-2.0079,-2.1043,0.0,0.0,-2.1494,-2.1437,-2.1472,-2.1741,-2.1741,-2.1741,-2.182,-2.2755,-2.3704,-2.4669,0.0,0.0,0.0,0.0,0.0,0.0,0.0,0.0,0.0,0.0,0.822,0.8038,0.0,0.0,0.0,0.0,0.0,0.0,0.0,0.0,0.0,0.0,1.1067,1.1631,1.2304,1.2304,1.265,1.3211,1.3043,1.2835,1.2497,1.2336,1.2683,1.3354,1.3953,1.4789,1.5966,1.6972,1.7761,1.8351,1.9543,2.044,2.1048,2.1912,0.0,0.0,2.4247,2.556,2.722,2.8221,3.0153,3.2348,3.336,3.3107,3.2528,3.3403,3.2765,3.1959,3.2478,3.1874,3.1,3.0467,2.9294,2.7882,2.6642,2.5378,0.0,0.0,2.1531,2.0505,1.8968,1.7829,1.6591,1.4858,1.3101,1.1597,1.0719,0.8495,0.6526,0.0,0.4026,0.2722,0.0,0.0,0.0,0.0,0.0,0.0,-0.7922,-0.9011,-1.0592,-1.2754,-1.305,-1.3346,-1.3931,-1.3931,-1.4142,-1.437,-1.4557,-1.5242,-1.6232,-1.7269,-1.831,-1.9342,0.0,0.0,-2.1095,-2.1114,-2.1275,-2.1741,-2.1741,-2.1741,-2.182,-2.2755,-2.3704,-2.4659,0.0,0.0,0.0,0.0,0.0,0.0,0.0,0.7902,0.7833,0.8079,0.8213,0.8211,0.8058,0.8038,0.8038,0.0,0.0,0.0,0.0,0.0,0.0,0.0,0.0,0.0,0.0,1.2206,0.0,0.0,0.0,0.0,0.0,0.0,0.0,0.0,1.4055,1.4727,1.5628,1.6386,1.7041,1.7683,1.8567,1.9292,0.0,0.0,0.0,0.0,0.0,2.3635,2.5168,2.5413,2.6964,2.916,3.173,3.1893,3.1122,3.1409,3.0729,2.9961,3.0253,2.977,2.9114,2.8839,2.8048,2.6967,2.5327,0.0,0.0,0.0,2.0524,1.9663,1.8362,1.7474,0.0,1.5101,1.3232,1.1562,1.0504,0.7858,0.0,0.4529,0.3225,0.212,0.0,0.0,0.0,0.0,0.0,0.0,-0.6933,-0.8619,-1.0391,-1.2063,-1.2754,-1.3244,-1.3443,-1.3738,-1.3931,-1.4112,-1.4202,-1.486,-1.5798,-1.6821,-1.7855,-1.888,0.0,0.0,-2.0826,-2.1105,-2.1383,-2.1571,-2.1651,-2.1741,-2.1731,-2.2255,-2.328,-2.4573,0.0,0.0,0.0,0.0,0.0,0.0,0.0,0.7582,0.7724,0.7902,0.8213,0.8209,0.8016,0.7989,0.8075,0.0,0.0,0.0,0.0,0.0,0.0,0.0,0.0,0.0,0.0,0.0,0.0,0.0,0.0,0.0,0.0,0.0,0.0,0.0,0.0,0.0,0.0,1.5801,1.6304,0.0,0.0,0.0,0.0,0.0,0.0,0.0,0.0,2.1403,2.2685,2.2625,2.3713,2.5543,2.8608,2.9174,2.8643,2.8668,2.7985,2.7244,2.7591,2.729,2.6789,2.6696,2.6284,2.538,2.3379,2.2757,0.0,1.9916,1.9054,1.8496,1.7755,1.6846,1.5959,0.0,1.3429,1.1687,1.0242,0.7479,0.5101,0.0,0.2522,0.0,0.0,0.0,0.0,0.0,0.0,0.0,0.0,-0.8418,-1.0096,-1.117,-1.236,-1.305,-1.3147,-1.3539,-1.3835,-1.3931,-1.4208,-1.4669,-1.5514,-1.6546,-1.7576,-1.8511,0.0,0.0,0.0,-2.1203,-2.1392,-2.1482,-2.1651,-2.1741,-2.1741,-2.1741,-2.2765,-2.4231,0.0,0.0,0.0,0.0,0.0,0.0,0.0,0.7465,0.7639,0.7837,0.7822,0.7824,0.7859,0.8041,0.8194,0.0,0.0,0.0,0.0,0.0,0.0,0.0,0.0,0.0,0.0,0.0,0.0,0.0,0.0,0.0,0.0,0.0,0.0,0.0,0.0,0.0,0.0,0.0,0.0,0.0,0.0,0.0,0.0,0.0,0.0,0.0,0.0,1.9668,2.0537,2.1056,0.0,2.2731,2.3953,2.4486,2.4925,2.6075,0.0,0.0,2.5953,2.5503,2.4586,2.4149,2.3394,2.2331,2.0386,0.0,1.9158,1.7589,1.696,1.6632,1.655,1.5846,1.4951,1.4256,1.3467,1.2051,0.9556,0.7876,0.6182,0.4214,0.0,0.0,0.0,0.0,0.0,0.0,0.0,0.0,0.0,-0.8913,-1.0096,-1.117,-1.2262,-1.2958,-1.3147,-1.3346,-1.3642,-1.3931,-1.4208,-1.4394,-1.4484,-1.5514,-1.6452,-1.7483,0.0,0.0,0.0,-2.0997,-2.1275,-2.1651,-2.1731,-2.1741,-2.1741,-2.1741,-2.2334,-2.3357,0.0,0.0,0.0,0.0,0.0,0.0,0.7382,0.7493,0.759,0.7645,0.7856,0.7861,0.7697,0.7777,0.7895,0.7762,0.0,0.0,0.0,0.0,0.0,0.0,0.0,0.0,0.0,0.0,0.0,1.1072,0.0,0.0,0.0,0.0,0.0,0.0,0.0,0.0,0.0,0.0,0.0,0.0,0.0,0.0,0.0,0.0,0.0,0.0,0.0,0.0,1.8567,1.887,0.0,0.0,1.9866,2.0044,2.0884,0.0,2.4166,2.3637,2.4482,2.4296,2.38,2.3627,2.2737,2.1614,2.0283,0.0,1.8556,1.722,1.687,1.655,1.5891,1.5484,1.4853,1.3604,1.2802,1.1631,0.9526,0.8146,0.6547,0.4534,0.0,0.0,0.0,0.0,0.0,0.0,0.0,0.0,0.0,-0.7925,-0.911,-1.0194,-1.1277,-1.2165,-1.2953,-1.3147,-1.3346,-1.3642,-1.3925,-1.4112,-1.4298,-1.5324,-1.6358,-1.739,0.0,0.0,0.0,-2.0907,-2.1186,-2.1562,-2.1651,-2.1741,-2.1741,-2.1741,-2.2334,-2.326,0.0,0.0,0.0,0.0,0.0,0.6935,0.7049,0.7271,0.7382,0.7493,0.7601,0.7613,0.7358,0.7331,0.7333,0.7169,0.7344,0.0,0.0,0.0,0.0,0.0,0.0,0.0,0.0,0.0,0.8623,0.9895,0.9765,1.0278,0.0,0.0,0.0,0.0,0.0,0.0,0.0,0.0,0.0,0.0,0.0,0.0,0.0,0.0,0.0,0.0,0.0,0.0,0.0,0.0,0.0,1.8118,1.727,1.7203,1.8012,2.1051,2.1971,2.2024,2.2524,2.2659,2.2696,2.2608,2.1674,2.0557,0.0,0.0,1.7804,1.6704,1.6468,1.6139,1.5228,1.4894,1.4391,1.3039,1.2331,1.131,0.9584,0.8341,0.6889,0.0,0.0,0.0,0.0,0.0,0.0,0.0,0.0,0.0,0.0,-0.6833,-0.8124,-0.9509,-1.0979,-1.2063,-1.2764,-1.2953,-1.3147,-1.3346,-1.3738,-1.4022,-1.4208,-1.4956,-1.5893,0.0,0.0,0.0,0.0,-2.0808,-2.1195,-2.1401,-2.1651,-2.1741,-2.1741,-2.1741,-2.2167,-2.2843,0.0,0.0,0.0,0.0,0.0,0.0,0.5822,0.6379,0.6824,0.7154,0.7154,0.7065,0.6828,0.6801,0.6599,0.6062,0.6739,0.0,0.0,0.0,0.0,0.0,0.0,0.0,0.0,0.0,0.7138,0.6845,0.7135,0.7953,0.9348,0.9531,0.0,0.0,0.0,0.0,0.0,0.0,0.0,0.0,0.0,0.0,0.0,0.0,0.0,0.0,0.0,0.0,0.0,0.0,0.0,0.0,0.0,1.655,1.677,1.7279,1.8074,1.9066,1.9677,2.0421,2.0907,2.0473,1.965,1.8653,1.7412,1.6914,1.6414,1.558,1.5257,1.4915,1.423,1.3724,1.3222,1.2534,1.2192,1.1397,0.9562,0.8689,0.0,0.0,0.0,0.0,0.0,0.0,0.0,0.0,0.0,0.0,0.0,0.0,-0.7132,-0.9509,-1.1678,-1.2764,-1.2764,-1.2953,-1.3147,-1.3147,-1.3636,-1.3931,-1.3931,-1.4208,0.0,0.0,0.0,0.0,0.0,-2.0529,-2.1195,-2.1401,-2.1651,-2.1741,-2.1741,-2.1741,-2.1741,-2.182,0.0,0.0,0.0,0.0,0.0,0.0,0.0,0.6158,0.6156,0.6267,0.609,0.5886,0.5651,0.5577,0.5585,0.5452,0.6042,0.0,0.0,0.0,0.0,0.0,0.0,0.0,0.0,0.0,0.6539,0.6833,0.7036,0.7658,0.8479,0.9248,0.9789,1.0104,0.0,0.0,0.0,0.0,0.0,0.0,0.0,0.0,0.0,0.0,0.0,0.0,0.0,0.0,0.0,0.0,0.0,0.0,0.0,0.0,0.0,1.4923,1.6192,1.7688,1.8169,1.8322,1.837,1.8441,1.744,1.6386,1.5937,1.5091,1.4352,1.4095,1.399,1.3815,1.3379,1.3215,1.279,1.1843,1.1585,1.0911,0.0,0.0,0.0,0.0,0.0,0.0,0.0,0.0,0.0,0.0,0.0,0.0,0.0,0.0,-0.7723,-0.9509,-1.0297,-1.1282,-1.2764,-1.2861,-1.2958,-1.3147,-1.3443,-1.3738,-1.3931,-1.4208,0.0,0.0,0.0,0.0,0.0,-2.0357,-2.1015,-2.1401,-2.1482,-2.1562,-2.1741,-2.1741,-2.1741,-2.182,0.0,0.0,0.0,0.0,0.0,0.0,0.0,0.5487,0.5361,0.5439,0.5381,0.519,0.4962,0.4798,0.4629,0.4643,0.4836,0.0,0.0,0.0,0.0,0.0,0.0,0.0,0.5839,0.5839,0.6037,0.6534,0.6639,0.7192,0.7885,0.8863,0.9448,0.9558,1.0037,0.0,0.0,0.0,0.0,0.0,0.0,0.0,1.3446,0.0,0.0,0.0,0.0,0.0,0.0,0.0,0.0,0.0,0.0,0.0,0.0,0.0,1.3658,1.5019,1.6522,1.7003,1.7115,1.744,1.6497,0.0,1.532,1.4502,1.3801,1.3544,1.3468,1.3307,1.2875,1.2705,1.2186,1.0895,1.0544,0.9956,0.0,0.0,0.0,0.0,0.0,0.0,0.0,0.0,0.0,0.0,0.0,0.0,0.0,0.0,-0.7521,-0.9402,-0.9899,-1.1082,-1.2759,-1.2764,-1.2861,-1.2958,-1.3249,-1.3443,-1.3738,0.0,0.0,0.0,0.0,0.0,0.0,-1.9621,-2.0464,-2.0744,-2.1293,-2.1562,-2.1741,-2.1741,-2.1741,-2.182,0.0,0.0,0.0,0.0,0.0,0.0,0.0,0.4369,0.4451,0.4597,0.4796,0.4838,0.4364,0.414,0.3904,0.3533,0.0,0.0,0.0,0.0,0.0,0.0,0.0,0.0,0.5536,0.5536,0.5636,0.5842,0.5942,0.6437,0.7431,0.8326,0.8841,0.9176,1.0049,0.9949,0.0,0.0,0.0,0.0,0.0,0.0,0.0,0.0,0.0,0.0,0.0,0.0,0.0,0.0,0.0,0.0,0.0,0.0,0.0,0.0,0.0,0.0,0.0,1.5908,1.6555,1.6893,1.6281,1.5514,1.5232,1.4635,0.0,1.3561,1.3262,1.2906,1.2301,1.194,1.1322,0.9777,0.9327,0.8681,0.0,0.0,0.0,0.0,0.0,0.0,0.0,0.0,0.0,0.0,0.0,0.0,0.0,0.0,0.0,-0.9099,-1.0369,-1.1653,-1.2764,-1.2764,-1.2754,-1.2737,-1.3028,-1.321,-1.3392,0.0,0.0,0.0,0.0,0.0,0.0,-1.8341,-1.9364,-1.9546,-2.0917,-2.156,-2.1649,-2.1649,-2.1649,-2.1649,0.0,0.0,0.0,0.0,0.0,0.0,0.0,0.0,0.0,0.0,0.2375,0.2229,0.2077,0.1944,0.2127,0.0,0.0,0.0,0.0,0.0,0.0,0.0,0.0,0.0,0.4935,0.5238,0.514,0.4738,0.4937,0.5138,0.5238,0.7033,0.7809,0.777,0.9162,1.0039,0.0,0.0,0.0,0.0,0.0,0.0,0.0,0.0,0.0,0.0,1.2479,1.2411,0.0,0.0,0.0,0.0,0.0,0.0,0.0,0.0,1.0982,1.1168,1.1807,0.0,1.2276,1.3467,1.2741,1.201,0.0,1.221,1.1212,1.1491,1.095,1.0351,1.0173,1.0036,0.9671,0.9152,0.8803,0.834,0.0,0.0,0.0,0.0,0.0,0.0,0.0,0.0,0.0,0.0,0.0,0.0,0.0,0.0,0.0,-0.8803,-0.9364,-1.072,-1.2759,-1.2764,-1.2673,-1.2495,-1.278,-1.2775,-1.2679,0.0,0.0,0.0,0.0,0.0,-1.5318,-1.684,-1.7993,-1.8783,-1.9323,-2.0024,-2.0805,-2.0805,-2.0805,-2.0805,0.0,0.0,0.0,0.0,0.0,0.0,0.0,0.0,0.0,0.0,0.0,0.0,0.0,0.0,0.0,0.0,0.0,0.0,0.0,0.0,0.0,0.0,0.0,0.3934,0.4033,0.4236,0.4236,0.4033,0.4131,0.4435,0.4841,0.6434,0.7229,0.7229,0.8131,0.897,0.0,0.0,0.0,0.0,1.1517,0.0,0.0,0.0,0.0,0.0,1.2259,1.221,0.0,1.1538,1.1119,1.0749,0.0,0.0,0.0,0.0,0.9772,0.9768,0.9898,1.0292,1.0856,1.1762,1.1402,1.0934,1.1696,1.1051,1.0332,1.0426,0.9987,0.9579,0.9579,0.9328,0.9017,0.8573,0.776,0.0,0.0,0.0,0.0,0.0,0.0,0.0,0.0,0.0,0.0,0.0,0.0,0.0,0.0,0.0,0.0,0.0,-0.8534,-0.9962,-1.2603,-1.249,-1.2371,-1.2248,-1.2434,-1.2548,-1.2597,0.0,0.0,0.0,0.0,0.0,-1.4405,-1.5637,-1.677,-1.7905,-1.8612,-1.9571,-2.0521,-2.0521,-2.0521,-2.0521,0.0,0.0,0.0,0.0,0.0,0.0,0.0,0.0,0.0,0.0,0.0,0.0,0.0,0.0,0.0,0.0,0.0,0.0,0.0,0.0,0.0,0.0,0.2826,0.2927,0.3027,0.313,0.3229,0.3428,0.3428,0.393,0.4839,0.6032,0.6833,0.7238,0.7138,0.7531,0.0,0.0,0.9509,0.0,1.1091,0.0,0.0,0.0,0.0,0.0,0.0,0.0,0.0,1.1686,1.0891,1.0107,0.9895,0.0,0.0,0.0,0.0,0.0,0.8467,0.949,1.0515,1.0886,1.0881,1.0783,1.0779,1.0457,1.0053,0.9861,0.9626,0.9397,0.9177,0.905,0.0,0.0,0.0,0.0,0.0,0.0,0.0,0.0,0.0,0.0,0.0,0.0,0.0,0.0,0.0,0.0,0.0,0.0,0.0,0.0,-0.7998,-0.9384,-1.2015,-1.2037,-1.2032,-1.1995,-1.1995,-1.2252,-1.2671,-1.2671,0.0,0.0,0.0,0.0,-1.3477,-1.4619,-1.5739,-1.6952,-1.8079,-1.921,-2.0254,-2.0338,-2.0338,-2.0412,0.0,0.0,0.0,0.0,0.0,0.0,0.0,0.0,0.0,0.0,0.0,0.0,0.0,0.0,0.0,0.0,0.0,0.0,0.0,0.0,0.0,-0.0202,0.1109,0.1917,0.2219,0.2623,0.2724,0.2622,0.2825,0.2925,0.2823,0.4628,0.6032,0.7238,0.6942,0.7132,0.7713,0.8312,0.9011,0.9706,1.0113,0.0,0.0,0.0,0.0,0.0,0.0,0.0,0.0,1.1471,1.0683,0.9899,0.9731,0.0,0.0,0.0,0.0,0.0,0.7886,0.8062,0.8583,0.9849,0.9509,0.9217,1.0489,0.9686,0.8784,0.9276,0.8653,0.7828,0.6941,0.7379,0.7475,0.0,0.0,0.0,0.0,0.0,0.0,0.0,0.0,0.0,0.0,0.0,0.0,0.0,0.0,0.0,0.0,0.0,0.0,0.0,0.0,-0.9228,-1.0619,-1.1232,-1.1582,-1.1752,-1.1752,-1.1827,-1.1897,-1.2071,-1.2325,0.0,0.0,0.0,-1.2825,-1.3255,-1.4436,-1.5929,-1.6511,-1.7761,-1.9263,-1.9405,-1.9485,-1.9565,0.0,0.0,0.0,0.0,0.0,0.0,0.0,0.0,0.0,0.0,0.0,0.0,0.0,0.0,0.0,0.0,0.0,0.0,0.0,0.0,-0.2116,-0.1916,-0.1008,-0.0101,0.0908,0.1211,0.1413,0.1514,0.1615,0.2019,0.2623,0.423,0.5434,0.6139,0.5641,0.5837,0.6526,0.7126,0.7822,0.852,0.0,0.0,0.0,0.0,0.0,0.0,0.0,0.0,0.0,0.0,1.0058,0.9411,0.9324,0.0,0.0,0.0,0.0,0.0,0.7753,0.7621,0.7459,0.7783,0.7624,0.7531,0.8216,0.7419,0.6725,0.7528,0.7381,0.6905,0.0,0.0,0.6042,0.3957,0.0,0.0,0.0,0.0,0.0,0.0,0.0,0.0,0.0,0.0,0.0,0.0,0.0,0.0,0.0,0.0,0.0,0.0,0.0,0.0,-0.9739,-1.0365,-1.081,-1.1149,-1.1329,-1.1543,-1.1699,-1.1871,-1.2123,0.0,0.0,-1.2705,-1.2705,-1.279,-1.3704,-1.5115,-1.5854,-1.7082,-1.8407,-1.9054,-1.939,-1.9469,0.0,0.0,0.0,0.0,0.0,0.0,0.0,0.0,0.0,0.0,0.0,0.0,0.0,0.0,0.0,0.0,0.0,0.0,0.0,-0.3827,-0.3627,-0.3328,-0.3025,-0.2219,-0.0505,-0.0404,-0.0101,0.0303,0.0606,0.1414,0.2925,0.4031,0.4734,0.5041,0.4539,0.4636,0.5133,0.5834,0.6534,0.7232,0.0,0.0,0.0,0.0,0.0,0.0,0.0,0.0,0.0,0.0,0.0,0.0,0.0,0.0,0.0,0.8139,0.7754,0.7299,0.7571,0.7237,0.6784,0.6404,0.6434,0.6534,0.6134,0.5529,0.5227,0.5932,0.6032,0.0,0.0,0.5749,0.0,0.0,0.0,0.0,0.0,0.0,0.0,0.0,0.0,0.0,0.0,0.0,0.0,0.0,0.0,0.0,0.0,0.0,0.0,0.0,0.0,0.0,-0.9087,-0.9607,-1.012,-1.0636,-1.1084,-1.1435,-1.1699,-1.1871,-1.2118,-1.2448,-1.2534,-1.2619,-1.2705,-1.2705,-1.3372,-1.4538,-1.5598,-1.683,-1.8149,-1.8975,-1.9469,-1.9715,0.0,0.0,0.0,0.0,0.0,0.0,0.0,0.0,0.0,0.0,0.0,0.0,0.0,0.0,0.0,0.0,0.0,0.0,0.0,-0.5133,-0.5233,-0.4634,-0.4634,-0.3728,-0.1916,-0.1613,-0.1311,-0.1009,-0.0101,0.1412,0.3224,0.3527,0.3932,0.4438,0.4135,0.393,0.3828,0.483,0.5432,0.5834,0.6642,0.0,0.0,0.0,0.0,0.0,0.0,0.0,0.0,0.0,0.0,0.0,0.0,0.0,0.7682,0.7553,0.7121,0.6707,0.6975,0.6849,0.6778,0.7006,0.7138,0.6734,0.5225,0.5427,0.5727,0.5024,0.4924,0.0,0.0,0.4624,0.0,0.0,0.0,0.0,0.0,0.0,0.0,0.0,0.0,0.0,0.0,0.0,0.0,0.0,0.0,0.0,0.0,0.0,0.0,0.0,0.0,0.0,-0.8656,-0.9087,-0.9777,-1.0636,-1.1084,-1.1435,-1.1699,-1.1699,-1.1952,-1.2363,-1.2448,-1.2534,-1.2705,-1.2705,-1.3379,-1.4475,-1.5606,-1.7317,-1.9222,-1.9301,-1.9548,-1.9863,0.0,0.0,0.0,0.0,0.0,0.0,0.0,0.0,0.0,0.0,0.0,0.0,0.0,0.0,0.0,0.0,0.0,0.0,0.0,-0.6437,-0.6537,-0.6337,-0.6334,-0.5832,-0.5024,-0.3624,-0.252,-0.1917,-0.0706,0.0706,0.2217,0.252,0.2823,0.3127,0.2924,0.2923,0.3123,0.3324,0.4126,0.5129,0.5231,0.5536,0.0,0.0,0.0,0.0,0.0,0.0,0.0,0.0,0.7192,0.7334,0.7349,0.7446,0.7547,0.7227,0.6804,0.65,0.6121,0.5818,0.5475,0.4572,0.4847,0.5133,0.4628,0.4228,0.3927,0.3825,0.3823,0.0,0.0,0.0,0.0,0.0,0.0,0.0,0.0,0.0,0.0,0.0,0.0,0.0,0.0,0.0,0.0,0.0,0.0,0.0,0.0,0.0,0.0,0.0,0.0,0.0,0.0,-0.9087,-0.9432,-0.9777,-1.0554,-1.1084,-1.144,-1.1613,-1.1785,-1.1946,-1.2283,-1.2448,-1.2534,-1.2619,-1.2954,-1.3542,-1.5267,-1.7317,-1.9301,-1.9301,-1.9381,-1.9539,0.0,0.0,0.0,0.0,0.0,0.0,0.0,0.0,0.0,0.0,0.0,0.0,0.0,0.0,0.0,0.0,0.0,0.0,-0.761,-0.7604,-0.7585,-0.7441,-0.7537,-0.7434,-0.703,-0.5729,-0.4427,-0.3426,-0.1713,-0.0302,0.0806,0.1411,0.1714,0.1916,0.1614,0.1715,0.2016,0.2017,0.2619,0.3518,0.3823,0.4028,0.0,0.0,0.0,0.0,0.0,0.0,0.0,0.0,0.5627,0.5909,0.5799,0.6327,0.6756,0.625,0.6089,0.5882,0.5167,0.4851,0.4422,0.3364,0.3529,0.4004,0.3924,0.3327,0.2825,0.2723,0.2923,0.3224,0.3426,0.0,0.0,0.0,0.0,0.0,0.0,0.0,0.0,0.0,0.0,0.0,0.0,0.0,0.0,0.0,0.0,0.0,0.0,0.0,0.0,0.0,0.0,0.0,0.0,-0.8911,-0.9174,-0.9349,-1.0033,-1.0641,-1.1084,-1.1435,-1.1613,-1.1699,-1.2118,-1.2283,-1.2448,-1.2619,-1.2869,-1.3451,-1.535,-1.7245,-1.8807,-1.9213,-1.9381,-1.9548,0.0,0.0,0.0,0.0,0.0,0.0,0.0,0.0,0.0,0.0,0.0,0.0,0.0,0.0,0.0,0.0,0.0,0.0,-0.8367,-0.8568,-0.8501,-0.8048,-0.8237,-0.8131,-0.763,-0.7925,-0.7226,-0.5634,-0.3218,-0.161,-0.0805,0.0302,0.0806,0.0806,0.0505,0.0404,0.0404,0.0908,0.1007,0.0905,0.2214,0.2618,0.2416,0.0,0.0,0.0,0.0,0.0,0.0,0.0,0.4024,0.4109,0.4618,0.5111,0.5487,0.473,0.4727,0.4855,0.4225,0.3972,0.3823,0.3978,0.4018,0.3744,0.3013,0.2825,0.2523,0.1718,0.2421,0.3123,0.3123,0.0,0.0,0.0,0.0,0.0,0.0,0.0,0.0,0.0,0.0,0.0,0.0,0.0,0.0,0.0,0.0,0.0,0.0,0.0,0.0,0.0,0.0,0.0,0.0,-0.8472,-0.8828,-0.9262,-0.9781,-1.0207,-1.0636,-1.1084,-1.1435,-1.1699,-1.1871,-1.2123,-1.2448,-1.2619,-1.3366,-1.4531,-1.5854,-1.6927,-1.7819,-1.8886,-1.9539,-1.9863,0.0,0.0,0.0,0.0,0.0,0.0,0.0,0.0,0.0,0.0,0.0,0.0,0.0,0.0,0.0,0.0,0.0,0.0,-1.019,-1.0165,-1.0074,-0.992,-0.9788,-0.9719,-0.9616,-0.9316,-0.7816,-0.5027,-0.3522,-0.2215,-0.1108,-0.0605,-0.0303,-0.0303,-0.0404,-0.0606,-0.1009,-0.0806,-0.0504,0.0,0.1007,0.1612,0.1915,0.0,0.0,0.0,0.0,0.0,0.0,0.0,0.0,0.0,0.3572,0.401,0.454,0.399,0.395,0.3846,0.3227,0.2988,0.2829,0.2354,0.2235,0.2298,0.1983,0.24,0.2321,0.0,0.0706,0.0806,0.0201,0.0,0.0,0.0,0.0,0.0,0.0,0.0,0.0,0.0,0.0,0.0,0.0,0.0,0.0,0.0,0.0,0.0,0.0,0.0,0.0,0.0,0.0,0.0,0.0,0.0,-0.8472,-0.8828,-0.9257,-0.9864,-1.0636,-1.1084,-1.1354,-1.144,-1.1699,-1.1866,-1.2123,-1.254,-1.3366,-1.4525,-1.5681,-1.6756,-1.7819,-1.8886,-1.9381,-1.9539,0.0,0.0,0.0,0.0,0.0,0.0,0.0,0.0,0.0,0.0,-0.9686,-1.0192,0.0,0.0,0.0,0.0,0.0,0.0,0.0,-1.1001,-1.1008,-1.103,-1.0909,-1.0842,-1.0842,-0.9654,-0.8306,-0.669,-0.5041,-0.3823,-0.2919,-0.2017,-0.1615,-0.1615,-0.1515,-0.1615,-0.1916,-0.1916,-0.1714,-0.1412,-0.0605,-0.0101,0.0403,0.0,0.0,0.0,0.0,0.0,0.0,0.0,0.0,0.0,0.2185,0.2633,0.3186,0.2593,0.2677,0.2775,0.2053,0.1888,0.1904,0.1518,0.1168,0.0897,0.0397,0.0,0.0,0.0,-0.0302,-0.0806,-0.1309,0.0,0.0,0.0,0.0,0.0,0.0,0.0,0.0,0.0,0.0,0.0,0.0,0.0,0.0,0.0,0.0,0.0,0.0,0.0,0.0,0.0,0.0,0.0,0.0,0.0,0.0,-0.8472,-0.8995,-0.9607,-1.012,-1.0733,-1.1084,-1.1348,-1.1699,-1.1957,-1.2203,-1.2534,-1.3118,-1.3866,-1.535,-1.6339,-1.7163,-1.8647,-1.9311,-1.9469,0.0,0.0,0.0,0.0,0.0,0.0,0.0,0.0,0.0,0.0,-1.0761,-1.1087,0.0,0.0,0.0,0.0,0.0,0.0,0.0,-1.1514,-1.1525,-1.1652,-1.1516,-1.1507,-1.1507,-0.9575,-0.8882,-0.9587,-0.7193,-0.5932,-0.5634,-0.3729,-0.2927,-0.2927,-0.2623,-0.2521,-0.2522,-0.2522,-0.2825,-0.323,-0.2421,-0.1916,-0.1613,-0.0806,0.0,0.0,0.0,0.0,0.0,0.0,0.0,0.0,0.0844,0.1204,0.1571,0.0927,0.1205,0.1581,0.0854,0.0859,0.1056,0.1173,0.0589,-0.0296,-0.1205,-0.0806,-0.0302,-0.0302,0.0,-0.1815,0.0,0.0,0.0,0.0,0.0,0.0,0.0,0.0,0.0,0.0,0.0,0.0,0.0,0.0,0.0,0.0,0.0,0.0,0.0,0.0,0.0,0.0,0.0,0.0,0.0,0.0,0.0,0.0,-0.8907,-0.9262,-0.9345,-1.0207,-1.0901,-1.1348,-1.178,-1.2123,-1.2363,-1.2619,-1.2705,-1.2869,-1.4866,-1.5771,-1.625,-1.8167,-1.9161,-1.9566,0.0,0.0,0.0,0.0,0.0,0.0,0.0,0.0,0.0,0.0,0.0,0.0,0.0,0.0,0.0,0.0,0.0,0.0,0.0,-1.2758,-1.2634,-1.2695,-1.2531,-1.2442,-1.2442,-1.1775,-1.1021,-1.0298,-0.7648,-0.6134,-0.5932,-0.4433,-0.3731,-0.3731,-0.3428,-0.3428,-0.363,-0.363,-0.3731,-0.3731,-0.2922,-0.2619,-0.2417,-0.1613,-0.0806,0.0,0.0,0.0,0.0,0.0,0.0,0.0,0.0756,0.0937,0.1021,0.0849,0.0852,0.0948,0.0857,0.0868,0.0879,0.1177,0.0595,-0.01,-0.0302,-0.1511,-0.2518,-0.2518,-0.2719,0.0,0.0,0.0,0.0,0.0,0.0,0.0,0.0,0.0,0.0,0.0,0.0,0.0,0.0,0.0,0.0,0.0,0.0,0.0,0.0,0.0,0.0,0.0,0.0,0.0,-0.7507,-0.7768,-0.8028,0.0,-0.856,-0.8915,-0.9345,-1.0207,-1.0901,-1.1354,-1.1613,-1.1871,-1.2123,-1.2369,-1.2534,-1.2869,-1.4371,-1.5357,-1.6167,-1.7666,-1.8736,-1.939,0.0,0.0,0.0,0.0,0.0,0.0,0.0,0.0,0.0,0.0,0.0,0.0,0.0,0.0,0.0,0.0,0.0,0.0,0.0,0.0,-1.3133,-1.3133,-1.2805,-1.2639,-1.2971,-1.2336,-1.1964,-1.1754,-0.9784,-0.7991,-0.6414,-0.5157,-0.4535,-0.4535,-0.4332,-0.4232,-0.4332,-0.4236,-0.4234,-0.4332,-0.383,-0.3426,-0.3123,-0.272,-0.2016,-0.141,-0.1397,0.0,0.0,0.0,0.0,0.0,0.0,0.0,0.0458,0.0374,0.0376,0.0378,0.0385,0.0487,0.059,0.0496,0.0,-0.0403,-0.1309,-0.2417,-0.3324,-0.3828,0.0,0.0,0.0,0.0,0.0,0.0,0.0,0.0,0.0,0.0,0.0,0.0,0.0,0.0,0.0,0.0,0.0,0.0,0.0,0.0,0.0,0.0,0.0,0.0,0.0,0.0,-0.7323,-0.7411,-0.7764,-0.812,-0.8476,-0.8828,-0.9345,-1.0207,-1.0901,-1.1354,-1.1613,-1.1785,-1.2043,-1.2283,-1.2534,-1.279,-1.3957,-1.5025,-1.6167,-1.7261,-1.8407,-1.9301,0.0,0.0,0.0,0.0,0.0,0.0,0.0,0.0,0.0,0.0,0.0,0.0,0.0,0.0,0.0,0.0,0.0,0.0,0.0,0.0,0.0,-1.364,-1.3083,-1.297,-1.3428,-1.2481,-1.2278,-1.2916,-1.1959,-1.0107,-0.7395,-0.623,-0.5567,-0.5365,-0.5044,-0.4935,-0.4935,-0.4738,-0.4736,-0.4935,-0.4736,-0.4334,-0.4031,-0.3929,-0.3419,-0.2804,-0.2859,-0.2439,-0.193,-0.1961,0.0,0.0,0.0,0.0,-0.0361,-0.0092,-0.0093,-0.0093,0.0,0.0098,0.0099,-0.0201,-0.0605,0.0,-0.272,-0.3224,-0.3726,0.0,0.0,0.0,0.0,0.0,0.0,0.0,0.0,0.0,0.0,0.0,0.0,0.0,0.0,0.0,0.0,0.0,0.0,0.0,0.0,0.0,0.0,0.0,0.0,0.0,0.0,-0.6789,-0.7139,-0.7139,-0.7408,-0.8036,-0.8388,-0.8828,-0.9345,-1.012,-1.0727,-1.1176,-1.1527,-1.1785,-1.1957,-1.2203,-1.2454,-1.2705,-1.3542,-1.4699,-1.6085,-1.6935,-1.8086,-1.9301,0.0,0.0,0.0,0.0,0.0,0.0,0.0,0.0,0.0,0.0,-1.3315,-1.3423,0.0,0.0,0.0,0.0,0.0,0.0,-1.4083,0.0,0.0,-1.4713,-1.4288,-1.3975,-1.4083,-1.3614,-1.3151,-1.2483,-1.1963,-1.0788,-0.8838,-0.8037,-0.71,-0.6085,-0.5679,-0.5534,-0.5534,-0.5436,-0.5436,-0.5534,-0.5436,-0.5539,-0.5639,-0.5436,-0.4982,-0.4322,-0.4114,-0.3639,-0.2973,-0.305,-0.3097,0.0,0.0,0.0,-0.1619,-0.0643,-0.037,-0.0278,-0.0093,0.0,-0.0788,0.0,-0.1412,-0.3024,0.0,0.0,-0.4634,0.0,0.0,0.0,0.0,0.0,0.0,0.0,0.0,0.0,0.0,0.0,0.0,0.0,0.0,0.0,0.0,0.0,0.0,0.0,0.0,0.0,0.0,0.0,-0.6169,-0.6432,-0.6432,0.0,-0.7139,-0.7139,-0.7316,-0.7669,-0.8296,-0.8828,-0.9345,-0.9864,-1.0294,-1.0722,-1.117,-1.1527,-1.1785,-1.1952,-1.2203,-1.2448,-1.3052,-1.4371,-1.6003,-1.6429,-1.7747,-1.9301,0.0,0.0,0.0,0.0,0.0,0.0,0.0,0.0,0.0,0.0,0.0,-1.3867,0.0,0.0,0.0,-1.4617,-1.4617,-1.4826,-1.5148,-1.5148,-1.5256,-1.5464,-1.5256,-1.5148,-1.5148,-1.4719,-1.4277,-1.3835,-1.2881,-1.1648,-1.0221,-0.9871,-0.8619,-0.693,-0.6567,-0.6303,-0.6239,-0.6137,-0.5937,-0.5839,-0.5636,-0.6171,-0.7027,-0.616,-0.62,-0.6522,-0.5716,-0.4913,-0.4328,-0.4367,-0.4139,-0.3667,-0.3252,0.0,0.0,0.0,-0.1815,-0.1552,-0.1495,-0.1727,-0.1967,0.0,-0.2216,-0.2922,-0.2923,0.0,0.0,0.0,0.0,0.0,0.0,0.0,0.0,0.0,0.0,0.0,0.0,0.0,0.0,0.0,0.0,0.0,0.0,0.0,0.0,0.0,0.0,0.0,0.0,-0.6349,-0.6523,-0.6257,-0.6257,0.0,-0.6605,-0.6969,-0.7238,-0.7588,-0.8116,-0.8468,-0.8727,-0.934,-0.9951,-1.0636,-1.1084,-1.144,-1.1699,-1.1785,-1.2032,-1.2448,-1.2625,-1.3698,-1.5184,-1.5928,-1.7082,-1.8479,0.0,0.0,0.0,0.0,0.0,0.0,0.0,0.0,0.0,0.0,0.0,0.0,0.0,0.0,0.0,0.0,-1.525,-1.5464,-1.6099,-1.5998,-1.5998,-1.6099,-1.5992,-1.5891,-1.5891,-1.5464,-1.525,-1.5143,-1.3959,-1.2866,-1.1651,-1.1401,-1.0184,-0.811,-0.7664,-0.7166,-0.6745,-0.6639,-0.6439,-0.6245,-0.6467,-0.7232,-0.8316,-0.7181,-0.7601,-0.8503,-0.6966,-0.614,-0.5745,-0.5746,-0.5267,-0.4641,-0.4463,-0.4109,0.0,0.0,0.0,-0.2528,-0.2622,0.0,-0.291,-0.2783,-0.2999,-0.3303,0.0,0.0,0.0,0.0,0.0,0.0,0.0,0.0,0.0,0.0,0.0,0.0,0.0,0.0,0.0,0.0,0.0,0.0,0.0,0.0,0.0,0.0,0.0,0.0,-0.5819,-0.6523,-0.6609,-0.5991,-0.6086,-0.6083,-0.616,-0.6792,-0.7241,-0.7598,-0.794,-0.8113,-0.8201,-0.8907,-0.9689,-1.0467,-1.0906,-1.1262,-1.1613,-1.1699,-1.1952,-1.2283,-1.2363,-1.3197,-1.4525,-1.5591,-1.6748,-1.7819,0.0,0.0,0.0,0.0,0.0,0.0,0.0,0.0,0.0,0.0,0.0,0.0,-1.5785,-1.5785,-1.5785,-1.5891,-1.5891,-1.6099,-1.6624,-1.6205,-1.6099,-1.6624,-1.6205,0.0,-1.5891,-1.5891,-1.5779,-1.5452,-1.5035,-1.4277,-1.3181,-1.2625,-1.1434,-0.9603,-0.9035,-0.7971,-0.6845,-0.7039,-0.7039,-0.6853,-0.8383,-0.9255,-0.9447,-0.8973,-0.9397,-0.9871,-0.7478,-0.7095,-0.758,-0.6969,-0.6789,-0.6782,-0.5897,-0.563,-0.5275,0.0,0.0,0.0,-0.2484,-0.3147,0.0,-0.2912,-0.402,0.0,0.0,0.0,0.0,0.0,0.0,0.0,0.0,0.0,0.0,0.0,0.0,0.0,0.0,0.0,0.0,0.0,0.0,0.0,0.0,0.0,0.0,0.0,0.0,0.0,-0.6083,-0.6346,-0.6251,-0.5719,-0.5727,-0.5905,-0.616,-0.6786,-0.7234,-0.7598,-0.7856,-0.8028,-0.8201,-0.8732,-0.9345,-1.0038,-1.0463,-1.0906,-1.1354,-1.1613,-1.1871,-1.2043,-1.2283,-1.3197,-1.4525,-1.5591,-1.6748,-1.7819,0.0,0.0,0.0,0.0,0.0,0.0,0.0,0.0,0.0,0.0,0.0,0.0,0.0,-1.5891,-1.5992,-1.6418,-1.6736,-1.7054,-1.7265,-1.7054,-1.7054,-1.7265,-1.7054,-1.6948,-1.6948,-1.663,-1.6418,-1.6305,-1.512,-1.4153,-1.3511,-1.3181,-1.2093,-1.0568,-0.9565,-0.8769,-0.8131,-0.823,-0.8326,-0.8634,-0.9597,-1.0571,-1.1253,-1.0263,-1.0826,-1.196,-0.9935,-0.9038,-0.8706,-0.8531,-0.7838,-0.7051,-0.6697,-0.652,-0.6254,-0.5272,-0.4739,-0.4491,-0.4314,0.0,0.0,-0.4488,-0.4949,-0.5401,0.0,0.0,0.0,0.0,0.0,0.0,0.0,0.0,0.0,0.0,0.0,0.0,0.0,0.0,0.0,0.0,0.0,0.0,0.0,0.0,0.0,0.0,0.0,0.0,-0.6789,-0.7136,-0.6956,-0.6163,-0.5816,-0.5819,-0.6169,-0.652,-0.6789,-0.7061,-0.7507,-0.7768,-0.8028,-0.8288,-0.8819,-0.9607,-1.0038,-1.0646,-1.1354,-1.1435,-1.1613,-1.1871,-1.2037,-1.2619,-1.3451,-1.4692,-1.5854,-1.7009,0.0,0.0,0.0,0.0,0.0,0.0,0.0,0.0,-1.6636,-1.6524,0.0,0.0,0.0,0.0,-1.663,-1.6942,-1.7371,-1.7582,-1.7582,-1.7582,-1.7582,-1.7582,-1.7582,-1.7582,-1.7582,-1.7167,-1.6852,-1.6849,-1.5565,-1.482,-1.4589,-1.4159,-1.327,-1.1808,-1.0871,-1.0043,-0.9217,-0.932,-0.9513,-0.9821,-1.097,-1.1986,-1.2576,-1.1756,-1.2263,-1.3266,0.0,0.0,0.0,0.0,-0.9345,-0.852,-0.8112,-0.7446,-0.6792,-0.6257,-0.5899,-0.5649,-0.537,-0.5118,0.0,0.0,0.0,-0.5158,0.0,0.0,0.0,0.0,0.0,0.0,0.0,0.0,0.0,0.0,0.0,0.0,0.0,0.0,0.0,0.0,0.0,0.0,0.0,0.0,0.0,0.0,0.0,0.0,-0.6962,-0.7221,-0.7044,-0.6077,-0.5819,-0.5822,-0.6083,-0.6343,-0.652,-0.6795,-0.7146,-0.7588,-0.7944,-0.8028,-0.8556,-0.9345,-0.9781,-1.0386,-1.1084,-1.1262,-1.144,-1.1699,-1.1957,-1.2289,-1.279,-1.4203,-1.5199,-1.6026,0.0,0.0,0.0,0.0,0.0,0.0,0.0,0.0,-1.7582,-1.7582,0.0,0.0,0.0,0.0,0.0,-1.7582,-1.7582,-1.7582,-1.7582,-1.7582,-1.7582,-1.7582,-1.7582,-1.7582,-1.7582,-1.7412,-1.7198,-1.7179,-1.6678,-1.6371,-1.6324,-1.5779,-1.4861,-1.3556,-1.3038,-1.1769,-1.0096,-1.031,-1.0306,-1.0323,-1.2633,-1.3437,-1.3211,-1.3396,-1.3712,0.0,-1.1645,-1.1303,0.0,-1.165,0.0,0.0,-1.0021,-0.85,-0.7051,-0.6881,-0.6257,-0.5722,0.0,0.0,0.0,0.0,0.0,0.0,0.0,0.0,0.0,0.0,0.0,0.0,0.0,0.0,0.0,0.0,0.0,0.0,0.0,0.0,0.0,0.0,0.0,0.0,0.0,0.0,0.0,0.0,0.0,-0.7944,-0.652,-0.6602,-0.634,-0.546,-0.5552,-0.5822,-0.6083,-0.6257,-0.652,-0.6795,-0.6966,-0.7408,-0.7856,-0.7856,-0.838,-0.9349,-0.9777,-1.0207,-1.0636,-1.1084,-1.144,-1.1699,-1.1957,-1.2203,-1.2619,-1.4119,-1.4699,-1.5032,0.0,0.0,0.0,0.0,0.0,-1.9968,-1.8318,-1.8108,-1.8108,0.0,0.0,0.0,-1.7582,-1.7582,-1.7687,-1.7905,-1.7911,-1.7911,-1.7911,-1.8115,-1.8213,-1.8213,-1.8213,-1.8213,-1.8213,-1.813,-1.7928,-1.7806,-1.7403,-1.6976,-1.663,-1.6211,-1.5503,-1.4384,-1.4174,-1.3396,-1.2165,-1.1585,-1.1585,-1.2109,-1.3562,-1.4061,-1.4107,0.0,0.0,0.0,0.0,-1.3655,-1.3124,0.0,-1.2226,-1.1,0.0,-0.832,-0.7326,-0.6884,-0.6615,-0.6346,-0.5811,0.0,0.0,0.0,0.0,0.0,0.0,0.0,0.0,0.0,0.0,0.0,0.0,0.0,0.0,0.0,0.0,0.0,0.0,0.0,0.0,0.0,0.0,0.0,0.0,0.0,0.0,0.0,0.0,-0.812,-0.6962,-0.634,-0.5719,-0.5099,-0.5371,-0.5549,-0.5549,-0.5994,-0.626,-0.626,-0.6704,-0.7143,-0.758,-0.7852,-0.8208,-0.8828,-0.9257,-0.9519,-0.9777,-1.0829,-1.144,-1.1699,-1.1957,-1.2289,-1.2705,-1.3464,-1.4713,-1.6026,0.0,0.0,0.0,0.0,0.0,-1.9665,-1.8527,-1.8422,-1.8318,0.0,0.0,0.0,-1.7898,-1.7898,-1.8003,-1.8115,-1.8122,-1.8122,-1.8122,-1.8318,-1.8422,-1.8422,-1.8422,-1.8422,-1.8422,-1.8296,-1.8192,-1.8122,-1.788,-1.7671,-1.7364,-1.6826,-1.6226,-1.5601,-1.4974,-1.4295,-1.3528,-1.2754,-1.2565,-1.2899,-1.4176,0.0,0.0,-1.5365,-1.5771,0.0,0.0,0.0,-1.4449,-1.4514,-1.3505,0.0,0.0,-0.9283,-0.8197,-0.7499,-0.7146,-0.6966,-0.6343,-0.5988,-0.5711,-0.5049,0.0,0.0,-0.4588,-0.4433,0.0,0.0,0.0,0.0,0.0,0.0,0.0,0.0,0.0,0.0,0.0,0.0,0.0,0.0,0.0,0.0,0.0,0.0,0.0,0.0,-0.6782,-0.6779,-0.6071,-0.5544,-0.5191,-0.4924,-0.5102,-0.5191,-0.5191,-0.5725,-0.5902,-0.5902,-0.6526,-0.6966,-0.7312,-0.7588,-0.8032,-0.8472,-0.8911,-0.9174,-0.9349,-1.0564,-1.117,-1.1429,-1.1866,-1.2203,-1.2619,-1.3222,-1.4139,-1.5289,0.0,0.0,-2.0585,-1.948,-1.9279,-1.9071,-1.8736,-1.8527,-1.8527,0.0,-1.8422,-1.8422,-1.8422,-1.8422,-1.8422,-1.8422,-1.8429,-1.8429,-1.8429,-1.8527,-1.8527,-1.8527,-1.8527,-1.8527,-1.8527,-1.8267,-1.8259,-1.8429,-1.8259,-1.8156,-1.8415,-1.7592,-1.7089,-1.6707,-1.5406,-1.4637,-1.4298,-1.3823,0.0,-1.3133,-1.4589,-1.5095,0.0,0.0,-1.6348,-1.6047,-1.5725,-1.5575,-1.5563,-1.5691,-1.4775,0.0,0.0,0.0,0.0,0.0,-0.7944,-0.7598,-0.7058,-0.6615,-0.6051,-0.5402,0.0,0.0,-0.4725,-0.4498,0.0,0.0,0.0,0.0,0.0,0.0,0.0,0.0,0.0,0.0,0.0,0.0,0.0,0.0,0.0,0.0,0.0,0.0,0.0,-0.5181,-0.5001,-0.4734,-0.4559,-0.4476,-0.448,-0.4572,-0.4746,-0.4921,-0.501,-0.5364,-0.563,-0.5633,-0.6346,-0.6881,-0.7054,-0.7326,-0.7768,-0.8201,-0.8644,-0.8999,-0.9257,-1.012,-1.0722,-1.1073,-1.1774,-1.2118,-1.2448,-1.3137,-1.3476,-1.3808,0.0,-2.3211,-2.3393,-2.2316,-2.1615,-2.0901,-2.0174,-1.9569,-1.9071,-1.8869,-1.8541,-1.8534,-1.8757,-1.8534,-1.8534,-1.8757,-1.8764,-1.8764,-1.8764,-1.8966,-1.9168,-1.9168,-1.9168,-1.9168,-1.9168,-1.9102,-1.9005,-1.8764,-1.87,-1.8589,-1.8415,-1.8011,-1.7502,-1.6807,-1.6209,-1.5525,-1.4592,-1.4298,0.0,-1.4347,-1.4873,0.0,-1.5562,-1.6684,-1.7049,-1.6896,-1.6546,-1.6308,-1.6071,-1.5584,-1.4743,-1.3731,0.0,0.0,0.0,-1.0114,0.0,0.0,-0.8132,-0.7401,0.0,0.0,0.0,0.0,-0.4479,-0.4186,-0.4016,0.0,0.0,0.0,0.0,0.0,0.0,0.0,0.0,0.0,0.0,0.0,0.0,0.0,0.0,0.0,0.0,0.0,-0.3575,-0.4467,-0.4111,-0.3935,-0.4026,-0.3582,-0.3405,-0.3765,-0.403,-0.4297,-0.4748,-0.501,-0.5277,-0.546,-0.5994,-0.6438,-0.6881,-0.7326,-0.768,-0.794,-0.8201,-0.8376,-0.8464,-0.9685,-1.0467,-1.1073,-1.1774,-1.2118,-1.2448,-1.2966,-1.3717,-1.4538,-2.3311,-2.3411,-2.3194,-2.2106,-2.1607,-2.1003,-2.0086,-1.9975,-2.0086,-1.9879,-1.9768,-1.9561,-1.9175,-1.8959,-1.8959,-1.9071,-1.9078,-1.9078,-1.9078,-1.9279,-1.9279,-1.9279,-1.9279,-1.9279,-1.9279,-1.9279,-1.9279,-1.9078,-1.9078,-1.888,-1.8604,-1.8195,-1.7682,-1.7078,-1.638,-1.5774,-1.5261,0.0,-1.4843,-1.5115,-1.5294,0.0,-1.6061,-1.7003,-1.739,-1.7308,-1.686,-1.6525,-1.6231,-1.5797,-1.5158,0.0,0.0,-1.2936,-1.2249,0.0,-1.0691,-1.0286,0.0,0.0,0.0,-0.6354,0.0,0.0,0.0,-0.4708,-0.4477,0.0,0.0,0.0,0.0,0.0,0.0,0.0,0.0,0.0,0.0,0.0,0.0,0.0,0.0,0.0,0.0,0.0,-0.2149,-0.2684,-0.3041,-0.3221,-0.3047,-0.2867,-0.2867,-0.3227,-0.3315,-0.3673,-0.4123,-0.4387,-0.4741,-0.5191,-0.5636,-0.6166,-0.6612,-0.6972,-0.7326,-0.768,-0.794,-0.8113,-0.8285,-0.9253,-0.9951,-1.0641,-1.1602,-1.2118,-1.2448,-1.2966,-1.347,-1.4112,-2.3827,-2.3411,-2.2793,-2.1794,-2.1489,-2.1191,-2.0388,-2.0783,-2.1285,-2.1285,-2.1089,-2.0688,-2.0086,-2.0139,-2.0178,-2.0178,-2.0231,-2.0142,-1.9881,-1.9769,-1.9643,-1.9279,-1.9279,-1.9279,-1.9279,-1.9279,-1.9242,-1.9184,-1.9184,-1.9016,-1.8686,-1.8173,-1.7688,-1.7334,-1.6505,-1.6075,-1.5927,-1.5517,0.0,-1.5888,0.0,-1.6075,-1.6568,-1.7265,-1.7582,-1.7508,-1.7022,-1.6569,-1.6239,-1.5983,-1.5631,-1.5134,-1.4343,-1.3876,0.0,0.0,0.0,0.0,0.0,0.0,0.0,0.0,0.0,-0.6016,0.0,0.0,0.0,0.0,0.0,0.0,0.0,0.0,0.0,0.0,0.0,0.0,0.0,0.0,0.0,0.0,0.0,0.0,0.0,0.0,-0.0714,-0.0986,-0.1873,-0.2228,-0.1973,-0.2152,-0.233,-0.2689,-0.2778,-0.3047,-0.3587,-0.3762,-0.4208,-0.4921,-0.5455,-0.5897,-0.6251,-0.6615,-0.6972,-0.7418,-0.768,-0.794,-0.8201,-0.8907,-0.9519,-1.0125,-1.1343,-1.2032,-1.2369,-1.2881,-1.3137,-1.3522,-2.4233,-2.4529,-2.4824,-2.4529,-2.3827,-2.342,-2.3493,-2.3085,-2.2685,-2.2685,-2.1887,-2.1582,-2.2391,-2.2978,-2.3382,-2.3382,-2.3782,-2.3314,-2.1779,-2.1651,-2.0898,-1.939,-1.9279,-1.9279,-1.9279,-1.9279,-1.9133,-1.8847,-1.8847,-1.8679,-1.835,-1.8028,-1.7659,-1.7348,-1.7312,-1.6943,-1.6508,0.0,-1.6589,0.0,-1.68,-1.6691,0.0,-1.737,-1.7582,-1.7508,-1.7231,-1.6908,-1.6553,0.0,-1.5623,-1.5257,0.0,-1.4744,-1.4955,-1.3745,0.0,0.0,0.0,0.0,0.0,0.0,-0.7875,0.0,0.0,0.0,0.0,0.0,0.0,0.0,0.0,0.0,0.0,0.0,0.0,0.0,0.0,0.0,0.0,0.0,0.0,0.0,0.0,0.0,0.0,-0.0717,-0.0706,-0.0704,-0.0896,-0.1076,-0.1435,-0.1884,-0.2154,-0.2691,-0.3587,-0.3587,-0.4034,-0.475,-0.5193,-0.5547,-0.5808,-0.6526,-0.6795,-0.6884,-0.7326,-0.768,-0.8032,-0.8648,-0.9345,-1.0125,-1.0987,-1.1682,-1.2123,-1.254,-1.3052,-1.3353,-2.5137,-2.5333,-2.5333,-2.451,-2.4304,-2.4007,-2.3493,-2.3791,-2.389,-2.3393,-2.3384,-2.3194,-2.2492,-2.2924,-2.3512,-2.3834,-2.4003,-2.3729,0.0,-2.2333,-2.1762,-2.12,-1.9983,-1.9576,-2.0181,-1.939,-1.8928,-1.8789,-1.8599,-1.8343,-1.8021,-1.7882,-1.7618,-1.7355,-1.7359,-1.727,-1.706,0.0,-1.7029,0.0,0.0,0.0,0.0,-1.7893,-1.8005,-1.7791,-1.7465,-1.7218,-1.6994,0.0,-1.5978,0.0,0.0,0.0,0.0,0.0,0.0,0.0,0.0,0.0,0.0,0.0,0.0,0.0,-0.7733,0.0,-0.6928,0.0,0.0,0.0,0.0,0.0,0.0,0.0,0.0,0.0,0.0,0.0,0.0,0.0,0.0,0.0,0.0,0.0,0.0,0.0,0.0,-0.0176,-0.0717,-0.0718,-0.0897,-0.1346,-0.1525,-0.1973,-0.2781,-0.3048,-0.3583,-0.4208,-0.4832,-0.5366,-0.5719,-0.6169,-0.6529,-0.6795,-0.7146,-0.7499,-0.794,-0.8292,-0.9078,-1.0038,-1.0549,-1.1251,-1.2037,-1.2711,-1.3037,-1.3201,-2.5635,-2.5742,-2.543,-2.4707,-2.4796,-2.4698,-2.4088,-2.4393,-2.4688,0.0,0.0,0.0,-2.3493,-2.4072,-2.4629,-2.5117,-2.5256,-2.5087,0.0,0.0,-2.3135,-2.2857,-2.1035,-2.0529,-2.1431,-1.9796,-1.894,-1.8851,-1.8427,-1.7999,-1.7684,-1.7684,-1.7552,-1.734,-1.7486,-1.7541,-1.7541,0.0,-1.7548,-1.7832,-1.7739,-1.7973,-1.8207,-1.8303,-1.8289,-1.8154,-1.7753,-1.757,-1.7405,-1.6812,-1.6253,0.0,-1.6218,0.0,0.0,0.0,0.0,0.0,-1.3336,0.0,0.0,0.0,0.0,0.0,0.0,0.0,0.0,0.0,0.0,0.0,0.0,0.0,0.0,-0.4771,0.0,0.0,0.0,0.0,0.0,0.0,0.0,0.0,0.0,0.0,0.0,0.0,0.0087,0.0,-0.0448,-0.0448,-0.0538,-0.0897,-0.1076,-0.1436,-0.2064,-0.2599,-0.3226,-0.3851,-0.4652,-0.5186,-0.5542,-0.5902,-0.626,-0.6615,-0.6877,-0.7231,-0.7676,-0.8028,-0.8815,-0.9951,-1.0207,-1.0992,-1.2037,-1.2717,-1.2962,-1.3028,-2.5732,-2.5742,-2.5732,-2.5635,-2.5917,0.0,0.0,0.0,0.0,0.0,0.0,0.0,0.0,0.0,0.0,0.0,0.0,-2.8897,-2.6647,0.0,-2.5684,0.0,0.0,-2.2257,-2.2722,-2.0617,-1.9414,-1.9079,-1.8275,-1.7662,-1.7347,-1.7347,-1.7333,-1.734,-1.7669,-1.7816,-1.7838,-1.7865,-1.8182,-1.8774,-1.8477,-1.8484,-1.8724,0.0,-1.8639,-1.8776,-1.8146,0.0,0.0,-1.6836,-1.6317,0.0,0.0,0.0,0.0,0.0,0.0,0.0,0.0,0.0,0.0,-1.2345,0.0,0.0,0.0,0.0,-0.8898,0.0,0.0,0.0,0.0,-0.6777,-0.6553,-0.5699,-0.5237,0.0,0.0,0.0,0.0,0.0,0.0,0.0,0.0,0.0,0.0,0.0,0.0342,0.0,0.0,-0.0269,-0.0448,-0.0448,-0.0897,-0.1345,-0.1794,-0.251,-0.3136,-0.3587,-0.4565,-0.501,-0.5008,-0.5813,-0.6083,-0.6171,-0.6618,-0.6969,-0.7139,-0.7676,-0.8556,-0.9689,-1.012,-1.0992,-1.2043,-1.254,-1.2794,-1.3028,-2.6014,-2.6004,-2.6004,-2.6004,0.0,0.0,0.0,-2.6668,0.0,0.0,0.0,0.0,0.0,-2.7923,-2.852,0.0,0.0,-2.8839,-2.7703,-2.7025,0.0,0.0,0.0,-2.3471,0.0,-2.1974,-2.0443,-2.0313,-1.8981,-1.8186,-1.8071,-1.7714,-1.7527,-1.7636,-1.824,-1.8785,0.0,0.0,0.0,0.0,0.0,-1.9575,-1.8803,0.0,0.0,-1.8796,-1.836,-1.8207,0.0,-1.7334,-1.6757,-1.6422,-1.6699,-1.6337,-1.5937,-1.6126,-1.5993,0.0,0.0,0.0,-1.545,-1.3905,0.0,0.0,0.0,0.0,0.0,0.0,0.0,0.0,0.0,-0.8219,-0.7698,-0.7833,-0.685,-0.6012,0.0,0.0,0.0,0.0,0.0,0.0,0.0,0.0,0.0,0.0174,0.0346,0.0262,0.0,-0.009,-0.018,-0.0359,-0.0718,-0.0987,-0.1345,-0.2063,-0.269,-0.3136,-0.3939,-0.4563,-0.501,-0.5458,-0.5816,-0.6083,-0.6435,-0.6786,-0.7139,-0.7676,-0.838,-0.917,-0.9864,-1.0727,-1.166,-1.2337,-1.2694,-1.2715,-2.639,-2.6294,0.0,0.0,0.0,0.0,0.0,0.0,0.0,0.0,-2.7708,0.0,-2.7844,0.0,-2.8767,0.0,-2.924,-2.9065,-2.8338,-2.7813,0.0,-2.771,-2.5781,-2.5327,0.0,0.0,-2.176,-2.1391,-1.967,-1.8719,-1.8357,-1.7908,-1.7721,-1.7729,-1.8394,-1.9201,-2.0022,-2.0031,-2.0891,0.0,0.0,-2.0557,0.0,0.0,-1.9375,-1.8846,0.0,-1.8587,-1.8203,-1.7545,-1.7101,-1.6885,-1.7174,-1.6863,-1.6301,-1.6692,-1.6697,-1.6509,-1.6393,-1.6606,0.0,0.0,-1.5094,0.0,-1.3383,0.0,0.0,0.0,0.0,0.0,0.0,0.0,-0.8983,-0.9357,-0.7923,-0.6707,0.0,-0.5315,0.0,0.0,0.0,0.0,0.0,0.0,0.0333,0.0258,0.0344,0.0348,0.0,0.0,-0.009,-0.0269,-0.0448,-0.0718,-0.0987,-0.1705,-0.2332,-0.2867,-0.3582,-0.4295,-0.501,-0.528,-0.5641,-0.5997,-0.6254,-0.6609,-0.6874,-0.7588,-0.8204,-0.8815,-0.9689,-1.0554,-1.1381,-1.2242,-1.265,-1.2882,0.0,0.0,0.0,0.0,-2.6592,0.0,0.0,0.0,-2.7988,0.0,-2.8378,-2.8741,-2.8717,-2.9174,-2.9445,-2.9332,-2.9735,-2.9611,-2.8711,-2.9063,0.0,0.0,-2.7915,-2.7699,-2.8147,0.0,0.0,0.0,-2.0441,-1.908,-1.8179,-1.7908,-1.7729,-1.7721,-1.8257,0.0,-2.0352,-2.0762,-2.1667,-2.2772,-2.1847,-2.1466,-2.1466,-2.1865,0.0,-1.9041,-1.967,-1.9259,-1.8302,-1.764,-1.7326,-1.7326,-1.7326,-1.7326,-1.7326,-1.7326,-1.7707,-1.811,-1.7781,-1.7689,-1.7438,-1.6579,0.0,0.0,0.0,0.0,-1.3374,0.0,0.0,0.0,0.0,0.0,-1.0276,-1.0346,-0.8675,-0.7084,-0.6395,-0.5783,0.0,0.0,0.0,0.0,0.0,-0.008,0.0241,0.0336,0.0505,0.0511,0.0,0.0,0.0,0.0,-0.0269,-0.0538,-0.0718,-0.1436,-0.2153,-0.2867,-0.3582,-0.4295,-0.501,-0.528,-0.5463,-0.5733,-0.6169,-0.6428,-0.652,-0.7499,-0.8113,-0.8544,-0.9506,-1.0448,-1.1348,-1.2052,-1.275,-1.336,-2.6986,-2.6976,-2.7156,0.0,-2.7347,-2.7631,0.0,0.0,0.0,0.0,-2.9947,-3.0643,-3.0857,-3.096,-3.082,-3.0409,-3.0514,0.0,0.0,0.0,0.0,-2.9135,-2.8592,-2.8522,-2.8983,-2.6406,-2.4555,-2.3607,0.0,-1.982,-1.8912,-1.8473,-1.8295,-1.8295,-1.855,-1.9369,-2.0474,-2.0568,-2.0948,-2.1733,-2.3176,-2.2905,0.0,0.0,-2.3015,-2.09,-2.0735,-2.0232,-1.9369,-1.8684,-1.845,-1.845,-1.845,-1.845,-1.845,-1.845,-1.855,-1.8619,-1.8533,-1.8509,-1.8344,-1.7644,-1.7118,-1.6513,0.0,0.0,0.0,0.0,0.0,0.0,0.0,0.0,0.0,-1.2103,-1.049,-0.8983,-0.8385,0.0,0.0,-0.5544,0.0,0.0,0.0,-0.0721,-0.0082,0.0588,0.059,0.0,0.0,0.0,0.0,0.0269,-0.0179,-0.0538,-0.0718,-0.1436,-0.2153,-0.2867,-0.3406,-0.4032,-0.4748,-0.5013,-0.528,-0.5549,-0.6166,-0.6428,-0.6428,-0.7234,-0.7768,-0.8201,-0.9253,-1.0439,-1.1537,-1.237,-1.2616,-1.2836,-2.7641,0.0,0.0,-2.7914,0.0,0.0,-2.8853,0.0,0.0,-2.9927,-3.0908,0.0,-3.1012,-3.1385,-3.1414,-3.0888,-3.0785,0.0,-2.9332,0.0,0.0,-2.9311,-2.9249,-2.9249,-2.9301,-2.7492,0.0,-2.4374,0.0,-2.0694,-1.9446,-1.8835,-1.8481,-1.8481,-1.8835,-1.9545,-2.064,-2.1822,-2.2272,-2.2369,-2.4262,0.0,0.0,-2.5243,-2.4745,-2.3139,-2.2455,-2.1371,-2.0215,-1.9151,-1.9004,-1.918,-1.8912,-1.8827,-1.8827,-1.8827,-1.9012,-1.9188,-1.9188,-1.9188,-1.909,-1.8694,-1.8112,-1.7411,-1.686,-1.6349,-1.595,0.0,0.0,0.0,0.0,0.0,0.0,-1.2035,-1.1013,-1.0115,0.0,0.0,0.0,0.0,0.0,0.0,0.0,0.0,0.0,0.0,0.0,0.0,0.0,0.0,0.0,0.0,0.0619,0.0089,-0.0718,-0.1067,-0.1778,-0.2867,-0.3136,-0.3764,-0.4661,-0.4837,-0.5104,-0.546,-0.5899,-0.6251,-0.6428,-0.7054,-0.7588,-0.8021,-0.9247,-1.0449,-1.1576,-1.2255,-1.247,-1.2732,0.0,0.0,0.0,0.0,0.0,0.0,0.0,-3.0824,0.0,-3.1044,0.0,-3.1876,-3.0808,-3.1356,-3.1618,-3.1094,0.0,-3.0522,-2.9517,-2.9766,-2.9787,-2.9321,-2.9684,-2.9684,-2.9228,-2.8307,-2.683,0.0,0.0,-2.1543,-1.9894,-1.9012,-1.8574,-1.8574,-1.8928,0.0,0.0,-2.3551,-2.4239,0.0,-2.5295,-2.5916,-2.5999,-2.6247,-2.5956,-2.5283,-2.4179,-2.2568,-2.0802,-1.9499,-1.9455,-1.9812,-1.9188,-1.9012,-1.9012,-1.9012,-1.9371,-1.9729,-1.9729,-1.9729,-1.9729,-1.9729,-1.8856,-1.7921,-1.7645,-1.6974,-1.6405,-1.6137,-1.6065,0.0,0.0,0.0,0.0,-1.1396,0.0,0.0,0.0,0.0,0.0,0.0,0.0,0.0,0.0,0.0,0.0,0.0,0.0,0.0,0.0,0.0,0.0,0.0,0.157,0.0,-0.0625,0.0,-0.1408,-0.2856,-0.3042,-0.3673,-0.4661,-0.4661,-0.4926,-0.5371,-0.5633,-0.5985,-0.6432,-0.6874,-0.7319,-0.8009,-0.9262,-1.0393,-1.1312,-1.1874,-1.2355,-1.3018,0.0,0.0,0.0,0.0,0.0,-3.1611,-3.3418,-3.386,-3.3838,-3.3552,-3.3944,-3.4066,-3.3695,-3.3289,-3.2757,-3.2207,-3.1721,0.0,0.0,0.0,0.0,-2.9321,-2.9384,-2.9208,-2.8742,-2.7841,-2.6526,0.0,0.0,-2.1543,-1.9894,-1.9096,-1.8743,-1.8743,-1.8658,0.0,-2.152,-2.3089,0.0,-2.5007,-2.5787,-2.6186,-2.6217,-2.6888,-2.6418,-2.5283,-2.4179,-2.288,-2.1516,-2.0429,-2.011,-2.0192,-2.011,-2.0019,-2.0019,-2.0019,-2.011,-2.0201,-2.0201,-2.0201,-2.0201,-2.0201,-1.9779,-1.9276,-1.8896,-1.8549,-1.8034,-1.7671,-1.7595,-1.7502,-1.7103,0.0,0.0,0.0,0.0,0.0,0.0,0.0,0.0,0.0,0.0,0.0,0.0,0.0,0.0,0.0,0.0,0.0,0.0,0.0,0.0,0.0,0.0,0.0,0.0,0.0,0.0,-0.2793,-0.3641,-0.4208,-0.4389,-0.4569,-0.4837,-0.5099,-0.5542,-0.5985,-0.6428,-0.652,-0.7048,-0.7895,-0.8937,-0.9673,-1.0316,-1.1353,-1.2592,-1.3871,0.0,0.0,0.0,0.0,0.0,0.0,0.0,-3.5798,0.0,-3.4804,-3.436,-3.4006,-3.3655,-3.3383,-3.3058,-3.242,-3.1895,-3.1348,-3.0525,-3.0018,-2.9482,-2.8959,-2.8949,0.0,-2.8266,-2.7831,-2.6768,-2.5006,0.0,0.0,-2.0439,0.0,0.0,-1.8835,0.0,-2.054,0.0,0.0,0.0,-2.532,-2.6361,-2.6732,-2.6753,-2.6693,-2.6054,-2.4957,-2.3645,-2.2529,-2.1527,-2.0616,-2.0555,-2.0826,-2.0374,-2.0292,-2.0292,-2.0292,-2.0292,-2.0292,-2.0292,-2.0292,-2.0292,-2.0292,-2.0018,-1.9641,-1.9264,-1.887,-1.8485,-1.8108,-1.8112,-1.7992,-1.7212,-1.6385,0.0,0.0,0.0,0.0,0.0,0.0,0.0,0.0,0.0,0.0,0.0,0.0,0.0,0.0,0.0,0.0,0.0,0.0,0.0,0.0,0.0,0.0,0.0,0.0,0.0,-0.3178,-0.3746,-0.4032,-0.43,-0.4389,-0.4656,-0.4835,-0.5102,-0.5458,-0.5902,-0.6254,-0.6825,-0.7595,-0.8525,-0.9318,-1.0165,-1.1756,-1.3262,-1.4661,0.0,-2.9738,0.0,0.0,-3.3445,0.0,0.0,-3.6741,-3.7144,-3.5945,-3.4809,-3.3911,-3.3409,-3.3231,-3.2948,-3.2318,-3.1771,-3.1053,-3.0145,-2.9604,-2.8964,-2.8473,-2.8473,-2.8255,-2.779,-2.7779,-2.702,0.0,0.0,0.0,0.0,0.0,0.0,0.0,0.0,0.0,0.0,0.0,-2.5568,-2.5788,-2.6878,-2.7262,-2.7251,-2.6481,-2.5644,-2.4651,-2.3187,-2.2144,-2.1266,-2.0555,-2.0645,-2.1087,-2.0464,-2.0292,-2.0292,-2.0292,-2.0292,-2.0292,-2.0292,-2.0292,-2.0292,-2.0292,-2.0069,-1.9761,-1.9384,-1.899,-1.8605,-1.8228,-1.8334,-1.808,-1.6888,-1.666,0.0,0.0,0.0,0.0,0.0,0.0,0.0,0.0,0.0,0.0,0.0,0.0,0.0,0.0,0.0,0.0,0.0,0.0,0.0,0.0,0.0,0.0,-0.0796,0.0,-0.2463,0.0,-0.3669,-0.3942,-0.43,-0.43,-0.4478,-0.4661,-0.4661,-0.4926,-0.546,-0.6077,-0.6627,-0.7114,-0.7883,-0.8808,-0.9927,-1.1582,-1.3614,-1.5575,0.0,0.0,0.0,0.0,0.0,0.0,0.0,-3.6064,-3.6645,-3.7495,-3.6491,-3.5411,-3.4666,-3.3551,-3.2558,-3.1903,-3.0893,-3.0275,-3.0177,-2.9236,-2.8421,-2.8007,-2.7986,-2.7779,-2.7334,-2.7324,-2.695,0.0,0.0,0.0,0.0,0.0,0.0,0.0,0.0,0.0,0.0,-2.5752,-2.6494,-2.7138,-2.722,-2.7262,-2.721,-2.6702,-2.5839,-2.4611,-2.3491,-2.2351,-2.1266,-2.0555,-2.0382,-2.0382,-2.0292,-2.0292,-2.0292,-2.0292,-2.0292,-2.0292,-2.0292,-2.0292,-2.0292,-2.0292,-2.0266,-2.0146,-1.9778,-1.9393,-1.9007,-1.8614,-1.8606,-1.8089,-1.6086,-1.7094,-1.7347,0.0,0.0,0.0,0.0,0.0,0.0,0.0,0.0,0.0,0.0,0.0,0.0,0.0,0.0,0.0,0.0,0.0,0.0,0.0,0.0,-0.0688,-0.1269,-0.272,0.0,-0.3485,-0.3995,-0.43,-0.43,-0.43,-0.4478,-0.4661,-0.4661,-0.4926,-0.546,-0.5905,-0.6166,-0.6228,-0.6777,-0.7654,-0.8733,-0.9745,-1.2902,-1.6841,0.0,0.0,0.0,0.0,0.0,0.0,0.0,-3.6022,-3.6279,-3.6763,-3.5595,-3.4624,-3.4256,-3.2982,-3.2039,-3.1861,-3.1099,-3.0538,-3.0252,-2.9191,-2.8466,-2.7989,-2.7712,-2.7438,-2.7262,-2.7262,-2.6929,0.0,0.0,0.0,0.0,0.0,0.0,0.0,0.0,-2.4903,-2.5822,-2.6566,-2.6991,-2.7262,-2.7262,-2.7262,-2.7115,-2.5784,-2.4775,-2.3967,-2.2373,-2.1334,-2.0736,-2.0382,-2.0292,-2.0292,-2.0292,-2.0292,-2.0292,-2.0292,-2.0292,-2.0292,-2.0292,-2.0292,-2.0292,-2.0292,-2.0292,-2.0198,-1.9829,-1.9531,-1.9305,-1.884,-1.8786,-1.847,-1.7241,-1.7113,-1.6839,0.0,0.0,0.0,0.0,0.0,0.0,0.0,0.0,0.0,0.0,0.0,0.0,0.0,0.0,0.0,0.0,0.0,0.0,-0.0424,0.0,-0.201,-0.197,-0.3177,-0.3837,-0.3982,-0.4192,-0.43,-0.43,-0.43,-0.4389,-0.4478,-0.4478,-0.4659,-0.4926,-0.4741,-0.4884,-0.5264,-0.4495,-0.7379,-1.1944,-1.2579,-1.6729,-2.2388,-3.4345,0.0,-3.3423,0.0,-3.4933,-3.4855,-3.5757,-3.5717,-3.56,-3.56,-3.4527,-3.3699,-3.3678,-3.2483,-3.1599,-3.1306,-3.0892,-3.0396,-3.0012,-2.9014,-2.8362,-2.7987,-2.7536,0.0,-2.7262,-2.7262,-2.7002,-2.6568,-2.5355,0.0,0.0,0.0,0.0,0.0,-2.5278,-2.5873,-2.6588,-2.7117,-2.7262,-2.7262,-2.7262,-2.7179,-2.6909,-2.5114,-2.4114,-2.3417,-2.1749,-2.0798,-2.0473,-2.0473,-2.0473,-2.0382,-2.0292,-2.0292,-2.0292,-2.0292,-2.0292,-2.0292,-2.0382,-2.0382,-2.0473,-2.0464,-2.0464,-2.0404,-2.0047,-1.9869,-1.953,-1.9116,-1.8949,-1.8754,-1.7755,-1.7384,-1.6941,0.0,0.0,0.0,0.0,0.0,0.0,0.0,-1.3113,-1.2418,-1.2017,0.0,0.0,0.0,0.0,0.0,0.0,0.0,0.0,0.0,0.0,0.0,0.0,0.0,-0.3939,-0.4389,-0.403,-0.403,-0.43,-0.43,-0.43,-0.43,-0.403,-0.4121,-0.43,-0.3491,-0.3726,-0.4378,-0.2611,-0.5716,-1.1312,-1.3105,-1.7675,-2.349,-3.4955,-3.3953,-3.382,-3.6319,-3.5059,-3.3992,-3.5142,-3.4803,-3.441,-3.441,-3.3836,-3.3368,-3.319,-3.2075,-3.105,-3.0329,-2.9772,-2.9497,-2.9497,-2.856,-2.7998,0.0,0.0,-2.7262,-2.7262,-2.7262,-2.7262,-2.7251,0.0,0.0,-2.4549,0.0,0.0,-2.6166,-2.6166,-2.6629,-2.7251,-2.7262,-2.7262,-2.7262,-2.7262,-2.6982,-2.6434,-2.5217,-2.4131,-2.2981,-2.203,-2.1266,-2.0744,-2.0907,-2.0826,-2.0654,-2.0382,-2.0292,-2.0292,-2.0292,-2.0292,-2.0382,-2.0654,-2.0744,-2.0736,-2.0907,-2.0988,-2.0907,-2.0736,-2.0358,-1.9948,-1.9327,-1.9111,-1.8505,-1.7025,-1.8078,-1.8028,-1.4253,0.0,0.0,0.0,0.0,0.0,0.0,-1.328,-1.2814,-1.3192,0.0,0.0,0.0,0.0,0.0,0.0,0.0,0.0,-0.4846,-0.4683,0.0,-0.4599,-0.3629,-0.3669,-0.4661,-0.3494,-0.3403,-0.43,-0.43,-0.43,-0.4297,-0.3494,-0.3403,-0.3578,-0.2596,-0.2864,-0.3667,-0.1517,-0.2044,-0.4649,-0.9577,-1.369,-1.7685,-3.5777,-3.5157,-3.4901,-3.5152,-3.4585,-3.4267,-3.4633,-3.4515,-3.423,-3.381,-3.3104,-3.2487,-3.1978,-3.1579,-3.1038,0.0,-3.0034,-2.9852,0.0,-2.8828,-2.8351,-2.7987,-2.7536,-2.7262,-2.7262,-2.7262,-2.7262,-2.7262,0.0,0.0,0.0,-2.544,-2.5971,-2.694,-2.694,-2.7117,-2.7262,-2.7262,-2.7262,-2.7231,-2.691,-2.6703,-2.6383,-2.4411,-2.3505,-2.3162,-2.159,-2.0997,-2.0907,-2.0997,-2.0997,-2.0907,-2.0817,-2.0555,-2.0292,-2.0292,-2.0292,-2.0382,-2.0654,-2.0744,-2.0744,-2.0907,-2.0997,-2.0997,-2.0907,-2.0704,-2.0208,-1.9077,-1.9244,-1.8984,-1.7066,-1.7674,-1.7713,-1.5666,0.0,0.0,0.0,0.0,0.0,0.0,-1.2838,-1.2393,0.0,-1.1485,0.0,0.0,0.0,0.0,0.0,0.0,0.0,0.0,-0.5497,0.0,-0.4774,-0.4696,-0.4383,-0.3669,-0.3941,-0.4032,-0.3765,-0.3135,-0.3044,-0.3315,-0.2867,-0.2686,-0.2506,-0.1073,-0.0894,-0.116,0.249,0.0256,-0.4854,-0.4525,-1.1567,-2.1644,-3.6273,-3.5804,-3.5467,-3.4812,-3.4481,-3.4397,-3.4397,-3.4397,-3.423,-3.381,-3.3202,-3.2413,-3.1725,-3.1472,0.0,-3.0306,-3.0034,0.0,-2.9485,-2.8828,-2.8269,-2.7987,-2.7536,-2.7262,-2.7262,0.0,0.0,-2.7262,-2.6867,-2.6629,-2.6629,-2.6629,-2.6878,-2.7262,-2.7262,-2.7262,-2.7262,-2.7262,-2.7158,-2.6972,-2.6693,-2.6269,-2.5625,-2.3874,-2.3124,-2.2782,-2.1464,-2.1015,-2.1186,-2.1275,-2.1186,-2.1186,-2.1186,-2.0916,-2.0555,-2.0555,-2.0473,-2.0564,-2.0843,-2.0934,-2.1024,-2.1186,-2.1275,-2.1275,-2.1186,-2.0979,-2.0548,-1.9621,-1.9829,-1.9605,-1.7714,-1.7893,-1.7761,-1.6245,0.0,-1.5854,0.0,0.0,0.0,0.0,0.0,0.0,0.0,-1.1994,0.0,0.0,0.0,0.0,0.0,0.0,0.0,-0.6099,-0.6171,0.0,-0.5357,-0.4977,-0.4472,-0.3844,-0.4297,-0.4212,-0.3587,-0.2957,-0.2777,-0.2688,-0.224,-0.1881,-0.1523,0.0179,0.0536,0.0357,0.4271,0.2827,-0.1458,-0.1396,-0.7095,-1.5641,-3.6536,-3.5978,0.0,0.0,-3.4647,0.0,-3.4397,-3.4397,-3.4314,-3.4217,-3.3641,-3.2945,-3.2215,-3.1548,-3.0937,-3.0216,0.0,0.0,0.0,-2.8549,-2.7998,-2.7987,-2.7536,0.0,-2.7262,-2.7262,-2.7262,-2.7262,-2.7262,-2.7262,-2.7262,-2.7262,-2.7262,-2.7262,-2.7262,-2.7241,-2.721,-2.721,-2.6941,-2.6517,-2.6486,-2.5604,-2.4326,-2.3641,-2.2853,-2.2097,-2.1571,-2.1392,-2.1482,-2.1651,-2.1562,-2.1401,-2.1401,-2.1203,-2.0997,-2.0997,-2.0916,-2.0835,-2.1302,-2.1392,-2.1482,-2.1651,-2.1741,-2.1651,-2.1482,-2.1094,-2.0806,-2.0779,-2.0653,-2.0093,-1.8774,-1.8605,-1.7963,-1.6065,-1.5974,-1.5755,-1.4734,0.0,0.0,0.0,0.0,0.0,0.0,-1.2985,-1.2837,0.0,0.0,0.0,0.0,0.0,-0.7355,-0.7217,-0.6697,-0.6343,-0.6083,-0.4734,-0.4378,-0.501,-0.4387,-0.3942,-0.3587,-0.3497,-0.3048,-0.2329,-0.1345,-0.0807,-0.0448,0.1343,0.161,0.134,0.4455,0.551,0.4819,0.0719,-0.0612,-0.2301,0.0,0.0,-3.5072,-3.4647,-3.4481,-3.4397,-3.4397,-3.3979,-3.3458,-3.2834,-3.2239,-3.156,-3.0746,-3.0204,-2.9852,-2.9669,-2.9577,-2.9301,-2.891,-2.8362,-2.7809,-2.7441,-2.7357,-2.7262,-2.7262,-2.7262,-2.7262,-2.7262,-2.7262,-2.7262,-2.7262,-2.7262,-2.7262,-2.7262,-2.7262,-2.7065,-2.6734,-2.6734,-2.6177,-2.5167,-2.4927,-2.4306,-2.3641,-2.2499,-2.2241,-2.2264,-2.166,-2.1482,-2.1651,-2.1651,-2.1651,-2.1651,-2.1651,-2.1472,-2.1293,-2.1087,-2.0997,-2.1006,-2.1302,-2.1392,-2.1482,-2.1651,-2.1741,-2.1651,-2.1651,-2.1578,-2.1228,-2.0202,-2.0506,-2.0318,-1.8296,-1.8423,-1.8287,-1.6607,-1.6085,-1.5652,-1.4698,0.0,0.0,0.0,-1.3265,-1.322,-1.3601,-1.306,-1.268,0.0,0.0,0.0,0.0,0.0,-0.8738,-0.7929,-0.7316,-0.67,-0.6083,-0.5725,-0.5366,-0.5008,-0.3041,-0.2417,-0.3047,-0.2152,-0.1614,-0.1345,0.0,0.0716,0.1074,0.3304,0.4372,0.4812,0.7288,0.8428,0.8566,0.9092,0.5474,0.0,-3.5318,-3.5086,-3.4908,-3.4481,-3.4397,-3.4314,-3.3979,-3.3894,-3.3458,-3.2488,-3.1977,-3.146,-3.0758,-3.0216,-2.9852,-2.9852,-2.9198,-2.8735,-2.8362,-2.7904,-2.7536,-2.7357,-2.7262,-2.7262,-2.7262,-2.7262,-2.7262,-2.7262,-2.7262,-2.7262,-2.7262,-2.7262,-2.7262,-2.7251,-2.7044,-2.6806,-2.6558,-2.6341,-2.5615,-2.4536,-2.4307,-2.3553,-2.2626,-2.1956,-2.1704,-2.1722,-2.1374,-2.1284,-2.1365,-2.1562,-2.1562,-2.1562,-2.1651,-2.1651,-2.1472,-2.1365,-2.1275,-2.1195,-2.1472,-2.1571,-2.1562,-2.1651,-2.1741,-2.1741,-2.1741,-2.1741,-2.1391,-2.026,-2.0394,-2.014,-1.8278,-1.7932,-1.7613,-1.6629,-1.5733,-1.5006,-1.4691,-1.4186,0.0,-1.3787,-1.3547,-1.3581,-1.3884,-1.3336,-1.3002,-1.2835,0.0,0.0,-1.0799,-1.0198,-0.9393,-0.8368,-0.7665,-0.6962,-0.6257,-0.5813,-0.5369,-0.4835,-0.3223,-0.2597,-0.2867,-0.1883,-0.1076,-0.0538,0.0716,0.1522,0.2058,0.4285,0.5356,0.5797,0.8265,0.9405,1.0009,1.2009,1.0166,0.6294,-3.5141,-3.499,-3.4908,-3.4481,-3.4397,-3.423,-3.3654,-3.3894,-3.3615,-3.2476,-3.2127,-3.1789,-3.1205,-3.0487,-2.9932,-2.9932,-2.8735,-2.7987,-2.8081,-2.7631,-2.7357,-2.7262,-2.7262,-2.7262,-2.7262,-2.7262,-2.7262,-2.7262,-2.7262,-2.7262,-2.7262,-2.7189,-2.7148,-2.7138,-2.6672,-2.6423,-2.6341,-2.5947,-2.5056,-2.393,-2.393,-2.2984,-2.1526,-2.1526,-2.1347,-2.0997,-2.0997,-2.0997,-2.0997,-2.1293,-2.1392,-2.1392,-2.1562,-2.1651,-2.1741,-2.1741,-2.1562,-2.1482,-2.1651,-2.1741,-2.1741,-2.1741,-2.1741,-2.1651,-2.1553,-2.1463,-2.1186,-2.0257,-2.0025,-1.9608,-1.8193,-1.7311,-1.6695,-1.6246,-1.5094,-1.4377,-1.4545,0.0,-1.3784,-1.3933,-1.392,-1.396,-1.4062,-1.3652,-1.3392,-1.3392,-1.279,0.0,0.0,-1.0636,-0.9767,-0.8544,-0.7929,-0.7136,-0.6343,-0.5275,-0.4654,-0.4389,-0.3764,-0.3138,-0.2598,-0.1973,-0.1076,0.009,0.1164,0.2058,0.2953,0.4823,0.5714,0.6065,0.8356,0.9579,1.0183,1.1923,1.3209,1.3073,-3.4706,-3.4481,-3.4481,-3.4397,-3.4397,-3.4397,-3.423,-3.3348,-3.2575,-3.2314,-3.1258,-3.0476,-3.0397,-2.9474,-2.891,-2.891,-2.7998,-2.7715,-2.8538,-2.8175,-2.7715,-2.7357,-2.7262,-2.7262,-2.7262,-2.7262,-2.7262,-2.7262,-2.7262,-2.7262,-2.7251,-2.6858,-2.6672,-2.6662,-2.6196,-2.5782,-2.543,-2.5357,-2.4245,-2.2675,-2.2675,-2.1937,-2.0826,-2.0826,-2.0916,-2.0997,-2.0997,-2.0997,-2.0997,-2.1087,-2.1195,-2.1401,-2.1401,-2.1562,-2.1741,-2.1741,-2.1651,-2.1651,-2.1651,-2.1741,-2.1741,-2.1741,-2.1741,-2.1463,-2.0718,-2.0529,-2.0257,-1.9247,-1.9019,-1.8596,-1.7581,-1.7098,-1.6592,-1.5384,-1.4669,-1.4223,0.0,0.0,-1.4101,-1.4251,-1.4427,-1.4434,-1.4166,-1.3652,-1.3307,-1.3137,-1.2711,-1.2106,-1.1327,-1.0636,-0.9767,-0.8544,-0.8113,-0.7319,-0.6171,-0.4561,-0.3578,-0.3129,-0.2685,-0.206,-0.1345,-0.1436,-0.0897,0.009,0.1881,0.3221,0.42,0.6068,0.7312,0.8101,0.899,0.9772,1.0631,1.1671,1.2778,1.3665,-3.3579,-3.3483,-3.3483,-3.3483,-3.3238,-3.2898,-3.246,-3.1863,-3.1174,-3.0166,-2.9817,-2.9378,-2.8768,-2.832,-2.796,-2.8039,-2.7597,-2.7415,-2.7586,-2.7617,-2.7536,-2.7357,-2.7262,-2.7262,-2.7262,-2.7262,-2.7138,-2.6889,-2.6889,-2.6755,-2.6517,-2.6299,-2.6196,-2.6175,-2.573,-2.542,-2.5124,-2.4527,-2.3574,-2.2394,-2.205,-2.1356,-2.0473,-2.0473,-2.0555,-2.0645,-2.0645,-2.0645,-2.0645,-2.0907,-2.1096,-2.1195,-2.1472,-2.1651,-2.1741,-2.1741,-2.1741,-2.1741,-2.1741,-2.1741,-2.1553,-2.1087,-2.0988,-2.0718,-1.9704,-1.9521,-1.919,-1.7995,-1.7841,-1.7535,-1.6382,-1.6074,-1.5801,-1.4903,-1.45,0.0,0.0,-1.4315,-1.4429,-1.4324,-1.4566,-1.4489,-1.3913,-1.3568,-1.3313,-1.3137,-1.2546,-1.1854,-1.0982,-1.0024,-0.8794,-0.7295,-0.6505,-0.5531,-0.4198,-0.3129,-0.2235,-0.1518,-0.1073,-0.0447,0.0268,0.0804,0.1341,0.1789,0.3749,0.4734,0.5008,0.7044,0.7933,0.8197,0.9428,1.0207,1.0982,1.226,1.3288,1.4048,-3.2738,-3.2685,-3.2698,-3.2527,-3.2047,-3.1373,-3.0692,-3.0348,-2.9761,-2.8355,-2.8505,-2.8407,-2.747,-2.7293,-2.7205,-2.7205,-2.7117,-2.685,-2.6483,-2.6815,-2.6941,-2.6941,-2.6941,-2.6941,-2.6941,-2.6941,-2.6765,-2.6403,-2.6403,-2.6227,-2.5875,-2.5771,-2.573,-2.5709,-2.5264,-2.498,-2.4784,-2.3904,-2.296,-2.2138,-2.1624,-2.1006,-2.0292,-2.0292,-2.0292,-2.0292,-2.0382,-2.0382,-2.0473,-2.0817,-2.0997,-2.1186,-2.1562,-2.1553,-2.1365,-2.1365,-2.1186,-2.1096,-2.1275,-2.1186,-2.0817,-2.0167,-1.9977,-1.9704,-1.8703,-1.8364,-1.8041,-1.6879,-1.6711,-1.6462,-1.5373,-1.5226,-1.5092,-1.4621,0.0,0.0,0.0,-1.4529,-1.4479,-1.4448,-1.4566,-1.4398,-1.3737,-1.3483,-1.3307,-1.2966,-1.2112,-1.1246,-1.0284,-0.9056,-0.7288,-0.5161,-0.4545,-0.3659,-0.2502,-0.1789,-0.0894,0.0,0.0536,0.1251,0.2052,0.2854,0.339,0.3751,0.5518,0.6148,0.6077,0.7925,0.8456,0.8376,0.9772,1.0641,1.1241,1.2687,1.3626,1.4307,-3.266,-3.2685,-3.2527,-3.1966,-3.1442,-3.0902,-3.024,-2.923,-2.8557,-2.8396,-2.7886,-2.747,-2.7382,-2.6939,-2.6662,-2.6662,-2.6225,-2.5965,-2.5965,-2.5937,-2.5978,-2.5978,-2.5978,-2.5978,-2.5978,-2.5978,-2.5968,-2.5927,-2.5927,-2.5906,-2.5875,-2.5471,-2.5275,-2.5254,-2.4799,-2.4247,-2.364,-2.3513,-2.2696,-2.1445,-2.1445,-2.1006,-2.0292,-2.0292,-2.0292,-2.0292,-2.0564,-2.0654,-2.0736,-2.0907,-2.1195,-2.1392,-2.1392,-2.0916,-2.0439,-2.0439,-1.9704,-1.9247,-2.0158,-1.9704,-1.8972,-1.8972,-1.888,-1.8611,-1.7598,-1.7268,-1.6766,-1.595,-1.5582,-1.5338,-1.521,-1.5142,-1.5011,-1.4667,0.0,0.0,-1.4779,-1.4529,-1.4391,-1.4615,-1.4566,-1.4146,-1.3483,-1.3398,-1.3137,-1.2534,-1.1397,-1.0269,-0.9318,-0.7548,-0.5245,-0.2231,-0.268,-0.286,-0.2502,-0.0894,0.0358,0.1253,0.179,0.2593,0.3749,0.3653,0.4007,0.4987,0.6389,0.7281,0.7746,0.8707,0.924,0.9515,1.012,1.0722,1.1408,1.2357,1.3464,1.4482,-3.1664,-3.1306,-3.1074,-3.1242,-3.0186,-2.9213,-2.9108,-2.8045,-2.7066,-2.6472,-2.6227,-2.5905,-2.5646,-2.5385,-2.5298,-2.5298,-2.5134,-2.5047,-2.5047,-2.5047,-2.5295,-2.5854,-2.5875,-2.5875,-2.5875,-2.5875,-2.5751,-2.5482,-2.5482,-2.5337,-2.5047,-2.4881,-2.4538,-2.4102,-2.3931,-2.3484,-2.2765,-2.2334,-2.1891,-2.1356,-2.0916,-2.0555,-2.0292,-2.0292,-2.0292,-2.0292,-2.0382,-2.0473,-2.0473,-2.0907,-2.1087,-2.1096,-2.0817,-2.0907,-2.1087,-2.0439,-1.9155,-1.7971,-1.8334,-1.8611,-1.8611,-1.8064,-1.7878,-1.7546,-1.6429,-1.6111,-1.5917,-1.5109,-1.5108,-1.514,-1.4774,-1.4818,-1.4726,-1.4497,0.0,-1.475,-1.4557,-1.47,-1.4698,-1.4552,-1.4321,-1.399,-1.3476,-1.279,-1.21,-1.1569,-1.0443,-0.9222,-0.799,-0.5424,-0.3121,-0.1164,-0.0358,0.0,-0.0089,0.0984,0.2148,0.3223,0.3844,0.4734,0.5716,0.6236,0.6672,0.7024,0.8515,0.9213,0.9387,0.984,1.0279,1.0621,1.0544,1.0982,1.1843,1.2448,1.3215,1.4068,-3.0986,-3.0432,-3.0037,-3.0177,-2.8846,-2.7661,-2.7464,-2.6505,-2.5695,-2.5031,-2.4956,-2.4871,-2.454,-2.454,-2.454,-2.454,-2.454,-2.454,-2.454,-2.454,-2.4819,-2.543,-2.5461,-2.5461,-2.5461,-2.5461,-2.5316,-2.5016,-2.5016,-2.4861,-2.454,-2.454,-2.411,-2.3503,-2.3503,-2.296,-2.205,-2.1615,-2.1266,-2.0997,-2.0464,-2.0292,-2.0292,-2.0292,-2.0292,-2.0292,-2.0382,-2.0473,-2.0464,-2.0907,-2.0808,-2.0447,-2.0257,-2.0257,-2.0175,-1.9147,-1.7956,-1.6835,-1.6743,-1.7172,-1.7535,-1.6901,-1.6714,-1.645,-1.5508,-1.5281,-1.519,-1.4697,-1.4788,-1.49,-1.4523,-1.465,-1.4671,-1.455,-1.4774,-1.4844,-1.4625,-1.4781,-1.4741,-1.4321,-1.4075,-1.3652,-1.2966,-1.2192,-1.1408,-1.0529,-0.9222,-0.7636,-0.5422,-0.3212,-0.1342,0.0179,0.1343,0.2059,0.2418,0.2776,0.3491,0.4654,0.5272,0.616,0.7234,0.8197,0.8715,0.8973,1.0366,1.0799,1.0433,1.1058,1.123,1.1047,1.1063,1.1499,1.2186,1.279,1.3392,1.3906,-3.0986,-3.0432,-2.9639,-2.8585,-2.7545,-2.64,-2.5359,-2.4786,-2.454,-2.454,-2.454,-2.454,-2.454,-2.454,-2.454,-2.454,-2.454,-2.454,-2.4454,-2.4454,-2.4454,-2.4454,-2.454,-2.454,-2.454,-2.454,-2.454,-2.454,-2.454,-2.454,-2.454,-2.4454,-2.411,-2.3503,-2.3503,-2.2696,-2.1356,-2.1356,-2.1006,-2.0292,-2.0292,-2.0292,-2.0292,-2.0292,-2.0292,-2.0292,-2.0564,-2.0654,-2.0744,-2.0907,-2.0357,-1.953,-1.9803,-1.8703,-1.7044,-1.6109,-1.5825,-1.5765,-1.5478,-1.5398,-1.5391,-1.5391,-1.5391,-1.5317,-1.5023,-1.473,-1.4609,-1.4877,-1.4617,-1.4482,-1.465,-1.4734,-1.4824,-1.509,-1.4915,-1.4824,-1.509,-1.4741,-1.4321,-1.4082,-1.3828,-1.3137,-1.1843,-1.1843,-1.123,-0.9323,-0.7903,-0.5424,-0.161,-0.1165,-0.009,0.2149,0.2238,0.2952,0.4559,0.4115,0.4383,0.5447,0.5891,0.6868,0.8201,0.9148,0.9845,1.0381,1.2015,1.1929,1.0722,1.21,1.1929,1.0722,1.1671,1.2192,1.2534,1.3392,1.3913,1.4166,-2.9768,-2.873,-2.7775,-2.7924,-2.6987,-2.6113,-2.5841,-2.5348,-2.4871,-2.454,-2.454,-2.454,-2.454,-2.454,-2.454,-2.454,-2.4378,-2.4196,-2.4013,-2.4013,-2.4013,-2.4013,-2.4282,-2.454,-2.454,-2.454,-2.454,-2.454,-2.4368,-2.4292,-2.4292,-2.3754,-2.3135,-2.2511,-2.2157,-2.1535,-2.0645,-2.0645,-2.0464,-2.0292,-2.0292,-2.0292,-2.0292,-2.0292,-2.0292,-2.0292,-2.0382,-2.0002,-1.9438,-1.9803,-1.9247,-1.8503,-1.8972,-1.7777,-1.6298,-1.677,-1.6241,-1.5504,-1.5424,-1.5251,-1.5187,-1.5278,-1.5368,-1.5293,-1.4994,-1.4932,-1.4888,-1.4433,-1.4473,-1.4566,-1.4482,-1.4741,-1.4999,-1.509,-1.5006,-1.4915,-1.4824,-1.4734,-1.4398,-1.3906,-1.3307,-1.2705,-1.2015,-1.0453,-0.9235,-0.8532,-0.5963,-0.339,-0.1342,-0.0179,0.1074,0.2329,0.3575,0.4554,0.5361,0.5095,0.5447,0.6422,0.7221,0.8013,0.8886,0.9763,1.0717,1.1757,1.2277,1.2954,1.3717,1.3372,1.3535,1.3866,1.3033,1.3209,1.3971,1.3476,1.373,1.4321,-2.873,-2.7695,-2.6894,-2.7116,-2.6257,-2.5538,-2.5348,-2.5105,-2.4786,-2.4272,-2.4282,-2.4368,-2.4186,-2.4196,-2.4196,-2.4196,-2.411,-2.3927,-2.3841,-2.3841,-2.3841,-2.3841,-2.41,-2.4196,-2.4196,-2.4196,-2.4196,-2.4196,-2.411,-2.4024,-2.4024,-2.3222,-2.2589,-2.2059,-2.1159,-2.0538,-2.0011,-2.0011,-2.0011,-2.0011,-2.0201,-2.0292,-2.0292,-1.9828,-1.9729,-1.9637,-1.9263,-1.8796,-1.8427,-1.8703,-1.8234,-1.7576,-1.749,-1.6671,-1.5752,-1.6399,-1.5913,-1.5204,-1.5084,-1.4923,-1.4851,-1.4899,-1.496,-1.4886,-1.4681,-1.4692,-1.4631,-1.4284,-1.4405,-1.4566,-1.4657,-1.4915,-1.509,-1.509,-1.509,-1.4824,-1.4048,-1.388,-1.3542,-1.2613,-1.1923,-1.1316,-1.0712,-0.9235,-0.783,-0.6584,-0.4013,-0.1878,-0.0537,0.0805,0.2058,0.322,0.4643,0.58,0.6694,0.6688,0.6864,0.7401,0.8277,0.9065,0.9671,1.0544,1.1499,1.2448,1.279,1.347,1.4237,1.4048,1.4216,1.4636,1.3971,1.4146,1.4824,1.43,1.4391,1.4741,-2.7683,-2.7046,-2.6494,-2.5997,-2.5516,-2.4946,-2.4292,-2.4378,-2.4282,-2.3927,-2.4024,-2.411,-2.3841,-2.3841,-2.3841,-2.3841,-2.3754,-2.3754,-2.3754,-2.3754,-2.3754,-2.3754,-2.3754,-2.3754,-2.3754,-2.3754,-2.3841,-2.3841,-2.3754,-2.3754,-2.3657,-2.2668,-2.2138,-2.1784,-2.043,-1.972,-1.9554,-1.9554,-1.9554,-1.9546,-1.992,-2.0102,-2.0011,-1.9072,-1.8696,-1.8511,-1.7669,-1.7397,-1.7498,-1.7404,-1.7131,-1.6662,-1.5697,-1.5417,-1.5299,-1.5364,-1.515,-1.4863,-1.4596,-1.4502,-1.4416,-1.4382,-1.444,-1.4409,-1.4233,-1.4166,-1.4166,-1.4398,-1.4398,-1.4566,-1.4999,-1.509,-1.509,-1.4999,-1.5006,-1.4482,-1.2851,-1.2674,-1.2169,-1.0809,-1.0188,-0.9492,-0.8632,-0.8181,-0.676,-0.3838,-0.2146,-0.0716,0.0538,0.1701,0.304,0.4378,0.5622,0.6956,0.8288,0.8548,0.8544,0.8372,0.9235,0.9937,1.0463,1.1499,1.2186,1.2534,1.3392,1.3561,1.3294,1.4314,1.4475,1.4041,1.4559,1.4992,1.5249,1.5628,1.547,1.5333,-2.64,-2.5673,-2.4946,-2.4861,-2.47,-2.4625,-2.4454,-2.4378,-2.4206,-2.412,-2.4024,-2.3841,-2.3841,-2.3841,-2.3841,-2.3841,-2.3677,-2.3493,-2.3232,-2.3222,-2.3222,-2.3222,-2.3222,-2.3222,-2.3222,-2.358,-2.3841,-2.3841,-2.3677,-2.3125,-2.2394,-2.1606,-2.0889,-2.0068,-1.9363,-1.9004,-1.9004,-1.9004,-1.9004,-1.8912,-1.8711,-1.8603,-1.8511,-1.7855,-1.7669,-1.7576,-1.739,-1.6828,-1.6082,-1.5534,-1.5445,-1.5412,-1.4991,-1.4875,-1.4877,-1.4747,-1.4576,-1.4427,-1.4449,-1.4355,-1.4162,-1.4186,-1.4291,-1.448,-1.4587,-1.4573,-1.4573,-1.4398,-1.4657,-1.4831,-1.4566,-1.4999,-1.509,-1.4398,-1.4314,-1.3886,-1.2607,-1.2351,-1.2009,-1.1068,-1.0193,-0.9405,-0.889,-0.6943,-0.4548,-0.1877,-0.0805,0.0358,0.1701,0.366,0.4994,0.5711,0.7214,0.8193,0.8732,0.951,0.9767,0.951,0.9941,1.0549,1.1413,1.2015,1.2705,1.3476,1.3828,1.4321,1.4887,1.5311,1.5643,1.5809,1.556,1.5824,1.6319,1.5876,1.5966,1.6402,-2.5348,-2.4861,-2.4454,-2.4368,-2.4378,-2.4282,-2.4024,-2.4024,-2.3937,-2.3667,-2.3667,-2.358,-2.3484,-2.3493,-2.3493,-2.3493,-2.3406,-2.3232,-2.3144,-2.3135,-2.3135,-2.3135,-2.3135,-2.2862,-2.2217,-2.2473,-2.2931,-2.3493,-2.3319,-2.2775,-2.1863,-2.097,-2.0249,-1.9438,-1.8535,-1.8357,-1.8827,-1.8827,-1.892,-1.9188,-1.8611,-1.8419,-1.8326,-1.7016,-1.6546,-1.6546,-1.6075,-1.5615,-1.5222,-1.481,-1.4772,-1.4822,-1.4628,-1.4443,-1.4488,-1.4435,-1.4281,-1.4144,-1.4315,-1.4202,-1.4088,-1.4088,-1.4166,-1.4243,-1.4412,-1.4489,-1.4566,-1.4391,-1.4566,-1.4657,-1.4314,-1.4566,-1.4489,-1.3724,-1.3457,-1.2936,-1.158,-1.123,-1.0707,-0.9497,-0.8711,-0.783,-0.6672,-0.49,-0.2856,-0.0536,0.0447,0.1521,0.2774,0.473,0.5974,0.6422,0.8185,0.9336,0.9602,1.0376,1.0895,1.1068,1.1241,1.1585,1.202,1.2619,1.3222,1.3913,1.4004,1.458,1.5394,1.565,1.5982,1.6394,1.6229,1.6566,1.6976,1.6878,1.7115,1.7456,-2.4444,-2.4368,-2.4282,-2.411,-2.412,-2.3937,-2.3503,-2.358,-2.3493,-2.3144,-2.3232,-2.3232,-2.2969,-2.296,-2.296,-2.296,-2.296,-2.296,-2.296,-2.296,-2.296,-2.296,-2.2862,-2.2315,-2.1293,-2.1114,-2.1489,-2.2511,-2.2511,-2.205,-2.115,-2.0331,-1.9695,-1.9072,-1.7878,-1.7699,-1.8357,-1.8357,-1.8535,-1.8796,-1.8234,-1.8041,-1.7956,-1.6177,-1.5514,-1.5425,-1.458,-1.437,-1.4582,-1.4534,-1.452,-1.4431,-1.416,-1.4091,-1.4067,-1.4109,-1.4012,-1.3997,-1.4088,-1.3997,-1.3828,-1.3828,-1.3737,-1.3652,-1.3652,-1.3893,-1.4132,-1.3964,-1.4048,-1.4048,-1.3795,-1.3886,-1.3717,-1.2869,-1.2601,-1.1997,-1.0381,-0.9845,-0.9144,-0.7753,-0.6874,-0.5716,-0.3838,-0.2769,-0.1339,0.0713,0.1876,0.295,0.4109,0.5708,0.6776,0.7305,0.9061,1.012,1.0467,1.1154,1.1757,1.2363,1.2619,1.2625,1.2619,1.3222,1.3743,1.4088,1.4257,1.4664,1.5394,1.565,1.5982,1.6394,1.6648,1.6902,1.731,1.787,1.8264,1.8505,-2.3927,-2.3927,-2.3841,-2.359,-2.359,-2.3503,-2.3232,-2.3057,-2.2882,-2.2891,-2.2706,-2.253,-2.252,-2.253,-2.253,-2.253,-2.253,-2.253,-2.253,-2.253,-2.253,-2.253,-2.1695,-2.1221,-2.1042,-2.0223,-1.9951,-2.0339,-2.0339,-1.9977,-1.9155,-1.9063,-1.8519,-1.7606,-1.7419,-1.7044,-1.6567,-1.6567,-1.619,-1.5615,-1.5146,-1.5051,-1.5153,-1.44,-1.4304,-1.4484,-1.4394,-1.4153,-1.4048,-1.4011,-1.3847,-1.361,-1.3349,-1.341,-1.3586,-1.3525,-1.3593,-1.3822,-1.4004,-1.3483,-1.2875,-1.2875,-1.2431,-1.1997,-1.1752,-1.2431,-1.3014,-1.2242,-1.2504,-1.2766,-1.2351,-1.296,-1.3045,-1.1752,-1.1666,-1.1241,-0.9689,-0.8986,-0.8456,-0.7848,-0.6062,-0.4283,-0.2858,-0.1609,0.0089,0.2675,0.3566,0.4723,0.6319,0.7738,0.8711,0.9231,1.0024,1.0722,1.1154,1.1929,1.2277,1.2448,1.3398,1.3659,1.3307,1.3743,1.4004,1.4173,1.4671,1.5166,1.5394,1.5831,1.6162,1.6394,1.6648,1.673,1.6894,1.7861,1.8754,1.9478,-2.3396,-2.3396,-2.3319,-2.3144,-2.3154,-2.3057,-2.2784,-2.2618,-2.2618,-2.2618,-2.2441,-2.2441,-2.2441,-2.2441,-2.2441,-2.2441,-2.2441,-2.2441,-2.2441,-2.2441,-2.2157,-2.1606,-2.123,-2.0413,-1.9139,-1.8688,-1.8326,-1.7878,-1.9055,-1.9231,-1.8319,-1.8511,-1.7677,-1.5994,-1.6177,-1.5785,-1.5108,-1.5406,-1.5501,-1.5399,-1.4854,-1.4765,-1.4771,-1.4022,-1.3732,-1.3806,-1.3749,-1.3532,-1.3297,-1.3247,-1.284,-1.2338,-1.2178,-1.1919,-1.1712,-1.1688,-1.1826,-1.1997,-1.2083,-1.1826,-1.1569,-1.1569,-1.1574,-1.1402,-1.0361,-1.088,-1.174,-1.1832,-1.2345,-1.2522,-1.21,-1.21,-1.1929,-1.1063,-1.0809,-1.0294,-0.9074,-0.8632,-0.7921,-0.6239,-0.4905,-0.3299,-0.0981,0.0178,0.1781,0.4368,0.5255,0.6231,0.7478,0.8711,0.941,0.9763,1.1472,1.2413,1.2668,1.3847,1.4518,1.4844,1.5274,1.497,1.3828,1.4243,1.4496,1.4671,1.5006,1.5249,1.5567,1.5914,1.6245,1.6394,1.6648,1.6976,1.7546,1.8273,1.9002,1.9645]}]]